DO3MHA-13 Weather Reports


Display with metric or nautical units.
time (UTC)temp
F
wind
direction
speed
MPH
gust
MPH
rain 1hr
in
rain 24hr
in
rain mn
in
humidity
%
barometer
mb
20260506062513 0 90 1.0 2.0 0.00 0.01 0.00 998.3
20260506062453 0 135 1.0 2.0 0.00 0.01 0.00 998.2
20260506062443 0 135 2.0 2.0 0.00 0.01 0.00 998.3
20260506062433 0 135 2.0 2.0 0.00 0.01 0.00 998.2
20260506062423 0 90 2.0 2.0 0.00 0.01 0.00 998.3
20260506062353 0 135 1.0 4.0 0.00 0.01 0.00 998.3
20260506062343 0 135 1.0 4.0 0.00 0.01 0.00 998.2
20260506062313 0 90 1.0 4.0 0.00 0.01 0.00 998.3
20260506062305 0 90 0.0 4.0 0.00 0.01 0.00 998.3
20260506062253 0 113 0.0 4.0 0.00 0.01 0.00 998.3
20260506062243 0 135 0.0 4.0 0.00 0.01 0.00 998.3
20260506062213 0 135 1.0 4.0 0.00 0.01 0.00 998.3
20260506062153 0 90 0.0 4.0 0.00 0.01 0.00 998.3
20260506062133 0 135 0.0 4.0 0.00 0.01 0.00 998.3
20260506062053 0 135 0.0 4.0 0.00 0.01 0.00 998.3
20260506062023 0 135 1.0 4.0 0.00 0.01 0.00 998.3
20260506062013 0 135 2.0 4.0 0.00 0.01 0.00 998.3
20260506061944 0 158 2.0 4.0 0.00 0.01 0.00 998.3
20260506061934 0 135 2.0 4.0 0.00 0.01 0.00 998.3
20260506061924 0 180 2.0 4.0 0.00 0.01 0.00 998.3
20260506061914 0 180 2.0 3.0 0.00 0.01 0.00 998.3
20260506061904 0 90 2.0 3.0 0.00 0.01 0.00 998.3
20260506061854 0 135 2.0 3.0 0.00 0.01 0.00 998.3
20260506061844 0 135 2.0 3.0 0.00 0.01 0.00 998.4
20260506061804 0 135 2.0 3.0 0.00 0.01 0.00 998.3
20260506061754 0 135 1.0 3.0 0.00 0.01 0.00 998.3
20260506061744 0 158 1.0 3.0 0.00 0.01 0.00 998.3
20260506061724 0 180 1.0 3.0 0.00 0.01 0.00 998.3
20260506061714 0 180 1.0 3.0 0.00 0.01 0.00 998.4
20260506061704 0 180 1.0 3.0 0.00 0.01 0.00 979.8
20260506061654 0 135 1.0 3.0 0.00 0.01 0.00 998.3
20260506061644 0 135 1.0 3.0 0.00 0.01 0.00 998.4
20260506061624 0 135 2.0 3.0 0.00 0.01 0.00 998.3
20260506061614 0 180 2.0 4.0 0.00 0.01 0.00 998.4
20260506061544 0 180 2.0 4.0 0.00 0.01 0.00 998.3
20260506061534 0 158 2.0 4.0 0.00 0.01 0.00 998.3
20260506061524 0 135 2.0 4.0 0.00 0.01 0.00 998.3
20260506061504 0 135 1.0 4.0 0.00 0.01 0.00 998.3
20260506061454 0 90 1.0 4.0 0.00 0.01 0.00 998.3
20260506061445 0 90 1.0 4.0 0.00 0.01 0.00 764.1
20260506061434 0 90 0.0 4.0 0.00 0.01 0.00 998.3
20260506061424 0 135 0.0 4.0 0.00 0.01 0.00 998.4
20260506061415 0 135 0.0 4.0 0.00 0.01 0.00 998.3
20260506061355 0 135 1.0 4.0 0.00 0.01 0.00 998.3
20260506061345 0 135 1.0 4.0 0.00 0.01 0.00 998.4
20260506061335 0 90 1.0 4.0 0.00 0.01 0.00 998.4
20260506061305 0 135 1.0 4.0 0.00 0.01 0.00 998.4
20260506061255 0 180 1.0 4.0 0.00 0.01 0.00 998.4
20260506061225 0 135 2.0 4.0 0.00 0.01 0.00 821.6
20260506061215 0 135 2.0 4.0 0.00 0.01 0.00 998.4
20260506061155 0 158 2.0 4.0 0.00 0.01 0.00 998.5
20260506061135 0 135 2.0 4.0 0.00 0.01 0.00 998.4
20260506061115 0 180 2.0 4.0 0.00 0.01 0.00 998.4
20260506061105 0 158 2.0 4.0 0.00 0.01 0.00 998.4
20260506061055 0 158 2.0 4.0 0.00 0.01 0.00 998.5
20260506061045 0 135 2.0 4.0 0.00 0.01 0.00 998.5
20260506061025 0 180 2.0 4.0 0.00 0.01 0.00 998.5
20260506061005 0 180 2.0 4.0 0.00 0.01 0.00 998.4
20260506060925 0 180 2.0 4.0 0.00 0.01 0.00 998.4
20260506060915 0 180 2.0 3.0 0.00 0.01 0.00 998.4
20260506060856 0 135 1.0 3.0 0.00 0.01 0.00 998.4
20260506060816 0 135 1.0 3.0 0.00 0.01 0.00 998.4
20260506060806 0 90 1.0 3.0 0.00 0.01 0.00 998.4
20260506060736 0 135 1.0 3.0 0.00 0.01 0.00 998.3
20260506060726 0 135 1.0 3.0 0.00 0.01 0.00 998.4
20260506060646 0 135 1.0 3.0 0.00 0.01 0.00 998.3
20260506060626 0 90 1.0 3.0 0.00 0.01 0.00 998.3
20260506060546 0 90 1.0 3.0 0.00 0.01 0.00 998.3
20260506060516 0 135 1.0 3.0 0.00 0.01 0.00 998.3
20260506060506 0 90 1.0 3.0 0.00 0.01 0.00 998.3
20260506060456 0 90 2.0 3.0 0.00 0.01 0.00 998.3
20260506060436 0 135 2.0 3.0 0.00 0.01 0.00 998.3
20260506060416 0 90 2.0 3.0 0.00 0.01 0.00 998.3
20260506060336 0 90 2.0 3.0 0.00 0.01 0.00 998.3
20260506060316 0 45 2.0 3.0 0.00 0.01 0.00 998.3
20260506060247 0 90 2.0 3.0 0.00 0.01 0.00 998.3
20260506060236 0 45 2.0 3.0 0.00 0.01 0.00 998.3
20260506060207 0 90 2.0 3.0 0.00 0.01 0.00 998.3
20260506060157 0 45 2.0 3.0 0.00 0.01 0.00 998.3
20260506060117 0 45 2.0 3.0 0.00 0.01 0.00 998.3
20260506060107 0 45 1.0 3.0 0.00 0.01 0.00 998.3
20260506051404 0 135 0.0 1.0 0.00 0.01 0.00 998.4
20260506051344 0 135 0.0 1.0 0.00 0.01 0.00 998.3
20260506051324 0 135 0.0 1.0 0.00 0.01 0.00 998.4
20260506051244 0 135 0.0 1.0 0.00 0.01 0.00 998.4
20260506051204 0 135 0.0 1.0 0.00 0.01 0.00 998.4
20260506051154 0 135 0.0 1.0 0.00 0.01 0.00 998.3
20260506051115 0 135 0.0 1.0 0.00 0.01 0.00 998.4
20260506051045 0 135 0.0 1.0 0.00 0.01 0.00 998.3
20260506051035 0 135 0.0 1.0 0.00 0.01 0.00 998.4
20260506051025 0 135 0.0 0.0 0.00 0.01 0.00 998.4
20260506051015 0 135 0.0 0.0 0.00 0.01 0.00 998.3
20260506050945 0 135 0.0 0.0 0.00 0.01 0.00 998.4
20260506050915 0 135 0.0 0.0 0.00 0.01 0.00 998.3
20260506050855 60 135 0.0 0.0 0.00 0.01 0.00 71 998.3
20260506050835 0 135 0.0 0.0 0.00 0.01 0.00 998.3
20260506050815 0 0 0.0 0.0 0.00 0.01 0.00 998.3
20260506050735 0 0 0.0 0.0 0.00 0.01 0.00 998.3
20260506050655 0 0 0.0 0.0 0.00 0.01 0.00 998.3
20260506050615 0 0 0.0 0.0 0.00 0.01 0.00 998.3
20260506050535 0 0 0.0 0.0 0.00 0.01 0.00 998.3
20260506050525 0 0 0.0 0.0 0.00 0.01 0.00 998.4
20260506050445 0 0 0.0 1.0 0.00 0.01 0.00 998.3
20260506050435 0 0 0.0 1.0 0.00 0.01 0.00 998.4
20260506050356 0 0 0.0 1.0 0.00 0.01 0.00 998.4
20260506050346 0 0 0.0 1.0 0.00 0.01 0.00 998.3
20260506050316 0 0 0.0 1.0 0.00 0.01 0.00 998.4
20260506050306 0 0 0.0 1.0 0.00 0.01 0.00 998.3
20260506050256 0 0 0.0 1.0 0.00 0.01 0.00 862.1
20260506050216 0 0 0.0 1.0 0.00 0.01 0.00 998.3
20260506050136 0 0 0.0 1.0 0.00 0.01 0.00 998.3
20260506045057 0 0 0.0 0.0 0.00 0.01 0.00 998.4
20260506045017 0 0 0.0 0.0 0.00 0.01 0.00 998.4
20260506044938 0 0 0.0 0.0 0.00 0.01 0.00 998.4
20260506044858 0 0 0.0 0.0 0.00 0.01 0.00 998.4
20260506044848 0 45 0.0 0.0 0.00 0.01 0.00 998.3
20260506044828 0 45 0.0 0.0 0.00 0.01 0.00 998.4
20260506044818 0 270 0.0 0.0 0.00 0.01 0.00 998.3
20260506044808 0 225 0.0 0.0 0.00 0.01 0.00 998.4
20260506044748 0 225 0.0 0.0 0.00 0.01 0.00 998.3
20260506044708 0 225 0.0 0.0 0.00 0.01 0.00 998.4
20260506044658 0 225 0.0 0.0 0.00 0.01 0.00 998.3
20260506044648 0 270 0.0 0.0 0.00 0.01 0.00 998.4
20260506044628 0 270 0.0 0.0 0.00 0.01 0.00 998.3
20260506044548 0 225 0.0 0.0 0.00 0.01 0.00 998.4
20260506044538 0 225 0.0 0.0 0.00 0.01 0.00 998.3
20260506044458 0 225 0.0 0.0 0.00 0.01 0.00 998.4
20260506044448 0 225 0.0 0.0 0.00 0.01 0.00 998.3
20260506044428 0 225 0.0 1.0 0.00 0.01 0.00 998.3
20260506044408 0 225 0.0 1.0 0.00 0.01 0.00 998.4
20260506044329 0 225 0.0 1.0 0.00 0.01 0.00 998.4
20260506044259 0 225 0.0 1.0 0.00 0.01 0.00 998.3
20260506044239 0 225 0.0 1.0 0.00 0.01 0.00 998.4
20260506044229 0 225 0.0 2.0 0.00 0.01 0.00 998.3
20260506044209 0 270 0.0 2.0 0.00 0.01 0.00 998.4
20260506044159 0 315 0.0 2.0 0.00 0.01 0.00 998.4
20260506044139 0 180 0.0 2.0 0.00 0.01 0.00 998.5
20260506044129 0 180 0.0 2.0 0.00 0.01 0.00 998.4
20260506044049 0 180 0.0 2.0 0.00 0.01 0.00 998.4
20260506044039 0 180 0.0 2.0 0.00 0.01 0.00 998.5
20260506044009 0 180 0.0 2.0 0.00 0.01 0.00 998.4
20260506043959 0 180 0.0 2.0 0.00 0.01 0.00 998.5
20260506043939 0 203 0.0 2.0 0.00 0.01 0.00 998.5
20260506043909 0 180 0.0 2.0 0.00 0.01 0.00 998.5
20260506043829 0 180 0.0 2.0 0.00 0.01 0.00 998.5
20260506043749 0 180 0.0 2.0 0.00 0.01 0.00 998.5
20260506043739 0 225 0.0 2.0 0.00 0.01 0.00 998.5
20260506043729 0 180 0.0 2.0 0.00 0.01 0.00 998.4
20260506043659 0 180 0.0 2.0 0.00 0.01 0.00 998.5
20260506043639 0 225 0.0 2.0 0.00 0.01 0.00 998.5
20260506043629 0 180 0.0 3.0 0.00 0.01 0.00 998.5
20260506043609 0 225 0.0 3.0 0.00 0.01 0.00 998.4
20260506043600 0 225 0.0 3.0 0.00 0.01 0.00 998.5
20260506043530 0 180 0.0 3.0 0.00 0.01 0.00 998.5
20260506043520 0 225 0.0 3.0 0.00 0.01 0.00 998.5
20260506043440 0 225 0.0 3.0 0.00 0.01 0.00 998.5
20260506043410 0 225 1.0 3.0 0.00 0.01 0.00 998.5
20260506043330 0 225 0.0 3.0 0.00 0.01 0.00 998.5
20260506043250 0 225 0.0 3.0 0.00 0.01 0.00 998.5
20260506043240 0 225 0.0 3.0 0.00 0.01 0.00 998.6
20260506043230 0 225 1.0 3.0 0.00 0.01 0.00 998.5
20260506043220 0 225 1.0 3.0 0.00 0.01 0.00 998.6
20260506043120 0 225 1.0 2.0 0.00 0.01 0.00 998.6
20260506043110 0 225 1.0 3.0 0.00 0.01 0.00 998.6
20260506043050 0 225 1.0 3.0 0.00 0.01 0.00 998.5
20260506043030 0 225 1.0 3.0 0.00 0.01 0.00 998.6
20260506043020 0 225 1.0 3.0 0.00 0.01 0.00 991.9
20260506043000 0 225 1.0 3.0 0.00 0.01 0.00 998.5
20260506042940 0 225 1.0 3.0 0.00 0.01 0.00 998.6
20260506042920 0 225 1.0 3.0 0.00 0.01 0.00 998.5
20260506042910 0 225 1.0 3.0 0.00 0.01 0.00 1014.8
20260506042830 0 225 1.0 3.0 0.00 0.01 0.00 998.6
20260506042821 0 225 1.0 3.0 0.00 0.01 0.00 998.5
20260506042741 0 225 1.0 3.0 0.00 0.01 0.00 998.5
20260506042711 0 180 1.0 3.0 0.00 0.01 0.00 998.5
20260506042701 0 225 1.0 3.0 0.00 0.01 0.00 998.5
20260506042651 0 225 1.0 3.0 0.00 0.01 0.00 998.6
20260506042621 0 225 1.0 3.0 0.00 0.01 0.00 998.5
20260506042541 0 225 1.0 3.0 0.00 0.01 0.00 998.5
20260506042501 0 225 1.0 3.0 0.00 0.01 0.00 998.5
20260506042421 0 225 1.0 3.0 0.00 0.01 0.00 998.5
20260506042341 0 225 2.0 3.0 0.00 0.01 0.00 998.5
20260506042304 0 225 2.0 3.0 0.00 0.01 0.00 998.5
20260506042221 0 225 1.0 3.0 0.00 0.01 0.00 998.5
20260506042211 0 225 0.0 2.0 0.00 0.01 0.00 998.5
20260506042141 0 225 0.0 2.0 0.00 0.01 0.00 998.6
20260506042132 0 225 0.0 2.0 0.00 0.01 0.00 998.5
20260506042052 0 225 1.0 2.0 0.00 0.01 0.00 998.5
20260506042042 0 225 1.0 2.0 0.00 0.01 0.00 998.6
20260506042032 0 225 0.0 2.0 0.00 0.01 0.00 998.6
20260506042022 0 225 0.0 2.0 0.00 0.01 0.00 998.5
20260506041942 0 225 0.0 2.0 0.00 0.01 0.00 998.6
20260506041902 0 225 0.0 2.0 0.00 0.01 0.00 998.6
20260506041822 0 225 0.0 2.0 0.00 0.01 0.00 998.6
20260506041742 0 225 0.0 2.0 0.00 0.01 0.00 998.6
20260506041702 0 225 0.0 2.0 0.00 0.01 0.00 998.6
20260506041642 0 180 0.0 2.0 0.00 0.01 0.00 998.6
20260506041622 0 225 0.0 2.0 0.00 0.01 0.00 998.6
20260506041612 0 225 0.0 2.0 0.00 0.01 0.00 998.7
20260506041542 0 225 0.0 2.0 0.00 0.01 0.00 998.6
20260506041502 0 225 0.0 2.0 0.00 0.01 0.00 998.6
20260506041422 0 225 0.0 2.0 0.00 0.01 0.00 998.6
20260506041412 0 203 0.0 2.0 0.00 0.01 0.00 998.6
20260506041332 0 225 0.0 2.0 0.00 0.01 0.00 998.6
20260506041323 0 203 0.0 3.0 0.00 0.01 0.00 998.6
20260506041253 0 225 0.0 3.0 0.00 0.01 0.00 998.6
20260506041223 0 180 0.0 3.0 0.00 0.01 0.00 998.6
20260506041213 0 225 0.0 3.0 0.00 0.01 0.00 998.6
20260506041133 0 225 0.0 3.0 0.00 0.01 0.00 998.6
20260506041103 0 225 1.0 3.0 0.00 0.01 0.00 998.6
20260506041033 0 180 1.0 3.0 0.00 0.01 0.00 998.6
20260506040953 0 180 1.0 3.0 0.00 0.01 0.00 998.6
20260506040943 0 225 1.0 3.0 0.00 0.01 0.00 998.6
20260506040913 0 180 1.0 3.0 0.00 0.01 0.00 998.6
20260506040903 0 225 1.0 3.0 0.00 0.01 0.00 998.6
20260506040833 0 180 1.0 4.0 0.00 0.01 0.00 998.6
20260506040823 0 135 1.0 4.0 0.00 0.01 0.00 998.6
20260506040813 0 0 1.0 4.0 0.00 0.01 0.00 998.6
20260506040803 0 315 1.0 4.0 0.00 0.01 0.00 998.6
20260506040733 0 180 1.0 4.0 0.00 0.01 0.00 998.6
20260506040723 0 225 1.0 4.0 0.00 0.01 0.00 998.6
20260506040653 0 180 1.0 4.0 0.00 0.01 0.00 998.6
20260506040643 0 225 1.0 4.0 0.00 0.01 0.00 998.6
20260506040633 0 225 2.0 4.0 0.00 0.01 0.00 998.6
20260506040623 0 158 1.0 4.0 0.00 0.01 0.00 998.7
20260506040614 0 180 2.0 4.0 0.00 0.01 0.00 998.6
20260506040534 0 180 2.0 4.0 0.00 0.01 0.00 998.6
20260506040524 0 180 2.0 5.0 0.00 0.01 0.00 998.6
20260506040444 0 158 2.0 5.0 0.00 0.01 0.00 998.6
20260506040434 0 180 2.0 5.0 0.00 0.01 0.00 998.6
20260506040414 0 135 2.0 5.0 0.00 0.01 0.00 998.6
20260506040354 0 225 2.0 5.0 0.00 0.01 0.00 998.6
20260506040344 0 270 2.0 5.0 0.00 0.01 0.00 998.6
20260506040334 0 180 2.0 5.0 0.00 0.01 0.00 998.6
20260506040304 0 203 2.0 5.0 0.00 0.01 0.00 998.7
20260506040254 0 225 2.0 5.0 0.00 0.01 0.00 998.6
20260506040244 0 180 2.0 5.0 0.00 0.01 0.00 998.7
20260506040204 0 225 2.0 5.0 0.00 0.01 0.00 998.7
20260506040154 0 270 2.0 5.0 0.00 0.01 0.00 998.7
20260506040144 0 225 2.0 5.0 0.00 0.01 0.00 998.6
20260506040134 0 180 2.0 5.0 0.00 0.01 0.00 998.7
20260506040124 0 225 3.0 5.0 0.00 0.01 0.00 998.7
20260506040114 0 180 3.0 5.0 0.00 0.01 0.00 998.7
20260506040044 0 225 3.0 5.0 0.00 0.01 0.00 998.7
20260506040034 0 225 2.0 5.0 0.00 0.01 0.00 998.7
20260506040014 0 203 2.0 5.0 0.00 0.01 0.00 998.7
20260506035954 0 180 2.0 5.0 0.00 0.01 0.00 998.7
20260506035934 0 225 2.0 5.0 0.00 0.01 0.00 998.7
20260506035924 0 203 2.0 5.0 0.00 0.01 0.00 998.7
20260506035854 0 203 2.0 5.0 0.00 0.01 0.00
20260506035844 0 225 2.0 5.0 0.00 0.01 0.00 998.7
20260506035825 0 180 2.0 5.0 0.00 0.01 0.00 998.7
20260506035815 0 135 2.0 5.0 0.00 0.01 0.00 998.7
20260506035805 0 225 2.0 5.0 0.00 0.01 0.00 998.7
20260506035745 0 180 2.0 5.0 0.00 0.01 0.00 998.7
20260506035735 56 158 3.0 5.0 0.00 0.01 0.00 78 998.7
20260506035725 0 180 3.0 5.0 0.00 0.01 0.00 998.7
20260506035705 0 203 3.0 5.0 0.00 0.01 0.00 998.7
20260506035635 0 225 3.0 5.0 0.00 0.01 0.00 998.7
20260506035625 0 180 3.0 5.0 0.00 0.01 0.00 998.7
20260506035605 0 203 3.0 5.0 0.00 0.01 0.00 998.7
20260506035555 0 225 2.0 5.0 0.00 0.01 0.00 998.7
20260506035545 0 248 2.0 5.0 0.00 0.01 0.00 998.7
20260506035515 0 203 2.0 5.0 0.00 0.01 0.00 998.7
20260506035505 0 180 2.0 5.0 0.00 0.01 0.00 998.7
20260506035445 0 180 2.0 5.0 0.00 0.01 0.00 998.6
20260506035435 0 225 2.0 5.0 0.00 0.01 0.00 998.7
20260506035425 0 225 2.0 5.0 0.00 0.01 0.00 998.6
20260506035405 0 180 3.0 5.0 0.00 0.01 0.00 998.7
20260506035355 0 225 2.0 5.0 0.00 0.01 0.00 998.7
20260506035345 55 203 2.0 5.0 0.00 0.01 0.00 79 998.7
20260506035325 0 180 2.0 5.0 0.00 0.01 0.00 998.7
20260506035315 0 225 2.0 5.0 0.00 0.01 0.00 998.7
20260506035306 0 203 2.0 5.0 0.00 0.01 0.00 998.7
20260506035225 0 225 2.0 5.0 0.00 0.01 0.00 998.7
20260506035215 0 180 2.0 5.0 0.00 0.01 0.00 998.7
20260506035155 0 225 2.0 5.0 0.00 0.01 0.00
20260506035145 0 225 2.0 5.0 0.00 0.01 0.00 998.7
20260506035135 0 225 2.0 5.0 0.00 0.01 0.00 998.8
20260506035125 0 180 1.0 5.0 0.00 0.01 0.00 998.7
20260506035055 0 225 1.0 5.0 0.00 0.01 0.00 998.8
20260506035046 0 225 1.0 5.0 0.00 0.01 0.00 998.7
20260506035026 0 225 2.0 5.0 0.00 0.01 0.00 998.7
20260506034956 0 225 2.0 5.0 0.00 0.01 0.00 998.8
20260506034946 0 225 2.0 5.0 0.00 0.01 0.00 998.7
20260506034916 0 225 2.0 5.0 0.00 0.01 0.00 998.8
20260506034836 0 225 1.0 5.0 0.00 0.01 0.00 998.8
20260506034826 0 225 1.0 5.0 0.00 0.01 0.00 998.7
20260506034806 0 225 1.0 6.0 0.00 0.01 0.00 998.8
20260506034756 0 225 2.0 6.0 0.00 0.01 0.00 998.8
20260506034726 0 225 2.0 6.0 0.00 0.01 0.00 998.7
20260506034716 0 203 1.0 6.0 0.00 0.01 0.00 998.8
20260506034706 0 225 1.0 6.0 0.00 0.01 0.00 998.7
20260506034636 0 203 2.0 6.0 0.00 0.01 0.00 998.8
20260506034626 0 225 2.0 6.0 0.00 0.01 0.00 998.8
20260506034556 0 225 2.0 6.0 0.00 0.01 0.00 998.7
20260506034546 0 225 2.0 6.0 0.00 0.01 0.00 998.8
20260506034526 0 225 1.0 6.0 0.00 0.01 0.00 998.8
20260506034456 0 225 2.0 6.0 0.00 0.01 0.00 998.8
20260506034436 0 225 3.0 6.0 0.00 0.01 0.00 998.8
20260506034416 0 225 4.0 6.0 0.00 0.01 0.00 998.8
20260506034346 0 180 4.0 6.0 0.00 0.01 0.00 998.8
20260506034326 0 225 3.0 6.0 0.00 0.01 0.00 998.8
20260506034316 0 180 3.0 6.0 0.00 0.01 0.00 998.8
20260506034307 0 180 4.0 6.0 0.00 0.01 0.00 998.8
20260506034257 0 270 4.0 6.0 0.00 0.01 0.00 998.8
20260506034237 0 180 4.0 6.0 0.00 0.01 0.00 1009.0
20260506034217 0 180 4.0 6.0 0.00 0.01 0.00 998.8
20260506034207 0 225 3.0 6.0 0.00 0.01 0.00 998.8
20260506034147 0 203 3.0 5.0 0.00 0.01 0.00 998.8
20260506034137 0 225 3.0 5.0 0.00 0.01 0.00 998.8
20260506034117 0 180 3.0 5.0 0.00 0.01 0.00 998.8
20260506034057 0 225 3.0 5.0 0.00 0.01 0.00 998.8
20260506034037 0 180 3.0 5.0 0.00 0.01 0.00 998.8
20260506034027 0 135 3.0 5.0 0.00 0.01 0.00 998.8
20260506034007 56 180 3.0 5.0 0.00 0.01 0.00 78 998.8
20260506033957 0 225 3.0 5.0 0.00 0.01 0.00 998.8
20260506033927 0 180 3.0 5.0 0.00 0.01 0.00 998.8
20260506033907 0 225 3.0 5.0 0.00 0.01 0.00 998.8
20260506033857 0 180 3.0 5.0 0.00 0.01 0.00 998.7
20260506033847 0 180 3.0 5.0 0.00 0.01 0.00 998.8
20260506033837 0 158 3.0 5.0 0.00 0.01 0.00 998.7
20260506033817 0 225 3.0 5.0 0.00 0.01 0.00 998.8
20260506033807 0 203 4.0 5.0 0.00 0.01 0.00 998.8
20260506033757 0 180 4.0 5.0 0.00 0.01 0.00 998.8
20260506033737 0 180 4.0 6.0 0.00 0.01 0.00 998.8
20260506033727 0 225 4.0 6.0 0.00 0.01 0.00 998.8
20260506033717 0 270 3.0 6.0 0.00 0.01 0.00 998.8
20260506033657 0 180 3.0 6.0 0.00 0.01 0.00 998.8
20260506033637 0 225 3.0 7.0 0.00 0.01 0.00 998.8
20260506033628 0 203 3.0 7.0 0.00 0.01 0.00 998.8
20260506033608 0 158 3.0 7.0 0.00 0.01 0.00 998.8
20260506033558 0 225 4.0 7.0 0.00 0.01 0.00 998.8
20260506033548 0 180 3.0 7.0 0.00 0.01 0.00 998.8
20260506033538 0 225 3.0 7.0 0.00 0.01 0.00 998.8
20260506033508 0 180 3.0 7.0 0.00 0.01 0.00 998.8
20260506033458 0 225 3.0 7.0 0.00 0.01 0.00 998.8
20260506033438 0 180 3.0 7.0 0.00 0.01 0.00 998.7
20260506033428 0 270 3.0 7.0 0.00 0.01 0.00 998.8
20260506033418 0 180 3.0 7.0 0.00 0.01 0.00 998.8
20260506033408 0 225 3.0 7.0 0.00 0.01 0.00 998.8
20260506033358 0 225 3.0 7.0 0.00 0.01 0.00 998.7
20260506033348 0 203 3.0 7.0 0.00 0.01 0.00 998.8
20260506033338 0 180 3.0 7.0 0.00 0.01 0.00 998.7
20260506033328 0 158 3.0 7.0 0.00 0.01 0.00 998.7
20260506033318 0 180 3.0 7.0 0.00 0.01 0.00 998.8
20260506033308 0 225 4.0 7.0 0.00 0.01 0.00 998.7
20260506033248 0 248 4.0 7.0 0.00 0.01 0.00 998.7
20260506033228 0 225 4.0 7.0 0.00 0.01 0.00 998.7
20260506033218 0 180 4.0 7.0 0.00 0.01 0.00 998.7
20260506033138 0 225 4.0 7.0 0.00 0.01 0.00 998.7
20260506033128 0 180 3.0 7.0 0.00 0.01 0.00 998.6
20260506033108 0 203 3.0 7.0 0.00 0.01 0.00 998.6
20260506033058 0 225 3.0 7.0 0.00 0.01 0.00
20260506033048 0 225 3.0 7.0 0.00 0.01 0.00 998.7
20260506033038 0 135 3.0 7.0 0.00 0.01 0.00 998.7
20260506033028 0 225 2.0 7.0 0.00 0.01 0.00 998.6
20260506033008 0 225 3.0 7.0 0.00 0.01 0.00 998.6
20260506032958 0 180 3.0 7.0 0.00 0.01 0.00 998.6
20260506032938 0 225 2.0 6.0 0.00 0.01 0.00 998.6
20260506032928 0 180 2.0 6.0 0.00 0.01 0.00 998.7
20260506032919 0 180 2.0 6.0 0.00 0.01 0.00 998.6
20260506032908 0 203 2.0 4.0 0.00 0.01 0.00 998.6
20260506032849 0 225 1.0 4.0 0.00 0.01 0.00 998.6
20260506032839 0 225 1.0 4.0 0.00 0.01 0.00 998.7
20260506032809 0 203 1.0 4.0 0.00 0.01 0.00 998.6
20260506032749 0 225 1.0 4.0 0.00 0.01 0.00 998.6
20260506032729 0 225 2.0 4.0 0.00 0.01 0.00 998.6
20260506032719 0 225 1.0 4.0 0.00 0.01 0.00 998.7
20260506032649 0 225 1.0 4.0 0.00 0.01 0.00 998.6
20260506032609 0 225 1.0 4.0 0.00 0.01 0.00 998.6
20260506032559 0 225 2.0 4.0 0.00 0.01 0.00 998.6
20260506032549 0 248 1.0 4.0 0.00 0.01 0.00 998.6
20260506032449 0 203 1.0 4.0 0.00 0.01 0.00 998.6
20260506032439 0 225 1.0 4.0 0.00 0.01 0.00 998.6
20260506032409 0 225 0.0 4.0 0.00 0.01 0.00 998.6
20260506032339 0 203 0.0 4.0 0.00 0.01 0.00 998.6
20260506032329 0 225 0.0 4.0 0.00 0.01 0.00 998.6
20260506032319 0 225 1.0 4.0 0.00 0.01 0.00 998.7
20260506032239 0 225 1.0 4.0 0.00 0.01 0.00 998.6
20260506032159 0 225 1.0 4.0 0.00 0.01 0.00 998.6
20260506032120 0 225 1.0 4.0 0.00 0.01 0.00 998.6
20260506032110 0 225 2.0 5.0 0.00 0.01 0.00 998.6
20260506032050 0 225 2.0 5.0 0.00 0.01 0.00 998.7
20260506032040 0 180 2.0 5.0 0.00 0.01 0.00 998.7
20260506032030 0 225 2.0 5.0 0.00 0.01 0.00 998.6
20260506032010 0 225 1.0 5.0 0.00 0.01 0.00 998.7
20260506032000 56 225 1.0 5.0 0.00 0.01 0.00 78 998.6
20260506031950 0 225 1.0 5.0 0.00 0.01 0.00 998.6
20260506031930 0 225 1.0 5.0 0.00 0.01 0.00 998.7
20260506031910 0 225 2.0 5.0 0.00 0.01 0.00 998.6
20260506031900 0 225 2.0 5.0 0.00 0.01 0.00 998.7
20260506031850 0 203 1.0 5.0 0.00 0.01 0.00 998.7
20260506031830 0 225 1.0 5.0 0.00 0.01 0.00 998.7
20260506031750 0 225 1.0 5.0 0.00 0.01 0.00 998.7
20260506031710 0 225 2.0 5.0 0.00 0.01 0.00 998.7
20260506031700 0 180 2.0 5.0 0.00 0.01 0.00 998.7
20260506031630 0 225 2.0 5.0 0.00 0.01 0.00 998.7
20260506031610 0 225 1.0 5.0 0.00 0.01 0.00 998.7
20260506031550 0 225 2.0 5.0 0.00 0.01 0.00 998.7
20260506031540 0 225 2.0 7.0 0.00 0.01 0.00 998.7
20260506031500 0 225 2.0 7.0 0.00 0.01 0.00 998.7
20260506031451 0 180 2.0 7.0 0.00 0.01 0.00 998.7
20260506031421 56 225 2.0 7.0 0.00 0.01 0.00 78 998.8
20260506031411 0 225 2.0 7.0 0.00 0.01 0.00 998.7
20260506031401 0 225 2.0 7.0 0.00 0.01 0.00 998.8
20260506031351 0 203 2.0 7.0 0.00 0.01 0.00 998.7
20260506031341 0 203 2.0 7.0 0.00 0.01 0.00 998.8
20260506031311 0 180 2.0 7.0 0.00 0.01 0.00 998.7
20260506031301 0 225 2.0 7.0 0.00 0.01 0.00 998.8
20260506031251 0 203 2.0 7.0 0.00 0.01 0.00 998.8
20260506031241 0 203 2.0 7.0 0.00 0.01 0.00 998.7
20260506031221 0 225 2.0 7.0 0.00 0.01 0.00 998.8
20260506031211 0 180 2.0 7.0 0.00 0.01 0.00 998.8
20260506031151 0 225 3.0 7.0 0.00 0.01 0.00 998.8
20260506031141 0 180 3.0 7.0 0.00 0.01 0.00 1000.4
20260506031121 0 180 3.0 7.0 0.00 0.01 0.00 998.8
20260506031111 0 225 3.0 7.0 0.00 0.01 0.00 998.8
20260506031101 0 203 4.0 7.0 0.00 0.01 0.00 998.8
20260506031051 0 225 4.0 7.0 0.00 0.01 0.00 998.8
20260506031021 0 225 4.0 6.0 0.00 0.01 0.00 998.8
20260506031011 0 203 4.0 6.0 0.00 0.01 0.00 998.8
20260506030951 0 180 4.0 6.0 0.00 0.01 0.00 998.8
20260506030941 0 225 4.0 6.0 0.00 0.01 0.00 998.8
20260506030921 0 225 3.0 5.0 0.00 0.01 0.00 998.8
20260506030911 0 270 3.0 5.0 0.00 0.01 0.00 998.8
20260506030851 0 225 2.0 5.0 0.00 0.01 0.00 998.8
20260506030811 0 225 2.0 5.0 0.00 0.01 0.00 998.8
20260506030802 0 225 1.0 5.0 0.00 0.01 0.00 998.8
20260506030722 0 225 2.0 5.0 0.00 0.01 0.00 998.8
20260506030642 0 225 2.0 5.0 0.00 0.01 0.00 998.8
20260506030602 0 225 2.0 5.0 0.00 0.01 0.00 998.8
20260506030542 0 225 2.0 7.0 0.00 0.01 0.00 998.8
20260506030502 0 225 2.0 7.0 0.00 0.01 0.00 998.8
20260506030452 0 225 2.0 7.0 0.00 0.01 0.00 998.7
20260506030422 0 180 2.0 7.0 0.00 0.01 0.00 998.7
20260506030412 0 225 2.0 7.0 0.00 0.01 0.00 998.7
20260506030402 0 225 2.0 7.0 0.00 0.01 0.00 998.8
20260506030322 0 225 2.0 7.0 0.00 0.01 0.00 998.7
20260506030312 0 180 2.0 7.0 0.00 0.01 0.00 998.7
20260506030242 0 225 2.0 7.0 0.00 0.01 0.00 998.6
20260506030232 0 225 2.0 7.0 0.00 0.01 0.00 998.7
20260506030152 0 225 2.0 7.0 0.00 0.01 0.00 998.7
20260506030123 0 225 3.0 7.0 0.00 0.01 0.00 998.7
20260506030112 0 180 3.0 7.0 0.00 0.01 0.00 998.6
20260506030053 0 203 3.0 5.0 0.00 0.01 0.00 998.7
20260506030043 0 225 3.0 5.0 0.00 0.01 0.00 998.7
20260506030033 0 0 2.0 5.0 0.00 0.01 0.00 998.7
20260506030023 0 225 2.0 5.0 0.00 0.01 0.00 998.7
20260506030013 0 225 2.0 5.0 0.00 0.01 0.00 998.6
20260506025953 0 203 3.0 5.0 0.00 0.01 0.00 998.7
20260506025933 0 225 3.0 5.0 0.00 0.01 0.00 998.6
20260506025923 0 225 3.0 5.0 0.00 0.01 0.00 998.7
20260506025853 0 180 3.0 5.0 0.00 0.01 0.00 998.6
20260506025843 0 225 3.0 5.0 0.00 0.01 0.00 998.7
20260506025833 0 225 3.0 5.0 0.00 0.01 0.00 998.6
20260506025823 0 225 2.0 5.0 0.00 0.01 0.00 998.7
20260506025813 0 180 2.0 5.0 0.00 0.01 0.00 998.7
20260506025803 0 225 2.0 5.0 0.00 0.01 0.00 998.6
20260506025743 0 203 2.0 5.0 0.00 0.01 0.00 998.6
20260506025733 0 225 2.0 5.0 0.00 0.01 0.00 998.7
20260506025723 0 225 1.0 5.0 0.00 0.01 0.00 998.7
20260506025703 0 225 2.0 5.0 0.00 0.01 0.00 998.6
20260506025643 0 225 1.0 5.0 0.00 0.01 0.00 998.7
20260506025633 0 225 1.0 5.0 0.00 0.01 0.00 998.6
20260506025623 0 225 2.0 5.0 0.00 0.01 0.00 998.6
20260506025613 0 203 2.0 5.0 0.00 0.01 0.00 998.6
20260506025603 0 180 2.0 5.0 0.00 0.01 0.00 998.6
20260506025523 0 225 2.0 5.0 0.00 0.01 0.00 998.6
20260506025503 0 203 2.0 5.0 0.00 0.01 0.00 998.6
20260506025443 0 225 2.0 5.0 0.00 0.01 0.00 998.6
20260506025423 0 225 1.0 5.0 0.00 0.01 0.00 998.6
20260506025344 0 225 2.0 5.0 0.00 0.01 0.00 998.6
20260506025334 0 225 2.0 5.0 0.00 0.01 0.00 998.7
20260506025324 0 180 2.0 5.0 0.00 0.01 0.00 998.7
20260506025314 0 203 1.0 5.0 0.00 0.01 0.00 998.7
20260506025305 0 225 1.0 5.0 0.00 0.01 0.00 998.6
20260506025244 0 225 2.0 5.0 0.00 0.01 0.00 998.6
20260506025224 0 225 2.0 6.0 0.00 0.01 0.00 998.6
20260506025214 0 225 2.0 6.0 0.00 0.01 0.00 998.7
20260506025144 0 225 2.0 6.0 0.00 0.01 0.00 998.6
20260506025134 0 225 2.0 6.0 0.00 0.01 0.00 998.7
20260506025104 0 225 2.0 6.0 0.00 0.01 0.00 998.6
20260506025054 0 225 2.0 6.0 0.00 0.01 0.00 998.7
20260506025044 55 225 2.0 6.0 0.00 0.01 0.00 77 998.6
20260506024954 0 225 2.0 6.0 0.00 0.01 0.00 998.6
20260506024944 0 225 2.0 6.0 0.00 0.01 0.00 998.7
20260506024934 0 225 2.0 7.0 0.00 0.01 0.00 837.1
20260506024914 0 180 2.0 7.0 0.00 0.01 0.00 998.6
20260506024904 0 225 2.0 7.0 0.00 0.01 0.00 998.7
20260506024834 0 225 2.0 7.0 0.00 0.01 0.00 998.6
20260506024824 0 225 2.0 7.0 0.00 0.01 0.00 998.7
20260506024814 0 203 2.0 7.0 0.00 0.01 0.00 998.7
20260506024804 0 180 2.0 7.0 0.00 0.01 0.00 998.7
20260506024754 0 203 3.0 7.0 0.00 0.01 0.00 998.7
20260506024744 0 180 3.0 8.0 0.00 0.01 0.00 998.7
20260506024734 0 225 3.0 8.0 0.00 0.01 0.00 998.8
20260506024714 0 225 4.0 8.0 0.00 0.01 0.00 998.7
20260506024704 0 225 4.0 8.0 0.00 0.01 0.00 998.8
20260506024645 0 203 4.0 8.0 0.00 0.01 0.00 998.8
20260506024635 0 225 4.0 8.0 0.00 0.01 0.00 998.7
20260506024625 56 180 4.0 8.0 0.00 0.01 0.00 76 998.7
20260506024605 0 180 4.0 8.0 0.00 0.01 0.00 998.7
20260506024555 0 180 4.0 8.0 0.00 0.01 0.00 998.8
20260506024545 0 158 4.0 8.0 0.00 0.01 0.00 998.7
20260506024515 0 225 4.0 8.0 0.00 0.01 0.00 998.8
20260506024505 0 225 4.0 8.0 0.00 0.01 0.00 998.7
20260506024455 0 158 4.0 8.0 0.00 0.01 0.00 998.8
20260506024415 0 225 4.0 8.0 0.00 0.01 0.00 998.8
20260506024405 0 180 4.0 8.0 0.00 0.01 0.00 998.8
20260506024345 0 180 5.0 8.0 0.00 0.01 0.00 998.8
20260506024335 0 135 5.0 8.0 0.00 0.01 0.00 998.8
20260506024325 0 225 5.0 8.0 0.00 0.01 0.00 1054.5
20260506024315 0 225 6.0 8.0 0.00 0.01 0.00 998.8
20260506024255 0 180 6.0 8.0 0.00 0.01 0.00 998.8
20260506024235 0 180 6.0 8.0 0.00 0.01 0.00 998.9
20260506024225 56 180 6.0 8.0 0.00 0.01 0.00 76 998.8
20260506024215 0 180 6.0 8.0 0.00 0.01 0.00 998.8
20260506024145 0 180 6.0 8.0 0.00 0.01 0.00 998.9
20260506024125 0 180 6.0 8.0 0.00 0.01 0.00 998.8
20260506024115 0 203 6.0 8.0 0.00 0.01 0.00 998.9
20260506024105 0 225 6.0 8.0 0.00 0.01 0.00 998.8
20260506024055 0 180 6.0 8.0 0.00 0.01 0.00 998.9
20260506024035 0 180 5.0 8.0 0.00 0.01 0.00 998.9
20260506024026 0 180 4.0 8.0 0.00 0.01 0.00 998.9
20260506024015 0 180 4.0 7.0 0.00 0.01 0.00 998.8
20260506023956 0 180 4.0 7.0 0.00 0.01 0.00 998.9
20260506023936 0 180 4.0 7.0 0.00 0.01 0.00 998.8
20260506023916 0 180 4.0 7.0 0.00 0.01 0.00 998.9
20260506023906 0 203 4.0 7.0 0.00 0.01 0.00 998.8
20260506023826 0 180 4.0 7.0 0.00 0.01 0.00 998.8
20260506023816 0 203 4.0 7.0 0.00 0.01 0.00 998.8
20260506023806 0 180 4.0 6.0 0.00 0.01 0.00 998.8
20260506023756 0 180 4.0 6.0 0.00 0.01 0.00 998.9
20260506023746 0 203 4.0 6.0 0.00 0.01 0.00 998.8
20260506023736 0 180 3.0 6.0 0.00 0.01 0.00 998.8
20260506023656 0 180 3.0 6.0 0.00 0.01 0.00 998.8
20260506023616 0 180 3.0 6.0 0.00 0.01 0.00 998.8
20260506023606 0 180 4.0 6.0 0.00 0.01 0.00 998.7
20260506023556 0 225 4.0 6.0 0.00 0.01 0.00 998.8
20260506023526 0 180 4.0 6.0 0.00 0.01 0.00 998.7
20260506023516 0 180 4.0 6.0 0.00 0.01 0.00 998.8
20260506023456 0 225 4.0 6.0 0.00 0.01 0.00 998.8
20260506023446 0 180 4.0 6.0 0.00 0.01 0.00 998.7
20260506023436 0 180 4.0 6.0 0.00 0.01 0.00 998.8
20260506023416 0 180 3.0 5.0 0.00 0.01 0.00 998.7
20260506023406 0 203 3.0 5.0 0.00 0.01 0.00 998.7
20260506023356 57 180 3.0 5.0 0.00 0.01 0.00 76 998.7
20260506023336 0 225 3.0 5.0 0.00 0.01 0.00 998.7
20260506023306 0 180 3.0 5.0 0.00 0.01 0.00 998.7
20260506023257 0 135 3.0 5.0 0.00 0.01 0.00 998.7
20260506023247 0 203 3.0 5.0 0.00 0.01 0.00 998.7
20260506023237 0 203 4.0 5.0 0.00 0.01 0.00 998.7
20260506023217 0 225 4.0 5.0 0.00 0.01 0.00 998.7
20260506023207 0 180 4.0 5.0 0.00 0.01 0.00 998.7
20260506023157 0 180 4.0 5.0 0.00 0.01 0.00 998.8
20260506023117 0 180 3.0 5.0 0.00 0.01 0.00 998.7
20260506023107 0 180 2.0 5.0 0.00 0.01 0.00 998.7
20260506023047 0 0 2.0 6.0 0.00 0.01 0.00 998.7
20260506023027 0 180 2.0 6.0 0.00 0.01 0.00 998.7
20260506022957 0 203 3.0 6.0 0.00 0.01 0.00 998.8
20260506022947 0 180 3.0 6.0 0.00 0.01 0.00 998.7
20260506022927 0 225 3.0 6.0 0.00 0.01 0.00 998.7
20260506022917 0 225 2.0 6.0 0.00 0.01 0.00 998.7
20260506022907 0 225 3.0 6.0 0.00 0.01 0.00 998.8
20260506022857 0 180 3.0 6.0 0.00 0.01 0.00 998.8
20260506022847 0 270 2.0 6.0 0.00 0.01 0.00 998.8
20260506022837 0 225 2.0 6.0 0.00 0.01 0.00 998.8
20260506022827 0 180 2.0 6.0 0.00 0.01 0.00 998.8
20260506022817 0 203 2.0 6.0 0.00 0.01 0.00 998.8
20260506022807 0 225 1.0 6.0 0.00 0.01 0.00 998.8
20260506022757 0 203 1.0 6.0 0.00 0.01 0.00 998.8
20260506022737 0 225 1.0 6.0 0.00 0.01 0.00 998.7
20260506022727 0 225 1.0 6.0 0.00 0.01 0.00 998.8
20260506022717 0 225 1.0 6.0 0.00 0.01 0.00 764.1
20260506022657 0 180 2.0 6.0 0.00 0.01 0.00 998.7
20260506022647 0 203 2.0 6.0 0.00 0.01 0.00 998.7
20260506022637 0 225 2.0 6.0 0.00 0.01 0.00 998.8
20260506022627 0 225 3.0 6.0 0.00 0.01 0.00 998.8
20260506022617 0 203 3.0 6.0 0.00 0.01 0.00 998.7
20260506022608 0 180 3.0 6.0 0.00 0.01 0.00 998.8
20260506022558 0 180 2.0 5.0 0.00 0.01 0.00 998.7
20260506022548 0 225 2.0 5.0 0.00 0.01 0.00 998.8
20260506022538 0 203 2.0 5.0 0.00 0.01 0.00 998.7
20260506022518 0 225 2.0 5.0 0.00 0.01 0.00 998.7
20260506022448 0 225 2.0 5.0 0.00 0.01 0.00 998.8
20260506022408 0 225 2.0 5.0 0.00 0.01 0.00 998.8
20260506022358 0 180 2.0 5.0 0.00 0.01 0.00 998.8
20260506022348 0 225 3.0 5.0 0.00 0.01 0.00 998.8
20260506022338 0 225 3.0 5.0 0.00 0.01 0.00 998.7
20260506022318 0 180 2.0 5.0 0.00 0.01 0.00 998.8
20260506022308 0 225 2.0 5.0 0.00 0.01 0.00 998.7
20260506022258 0 225 2.0 5.0 0.00 0.01 0.00 998.8
20260506022248 0 203 2.0 5.0 0.00 0.01 0.00 998.8
20260506022228 0 180 2.0 5.0 0.00 0.01 0.00 998.8
20260506022218 0 225 2.0 5.0 0.00 0.01 0.00 998.8
20260506022208 0 225 2.0 5.0 0.00 0.01 0.00 998.7
20260506022158 0 270 2.0 5.0 0.00 0.01 0.00 998.8
20260506022138 0 203 2.0 5.0 0.00 0.01 0.00 998.8
20260506022128 0 225 2.0 5.0 0.00 0.01 0.00 998.8
20260506022118 0 225 1.0 5.0 0.00 0.01 0.00 998.7
20260506022108 0 203 1.0 5.0 0.00 0.01 0.00 998.7
20260506022058 0 180 1.0 5.0 0.00 0.01 0.00 998.8
20260506022018 0 225 1.0 5.0 0.00 0.01 0.00 998.7
20260506022008 0 225 1.0 5.0 0.00 0.01 0.00 998.8
20260506021939 0 225 1.0 5.0 0.00 0.01 0.00
20260506021929 0 225 1.0 5.0 0.00 0.01 0.00 998.7
20260506021918 0 225 2.0 5.0 0.00 0.01 0.00 998.7
20260506021839 0 225 2.0 5.0 0.00 0.01 0.00 998.7
20260506021759 0 225 2.0 5.0 0.00 0.01 0.00 998.7
20260506021719 0 225 2.0 5.0 0.00 0.01 0.00 998.7
20260506021639 0 225 2.0 5.0 0.00 0.01 0.00 998.7
20260506021619 0 225 3.0 5.0 0.00 0.01 0.00 998.7
20260506021539 0 225 3.0 5.0 0.00 0.01 0.00 998.7
20260506021509 0 225 2.0 5.0 0.00 0.01 0.00 998.7
20260506021449 0 270 2.0 5.0 0.00 0.01 0.00 998.7
20260506021429 0 225 2.0 5.0 0.00 0.01 0.00 998.7
20260506021359 0 225 2.0 5.0 0.00 0.01 0.00 998.8
20260506021349 0 225 2.0 5.0 0.00 0.01 0.00 998.7
20260506021339 0 225 3.0 5.0 0.00 0.01 0.00 998.7
20260506021300 0 225 3.0 5.0 0.00 0.01 0.00 998.8
20260506021250 0 225 3.0 5.0 0.00 0.01 0.00 998.7
20260506021210 0 225 3.0 5.0 0.00 0.01 0.00 998.8
20260506021200 0 225 2.0 5.0 0.00 0.01 0.00 998.8
20260506021120 0 225 2.0 5.0 0.00 0.01 0.00 998.8
20260506021050 0 225 2.0 5.0 0.00 0.01 0.00 998.7
20260506021040 0 225 2.0 5.0 0.00 0.01 0.00 998.8
20260506021020 0 225 2.0 5.0 0.00 0.01 0.00
20260506021000 0 225 2.0 5.0 0.00 0.01 0.00 998.7
20260506020950 0 180 2.0 5.0 0.00 0.01 0.00 998.8
20260506020940 0 270 2.0 5.0 0.00 0.01 0.00 998.7
20260506020920 0 225 2.0 5.0 0.00 0.01 0.00 998.7
20260506020900 0 225 2.0 7.0 0.00 0.01 0.00 998.7
20260506020830 0 225 3.0 7.0 0.00 0.01 0.00 998.7
20260506020820 0 225 3.0 7.0 0.00 0.01 0.00 998.8
20260506020750 0 225 3.0 7.0 0.00 0.01 0.00 998.7
20260506020740 0 225 3.0 7.0 0.00 0.01 0.00
20260506020730 0 225 2.0 7.0 0.00 0.01 0.00 998.7
20260506020700 0 225 2.0 8.0 0.00 0.01 0.00 998.7
20260506020620 0 225 3.0 8.0 0.00 0.01 0.00 998.7
20260506020541 0 225 3.0 8.0 0.00 0.01 0.00 998.7
20260506020501 0 225 3.0 8.0 0.00 0.01 0.00 998.8
20260506020441 0 225 3.0 8.0 0.00 0.01 0.00 998.7
20260506020401 0 225 3.0 8.0 0.00 0.01 0.00 998.7
20260506020351 0 225 3.0 8.0 0.00 0.01 0.00 998.8
20260506020331 0 225 4.0 8.0 0.00 0.01 0.00 998.8
20260506020311 0 225 3.0 8.0 0.00 0.01 0.00 998.8
20260506020251 0 225 4.0 8.0 0.00 0.01 0.00 998.8
20260506020241 0 225 3.0 8.0 0.00 0.01 0.00 998.9
20260506020231 0 225 3.0 8.0 0.00 0.01 0.00 998.8
20260506020221 0 225 3.0 7.0 0.00 0.01 0.00 998.8
20260506020211 0 225 3.0 7.0 0.00 0.01 0.00 998.9
20260506020141 0 203 3.0 7.0 0.00 0.01 0.00 998.9
20260506020131 0 225 3.0 7.0 0.00 0.01 0.00 998.8
20260506020121 0 248 3.0 7.0 0.00 0.01 0.00 998.8
20260506020111 0 225 3.0 7.0 0.00 0.01 0.00 998.9
20260506020051 0 225 2.0 7.0 0.00 0.01 0.00 998.8
20260506020041 0 203 2.0 7.0 0.00 0.01 0.00 998.8
20260506020021 0 225 3.0 7.0 0.00 0.01 0.00 998.8
20260506020011 0 225 3.0 8.0 0.00 0.01 0.00 998.8
20260506015951 0 225 4.0 8.0 0.00 0.01 0.00 998.8
20260506015941 0 225 3.0 8.0 0.00 0.01 0.00 998.9
20260506015931 0 225 3.0 8.0 0.00 0.01 0.00 998.8
20260506015921 0 225 2.0 8.0 0.00 0.01 0.00 998.8
20260506015852 0 225 2.0 8.0 0.00 0.01 0.00 998.9
20260506015842 0 203 2.0 8.0 0.00 0.01 0.00 998.8
20260506015832 0 225 2.0 8.0 0.00 0.01 0.00 998.8
20260506015802 0 225 2.0 8.0 0.00 0.01 0.00 998.9
20260506015752 0 225 2.0 8.0 0.00 0.01 0.00 998.8
20260506015722 0 203 2.0 8.0 0.00 0.01 0.00 998.8
20260506015712 0 225 2.0 8.0 0.00 0.01 0.00 998.8
20260506015702 0 225 2.0 8.0 0.00 0.01 0.00 998.9
20260506015642 0 248 2.0 8.0 0.00 0.01 0.00 998.9
20260506015632 0 203 2.0 8.0 0.00 0.01 0.00 998.8
20260506015622 0 180 3.0 8.0 0.00 0.01 0.00 998.9
20260506015602 0 203 3.0 8.0 0.00 0.01 0.00 998.8
20260506015552 0 225 3.0 8.0 0.00 0.01 0.00 998.8
20260506015542 0 180 3.0 8.0 0.00 0.01 0.00 998.8
20260506015532 0 225 2.0 8.0 0.00 0.01 0.00 998.9
20260506015522 0 225 2.0 8.0 0.00 0.01 0.00 998.8
20260506015512 0 225 2.0 7.0 0.00 0.01 0.00 998.8
20260506015452 0 203 2.0 7.0 0.00 0.01 0.00 998.8
20260506015442 0 225 2.0 7.0 0.00 0.01 0.00 998.9
20260506015422 0 203 2.0 7.0 0.00 0.01 0.00 998.9
20260506015402 0 225 2.0 7.0 0.00 0.01 0.00 998.9
20260506015352 0 180 2.0 7.0 0.00 0.01 0.00 998.9
20260506015332 0 203 3.0 7.0 0.00 0.01 0.00 998.9
20260506015322 0 225 3.0 7.0 0.00 0.01 0.00 998.9
20260506015312 0 225 2.0 7.0 0.00 0.01 0.00 998.9
20260506015305 0 225 3.0 7.0 0.00 0.01 0.00 998.8
20260506015252 0 270 3.0 7.0 0.00 0.01 0.00 998.9
20260506015232 0 225 2.0 7.0 0.00 0.01 0.00 998.9
20260506015203 0 225 2.0 7.0 0.00 0.01 0.00 998.8
20260506015153 0 225 3.0 7.0 0.00 0.01 0.00 998.8
20260506015133 0 180 3.0 7.0 0.00 0.01 0.00 998.8
20260506015113 0 135 4.0 7.0 0.00 0.01 0.00 998.9
20260506015103 0 225 4.0 7.0 0.00 0.01 0.00 998.8
20260506015053 0 225 3.0 7.0 0.00 0.01 0.00 998.8
20260506015043 0 180 3.0 7.0 0.00 0.01 0.00 998.9
20260506015023 0 225 2.0 7.0 0.00 0.01 0.00 998.8
20260506015013 0 225 2.0 7.0 0.00 0.01 0.00 998.9
20260506015003 0 203 2.0 7.0 0.00 0.01 0.00 998.9
20260506014923 0 225 2.0 7.0 0.00 0.01 0.00 998.9
20260506014913 0 225 3.0 7.0 0.00 0.01 0.00 998.9
20260506014853 0 180 3.0 7.0 0.00 0.01 0.00 998.9
20260506014833 0 225 3.0 7.0 0.00 0.01 0.00 998.9
20260506014823 0 225 3.0 8.0 0.00 0.01 0.00 998.9
20260506014813 0 180 3.0 8.0 0.00 0.01 0.00 998.9
20260506014803 0 225 4.0 8.0 0.00 0.01 0.00 998.9
20260506014733 0 180 4.0 8.0 0.00 0.01 0.00 998.9
20260506014723 0 225 4.0 8.0 0.00 0.01 0.00 998.9
20260506014653 0 180 4.0 8.0 0.00 0.01 0.00 999.0
20260506014633 0 225 4.0 8.0 0.00 0.01 0.00 999.0
20260506014623 57 225 4.0 8.0 0.00 0.01 0.00 76 998.9
20260506014613 0 180 4.0 8.0 0.00 0.01 0.00 999.0
20260506014543 0 225 4.0 8.0 0.00 0.01 0.00 999.0
20260506014533 0 203 4.0 8.0 0.00 0.01 0.00 999.0
20260506014504 0 225 4.0 8.0 0.00 0.01 0.00 999.0
20260506014453 0 180 4.0 8.0 0.00 0.01 0.00 999.0
20260506014434 0 225 3.0 8.0 0.00 0.01 0.00 999.0
20260506014424 0 225 4.0 8.0 0.00 0.01 0.00 999.0
20260506014404 0 180 4.0 8.0 0.00 0.01 0.00 999.0
20260506014354 0 225 4.0 8.0 0.00 0.01 0.00 999.1
20260506014344 0 225 4.0 8.0 0.00 0.01 0.00 999.0
20260506014314 0 180 4.0 8.0 0.00 0.01 0.00 999.0
20260506014304 0 203 4.0 8.0 0.00 0.01 0.00 999.0
20260506014244 0 225 4.0 8.0 0.00 0.01 0.00 999.0
20260506014234 0 180 4.0 8.0 0.00 0.01 0.00 999.0
20260506014204 0 225 4.0 8.0 0.00 0.01 0.00 999.0
20260506014154 0 225 4.0 8.0 0.00 0.01 0.00 999.1
20260506014144 0 203 4.0 8.0 0.00 0.01 0.00 999.0
20260506014134 0 180 4.0 8.0 0.00 0.01 0.00 999.1
20260506014114 0 180 4.0 5.0 0.00 0.01 0.00 999.0
20260506014104 0 180 3.0 5.0 0.00 0.01 0.00 999.1
20260506014044 0 270 2.0 5.0 0.00 0.01 0.00 999.0
20260506014034 0 180 2.0 5.0 0.00 0.01 0.00 999.0
20260506014024 0 225 2.0 5.0 0.00 0.01 0.00 999.0
20260506014014 0 225 2.0 5.0 0.00 0.01 0.00 999.1
20260506014004 0 203 2.0 5.0 0.00 0.01 0.00 999.0
20260506013954 0 203 1.0 5.0 0.00 0.01 0.00 999.0
20260506013914 0 225 2.0 5.0 0.00 0.01 0.00 999.1
20260506013904 0 225 2.0 5.0 0.00 0.01 0.00 999.0
20260506013844 0 180 2.0 5.0 0.00 0.01 0.00 999.0
20260506013834 0 225 2.0 5.0 0.00 0.01 0.00 999.1
20260506013824 0 203 2.0 5.0 0.00 0.01 0.00 999.0
20260506013814 0 225 2.0 7.0 0.00 0.01 0.00 999.1
20260506013804 0 180 2.0 7.0 0.00 0.01 0.00 999.1
20260506013744 0 225 2.0 7.0 0.00 0.01 0.00 999.0
20260506013735 0 203 2.0 7.0 0.00 0.01 0.00 999.0
20260506013725 0 225 2.0 7.0 0.00 0.01 0.00 999.1
20260506013655 0 225 2.0 7.0 0.00 0.01 0.00 999.0
20260506013645 0 225 2.0 7.0 0.00 0.01 0.00 999.1
20260506013605 0 225 2.0 7.0 0.00 0.01 0.00 999.1
20260506013555 0 225 1.0 7.0 0.00 0.01 0.00 999.1
20260506013545 0 225 1.0 7.0 0.00 0.01 0.00 999.0
20260506013515 0 225 1.0 7.0 0.00 0.01 0.00 999.1
20260506013505 0 225 2.0 7.0 0.00 0.01 0.00 999.1
20260506013445 0 225 2.0 7.0 0.00 0.01 0.00 999.0
20260506013435 0 203 2.0 7.0 0.00 0.01 0.00 999.1
20260506013405 0 225 2.0 7.0 0.00 0.01 0.00 999.1
20260506013355 0 180 2.0 7.0 0.00 0.01 0.00 999.0
20260506013325 0 225 2.0 7.0 0.00 0.01 0.00 999.1
20260506013245 0 225 2.0 5.0 0.00 0.01 0.00 999.1
20260506013205 0 225 2.0 5.0 0.00 0.01 0.00 999.1
20260506013155 0 225 2.0 6.0 0.00 0.01 0.00 999.0
20260506013145 0 158 2.0 6.0 0.00 0.01 0.00 999.1
20260506013135 0 270 2.0 6.0 0.00 0.01 0.00 999.1
20260506013125 0 225 2.0 7.0 0.00 0.01 0.00 999.1
20260506013055 0 180 2.0 7.0 0.00 0.01 0.00 999.0
20260506013045 0 225 2.0 7.0 0.00 0.01 0.00 999.1
20260506013025 0 225 2.0 7.0 0.00 0.01 0.00 999.0
20260506013015 0 180 2.0 7.0 0.00 0.01 0.00 999.1
20260506013005 0 225 2.0 8.0 0.00 0.01 0.00 999.1
20260506012956 0 180 2.0 8.0 0.00 0.01 0.00 999.1
20260506012926 0 225 2.0 8.0 0.00 0.01 0.00 999.1
20260506012916 0 225 2.0 8.0 0.00 0.01 0.00 999.0
20260506012856 0 203 2.0 8.0 0.00 0.01 0.00 999.0
20260506012836 0 225 2.0 8.0 0.00 0.01 0.00 999.1
20260506012826 0 225 2.0 8.0 0.00 0.01 0.00 999.0
20260506012816 0 225 2.0 8.0 0.00 0.01 0.00 999.2
20260506012746 0 225 2.0 8.0 0.00 0.01 0.00 999.0
20260506012736 0 225 2.0 8.0 0.00 0.01 0.00 999.1
20260506012726 0 225 3.0 8.0 0.00 0.01 0.00 999.1
20260506012706 0 225 3.0 8.0 0.00 0.01 0.00 999.0
20260506012656 0 203 3.0 8.0 0.00 0.01 0.00 999.1
20260506012646 0 270 3.0 8.0 0.00 0.01 0.00 999.0
20260506012626 0 203 2.0 8.0 0.00 0.01 0.00 999.0
20260506012616 0 180 2.0 8.0 0.00 0.01 0.00 999.1
20260506012606 0 225 3.0 8.0 0.00 0.01 0.00 999.0
20260506012536 0 225 4.0 8.0 0.00 0.01 0.00 999.0
20260506012526 0 225 4.0 8.0 0.00 0.01 0.00 999.1
20260506012506 0 225 3.0 8.0 0.00 0.01 0.00 999.1
20260506012456 0 225 2.0 7.0 0.00 0.01 0.00 999.1
20260506012446 0 225 2.0 7.0 0.00 0.01 0.00 999.0
20260506012426 0 225 3.0 7.0 0.00 0.01 0.00 999.1
20260506012346 0 225 3.0 7.0 0.00 0.01 0.00 999.1
20260506012336 0 225 2.0 5.0 0.00 0.01 0.00 999.1
20260506012316 0 225 3.0 6.0 0.00 0.01 0.00 999.1
20260506012247 0 225 2.0 8.0 0.00 0.01 0.00 999.1
20260506012237 0 225 3.0 8.0 0.00 0.01 0.00 999.1
20260506012217 0 225 2.0 8.0 0.00 0.01 0.00 999.0
20260506012157 0 225 2.0 8.0 0.00 0.01 0.00 999.1
20260506012127 0 225 2.0 8.0 0.00 0.01 0.00 999.0
20260506012117 0 225 2.0 8.0 0.00 0.01 0.00 999.1
20260506012057 0 180 2.0 8.0 0.00 0.01 0.00 999.0
20260506012047 0 225 2.0 8.0 0.00 0.01 0.00 999.0
20260506012007 0 225 2.0 8.0 0.00 0.01 0.00 999.0
20260506011947 0 180 2.0 8.0 0.00 0.01 0.00 999.0
20260506011927 0 225 2.0 8.0 0.00 0.01 0.00 999.0
20260506011917 0 225 3.0 8.0 0.00 0.01 0.00 999.0
20260506011907 0 225 3.0 8.0 0.00 0.01 0.00
20260506011837 0 225 4.0 8.0 0.00 0.01 0.00 999.0
20260506011827 0 180 4.0 8.0 0.00 0.01 0.00 999.0
20260506011757 0 203 4.0 8.0 0.00 0.01 0.00 999.0
20260506011747 0 225 4.0 8.0 0.00 0.01 0.00 998.9
20260506011737 0 180 4.0 8.0 0.00 0.01 0.00 999.0
20260506011727 0 225 4.0 7.0 0.00 0.01 0.00 998.9
20260506011717 0 180 3.0 7.0 0.00 0.01 0.00 998.9
20260506011707 0 225 3.0 7.0 0.00 0.01 0.00 999.0
20260506011657 0 203 3.0 7.0 0.00 0.01 0.00 998.9
20260506011647 0 225 3.0 7.0 0.00 0.01 0.00 998.9
20260506011627 0 225 2.0 7.0 0.00 0.01 0.00 998.9
20260506011607 0 225 2.0 7.0 0.00 0.01 0.00 999.0
20260506011557 0 180 2.0 7.0 0.00 0.01 0.00 998.9
20260506011528 0 225 2.0 7.0 0.00 0.01 0.00 999.0
20260506011508 0 203 3.0 7.0 0.00 0.01 0.00 999.0
20260506011458 0 225 3.0 7.0 0.00 0.01 0.00 999.0
20260506011448 0 225 3.0 7.0 0.00 0.01 0.00 998.9
20260506011418 0 180 3.0 7.0 0.00 0.01 0.00 999.0
20260506011408 0 225 3.0 7.0 0.00 0.01 0.00 999.0
20260506011358 0 225 3.0 8.0 0.00 0.01 0.00 999.0
20260506011348 0 180 3.0 8.0 0.00 0.01 0.00 999.0
20260506011318 0 225 4.0 8.0 0.00 0.01 0.00 998.9
20260506011308 0 225 4.0 8.0 0.00 0.01 0.00 999.0
20260506011258 0 203 4.0 8.0 0.00 0.01 0.00 999.0
20260506011248 0 180 4.0 8.0 0.00 0.01 0.00 999.0
20260506011238 0 203 3.0 8.0 0.00 0.01 0.00 999.0
20260506011228 0 158 2.0 8.0 0.00 0.01 0.00 999.0
20260506011218 0 203 2.0 8.0 0.00 0.01 0.00 999.0
20260506011208 0 225 2.0 8.0 0.00 0.01 0.00 999.0
20260506011158 0 270 2.0 8.0 0.00 0.01 0.00 999.0
20260506011128 0 225 2.0 8.0 0.00 0.01 0.00 999.0
20260506011108 0 225 2.0 8.0 0.00 0.01 0.00 999.1
20260506011048 0 225 2.0 8.0 0.00 0.01 0.00 999.0
20260506011018 0 203 2.0 8.0 0.00 0.01 0.00 999.0
20260506010958 0 225 2.0 8.0 0.00 0.01 0.00 999.0
20260506010918 0 225 3.0 8.0 0.00 0.01 0.00 999.0
20260506010908 0 225 2.0 8.0 0.00 0.01 0.00 999.0
20260506010858 0 203 2.0 8.0 0.00 0.01 0.00 999.0
20260506010838 0 225 3.0 8.0 0.00 0.01 0.00 999.0
20260506010828 0 225 2.0 8.0 0.00 0.01 0.00 999.0
20260506010819 0 225 2.0 8.0 0.00 0.01 0.00 998.9
20260506010759 0 225 3.0 8.0 0.00 0.01 0.00 999.0
20260506010749 0 225 2.0 8.0 0.00 0.01 0.00 999.0
20260506010709 0 225 3.0 8.0 0.00 0.01 0.00 999.0
20260506010649 0 180 3.0 8.0 0.00 0.01 0.00 999.0
20260506010639 0 225 3.0 7.0 0.00 0.01 0.00 999.0
20260506010609 0 225 2.0 7.0 0.00 0.01 0.00 999.0
20260506010549 0 203 2.0 7.0 0.00 0.01 0.00 999.0
20260506010539 0 180 2.0 7.0 0.00 0.01 0.00 999.0
20260506010529 0 225 2.0 7.0 0.00 0.01 0.00 999.0
20260506010449 0 225 2.0 7.0 0.00 0.01 0.00 999.0
20260506010409 0 225 2.0 7.0 0.00 0.01 0.00 999.0
20260506010329 0 225 2.0 7.0 0.00 0.01 0.00 999.0
20260506010259 0 225 3.0 7.0 0.00 0.01 0.00 999.0
20260506010219 0 225 2.0 6.0 0.00 0.01 0.00 999.0
20260506010159 0 225 2.0 6.0 0.00 0.01 0.00 998.9
20260506010129 0 225 2.0 6.0 0.00 0.01 0.00 999.0
20260506010120 0 225 2.0 6.0 0.00 0.01 0.00 998.9
20260506010100 0 225 3.0 6.0 0.00 0.01 0.00 999.0
20260506010050 0 225 2.0 6.0 0.00 0.01 0.00 999.0
20260506010010 0 225 2.0 6.0 0.00 0.01 0.00 999.0
20260506010000 0 180 3.0 6.0 0.00 0.01 0.00 999.0
20260506005930 0 225 3.0 6.0 0.00 0.01 0.00 999.0
20260506005910 0 225 2.0 7.0 0.00 0.01 0.00 999.0
20260506005850 0 270 2.0 7.0 0.00 0.01 0.00 999.0
20260506005840 0 225 3.0 7.0 0.00 0.01 0.00 999.0
20260506005830 0 225 2.0 7.0 0.00 0.01 0.00 999.0
20260506005820 0 180 2.0 7.0 0.00 0.01 0.00 998.9
20260506005750 0 225 2.0 7.0 0.00 0.01 0.00 999.0
20260506005710 0 225 2.0 7.0 0.00 0.01 0.00 999.0
20260506005640 0 225 2.0 7.0 0.00 0.01 0.00 998.9
20260506005620 0 225 2.0 7.0 0.00 0.01 0.00 999.0
20260506005600 0 225 3.0 7.0 0.00 0.01 0.00 999.0
20260506005550 0 225 3.0 7.0 0.00 0.01 0.00 998.9
20260506005510 0 225 3.0 7.0 0.00 0.01 0.00 999.0
20260506005500 0 225 3.0 7.0 0.00 0.01 0.00 998.9
20260506005440 0 225 2.0 7.0 0.00 0.01 0.00 999.0
20260506005430 0 225 2.0 7.0 0.00 0.01 0.00 998.9
20260506005411 0 225 2.0 5.0 0.00 0.01 0.00 999.0
20260506005331 0 225 2.0 5.0 0.00 0.01 0.00 999.0
20260506005301 0 225 3.0 5.0 0.00 0.01 0.00 999.0
20260506005251 0 225 2.0 5.0 0.00 0.01 0.00
20260506005241 0 225 2.0 5.0 0.00 0.01 0.00 999.0
20260506005221 0 225 2.0 5.0 0.00 0.01 0.00 999.1
20260506005201 0 225 2.0 5.0 0.00 0.01 0.00 999.0
20260506005121 0 225 2.0 5.0 0.00 0.01 0.00 999.0
20260506005111 0 225 3.0 5.0 0.00 0.01 0.00 999.0
20260506005031 0 225 3.0 5.0 0.00 0.01 0.00 999.0
20260506005021 0 225 2.0 5.0 0.00 0.01 0.00 999.0
20260506005011 0 225 3.0 5.0 0.00 0.01 0.00 999.1
20260506004951 0 225 3.0 5.0 0.00 0.01 0.00 999.0
20260506004941 0 225 2.0 5.0 0.00 0.01 0.00 999.0
20260506004931 0 203 2.0 5.0 0.00 0.01 0.00 999.0
20260506004921 0 225 2.0 5.0 0.00 0.01 0.00 807.0
20260506004901 0 225 2.0 5.0 0.00 0.01 0.00 999.0
20260506004841 57 225 1.0 5.0 0.00 0.01 0.00 77 999.1
20260506004821 0 225 2.0 5.0 0.00 0.01 0.00 999.0
20260506004741 0 225 2.0 5.0 0.00 0.01 0.00 999.0
20260506004702 0 225 2.0 5.0 0.00 0.01 0.00 999.0
20260506004652 0 225 3.0 5.0 0.00 0.01 0.00 999.0
20260506004632 0 225 3.0 5.0 0.00 0.01 0.00 999.1
20260506004622 0 225 2.0 5.0 0.00 0.01 0.00 999.1
20260506004542 0 225 2.0 5.0 0.00 0.01 0.00 999.0
20260506004522 0 225 3.0 5.0 0.00 0.01 0.00 999.1
20260506004502 0 225 3.0 5.0 0.00 0.01 0.00 999.0
20260506004452 0 225 3.0 6.0 0.00 0.01 0.00 999.0
20260506004442 0 225 4.0 8.0 0.00 0.01 0.00 999.1
20260506004422 0 225 4.0 8.0 0.00 0.01 0.00 999.0
20260506004402 0 225 4.0 8.0 0.00 0.01 0.00 999.1
20260506004342 0 225 4.0 8.0 0.00 0.01 0.00 999.0
20260506004302 0 225 4.0 8.0 0.00 0.01 0.00 999.0
20260506004242 0 225 4.0 8.0 0.00 0.01 0.00 999.1
20260506004222 0 225 4.0 8.0 0.00 0.01 0.00 999.0
20260506004212 0 225 3.0 8.0 0.00 0.01 0.00 999.1
20260506004202 0 225 4.0 8.0 0.00 0.01 0.00 999.1
20260506004132 0 225 4.0 8.0 0.00 0.01 0.00 999.0
20260506004052 0 225 4.0 8.0 0.00 0.01 0.00 999.0
20260506004013 0 225 4.0 8.0 0.00 0.01 0.00 999.0
20260506003953 0 225 5.0 8.0 0.00 0.01 0.00 999.0
20260506003943 0 248 4.0 8.0 0.00 0.01 0.00 999.0
20260506003923 0 270 4.0 8.0 0.00 0.01 0.00 999.0
20260506003913 0 225 4.0 8.0 0.00 0.01 0.00 999.0
20260506003833 0 225 4.0 8.0 0.00 0.01 0.00 999.0
20260506003753 0 225 4.0 8.0 0.00 0.01 0.00 999.0
20260506003713 0 225 5.0 8.0 0.00 0.01 0.00 999.0
20260506003633 0 225 5.0 8.0 0.00 0.01 0.00 999.0
20260506003623 0 225 4.0 8.0 0.00 0.01 0.00 999.0
20260506003613 0 225 4.0 7.0 0.00 0.01 0.00 999.0
20260506003553 0 225 4.0 5.0 0.00 0.01 0.00 998.9
20260506003543 0 225 4.0 5.0 0.00 0.01 0.00 999.0
20260506003503 0 225 4.0 5.0 0.00 0.01 0.00 998.9
20260506003423 0 225 4.0 5.0 0.00 0.01 0.00 999.0
20260506003413 0 225 4.0 5.0 0.00 0.01 0.00 998.9
20260506003343 0 225 3.0 5.0 0.00 0.01 0.00 998.9
20260506003304 0 225 3.0 5.0 0.00 0.01 0.00 998.9
20260506003254 0 225 3.0 5.0 0.00 0.01 0.00 999.0
20260506003214 0 225 2.0 5.0 0.00 0.01 0.00 998.9
20260506003204 0 225 2.0 5.0 0.00 0.01 0.00 999.0
20260506003124 0 225 2.0 5.0 0.00 0.01 0.00 999.0
20260506003114 0 225 2.0 4.0 0.00 0.01 0.00 998.9
20260506003044 0 225 2.0 4.0 0.00 0.01 0.00 999.0
20260506003004 0 225 2.0 4.0 0.00 0.01 0.00 999.0
20260506002924 0 225 2.0 4.0 0.00 0.01 0.00 999.0
20260506002844 0 225 1.0 4.0 0.00 0.01 0.00 999.0
20260506002804 0 225 1.0 4.0 0.00 0.01 0.00 999.0
20260506002734 0 203 1.0 4.0 0.00 0.01 0.00 999.0
20260506002724 0 225 1.0 4.0 0.00 0.01 0.00 999.0
20260506002645 0 225 1.0 4.0 0.00 0.01 0.00 999.0
20260506002635 0 225 2.0 4.0 0.00 0.01 0.00 999.0
20260506002555 0 225 2.0 4.0 0.00 0.01 0.00 999.0
20260506002545 0 225 1.0 4.0 0.00 0.01 0.00 999.0
20260506002535 0 203 1.0 3.0 0.00 0.01 0.00 999.0
20260506002515 0 225 1.0 2.0 0.00 0.01 0.00 999.0
20260506002435 0 225 1.0 2.0 0.00 0.01 0.00 999.0
20260506002415 0 225 0.0 2.0 0.00 0.01 0.00 999.0
20260506002405 0 225 1.0 2.0 0.00 0.01 0.00 749.4
20260506002325 0 225 1.0 2.0 0.00 0.01 0.00 999.0
20260506002306 0 225 1.0 3.0 0.00 0.01 0.00 999.1
20260506002245 0 225 1.0 3.0 0.00 0.01 0.00 999.0
20260506002225 0 225 1.0 3.0 0.00 0.01 0.00 999.1
20260506002155 0 225 1.0 3.0 0.00 0.01 0.00 999.0
20260506002145 0 225 1.0 4.0 0.00 0.01 0.00 999.0
20260506002105 0 225 1.0 4.0 0.00 0.01 0.00 999.0
20260506002025 0 225 1.0 4.0 0.00 0.01 0.00 999.0
20260506001946 0 225 1.0 4.0 0.00 0.01 0.00 999.0
20260506001926 0 225 1.0 5.0 0.00 0.01 0.00 999.0
20260506001916 0 225 2.0 5.0 0.00 0.01 0.00 999.0
20260506001836 0 225 2.0 5.0 0.00 0.01 0.00 999.0
20260506001756 0 225 2.0 5.0 0.00 0.01 0.00 999.0
20260506001716 0 225 2.0 5.0 0.00 0.01 0.00 999.0
20260506001636 0 225 2.0 5.0 0.00 0.01 0.00 999.0
20260506001616 0 225 3.0 5.0 0.00 0.01 0.00 999.1
20260506001536 0 225 3.0 5.0 0.00 0.01 0.00 999.1
20260506001516 0 225 3.0 5.0 0.00 0.01 0.00 999.0
20260506001456 0 225 3.0 5.0 0.00 0.01 0.00 999.1
20260506001446 0 225 4.0 5.0 0.00 0.01 0.00 999.1
20260506001406 0 225 4.0 5.0 0.00 0.01 0.00 999.1
20260506001346 0 248 3.0 5.0 0.00 0.01 0.00 999.1
20260506001336 0 225 3.0 5.0 0.00 0.01 0.00 999.1
20260506001306 0 270 3.0 5.0 0.00 0.01 0.00 999.1
20260506001247 0 225 3.0 5.0 0.00 0.01 0.00 999.1
20260506001237 0 248 3.0 5.0 0.00 0.01 0.00 999.0
20260506001207 0 270 3.0 5.0 0.00 0.01 0.00 999.0
20260506001157 0 225 3.0 5.0 0.00 0.01 0.00 999.0
20260506001147 0 270 3.0 5.0 0.00 0.01 0.00 999.1
20260506001137 0 225 3.0 5.0 0.00 0.01 0.00 999.1
20260506001117 0 225 3.0 7.0 0.00 0.01 0.00 999.0
20260506001107 0 270 3.0 7.0 0.00 0.01 0.00 999.1
20260506001037 0 270 2.0 7.0 0.00 0.01 0.00 999.1
20260506001027 0 270 2.0 7.0 0.00 0.01 0.00 999.0
20260506001007 0 270 3.0 7.0 0.00 0.01 0.00 999.1
20260506000957 0 225 3.0 7.0 0.00 0.01 0.00 999.1
20260506000937 0 270 4.0 7.0 0.00 0.01 0.00 999.1
20260506000917 0 225 4.0 7.0 0.00 0.01 0.00 999.1
20260506000907 0 248 4.0 7.0 0.00 0.01 0.00 999.1
20260506000847 0 270 4.0 7.0 0.00 0.01 0.00 999.1
20260506000837 0 225 4.0 7.0 0.00 0.01 0.00 999.1
20260506000807 0 270 4.0 7.0 0.00 0.01 0.00 999.1
20260506000747 0 248 4.0 7.0 0.00 0.01 0.00 999.1
20260506000737 0 225 4.0 7.0 0.00 0.01 0.00 999.2
20260506000727 0 225 4.0 7.0 0.00 0.01 0.00 999.1
20260506000657 0 270 4.0 7.0 0.00 0.01 0.00 999.1
20260506000647 0 225 4.0 7.0 0.00 0.01 0.00 999.1
20260506000638 0 225 5.0 7.0 0.00 0.01 0.00 999.2
20260506000628 0 270 5.0 7.0 0.00 0.01 0.00 999.1
20260506000618 0 225 4.0 7.0 0.00 0.01 0.00 999.2
20260506000608 0 225 4.0 7.0 0.00 0.01 0.00 999.1
20260506000558 0 225 4.0 8.0 0.00 0.01 0.00 999.1
20260506000538 0 270 4.0 9.0 0.00 0.01 0.00 999.1
20260506000458 0 225 4.0 9.0 0.00 0.01 0.00 999.1
20260506000438 0 248 4.0 9.0 0.00 0.01 0.00 999.1
20260506000428 0 270 4.0 9.0 0.00 0.01 0.00 999.1
20260506000348 0 225 4.0 9.0 0.00 0.01 0.00 999.1
20260506000318 0 248 4.0 9.0 0.00 0.01 0.00 999.1
20260506000309 0 225 4.0 9.0 0.00 0.01 0.00 999.1
20260506000248 0 270 4.0 9.0 0.00 0.01 0.00 999.1
20260506000208 0 225 4.0 11.0 0.00 0.01 0.00 999.1
20260506000158 0 225 4.0 11.0 0.00 0.01 0.00 999.0
20260506000148 0 225 5.0 11.0 0.00 0.01 0.00 999.1
20260506000139 0 270 5.0 11.0 0.00 0.01 0.00 999.0
20260506000128 0 225 5.0 11.0 0.00 0.01 0.00 999.0
20260506000108 0 225 5.0 11.0 0.00 0.01 0.00 999.1
20260506000048 0 270 4.0 11.0 0.00 0.01 0.00 999.1
20260506000008 0 225 4.0 11.0 0.00 0.01 0.00 999.1
20260505235959 0 293 4.0 11.0 0.00 0.01 0.00 999.1
20260505235929 0 225 4.0 11.0 0.00 0.01 0.00 999.1
20260505235919 0 225 4.0 11.0 0.00 0.01 0.00 999.2
20260505235859 0 225 5.0 11.0 0.00 0.01 0.00 999.2
20260505235849 0 225 6.0 11.0 0.00 0.01 0.00 999.2
20260505235839 0 225 6.0 11.0 0.00 0.01 0.00 999.1
20260505235809 0 225 6.0 11.0 0.00 0.01 0.00 999.2
20260505235759 0 270 6.0 11.0 0.00 0.01 0.00 999.2
20260505235749 0 270 6.0 11.0 0.00 0.01 0.00 999.1
20260505235729 0 270 5.0 8.0 0.00 0.01 0.00 999.2
20260505235709 0 270 4.0 8.0 0.00 0.01 0.00 999.1
20260505235649 0 225 4.0 8.0 0.00 0.01 0.00 999.1
20260505235629 0 225 3.0 8.0 0.00 0.01 0.00 999.1
20260505235619 0 248 3.0 8.0 0.00 0.01 0.00 999.1
20260505235559 0 225 2.0 8.0 0.00 0.01 0.00 999.1
20260505235549 0 225 2.0 8.0 0.00 0.01 0.00 999.2
20260505235539 0 225 3.0 8.0 0.00 0.01 0.00 999.1
20260505235519 0 225 4.0 8.0 0.00 0.01 0.00 999.2
20260505235509 0 225 4.0 8.0 0.00 0.01 0.00 999.1
20260505235459 0 270 4.0 8.0 0.00 0.01 0.00 999.2
20260505235449 0 225 5.0 8.0 0.00 0.01 0.00 999.2
20260505235419 0 225 4.0 7.0 0.00 0.01 0.00 999.2
20260505235409 0 225 3.0 5.0 0.00 0.01 0.00 999.2
20260505235359 0 225 2.0 6.0 0.00 0.01 0.00 999.2
20260505235349 0 225 2.0 7.0 0.00 0.01 0.00 999.1
20260505235330 0 225 2.0 7.0 0.00 0.01 0.00 999.2
20260505235320 0 225 3.0 7.0 0.00 0.01 0.00 999.2
20260505235240 0 225 4.0 7.0 0.00 0.01 0.00 999.2
20260505235230 0 225 4.0 7.0 0.00 0.01 0.00 999.3
20260505235200 0 225 4.0 7.0 0.00 0.01 0.00 999.2
20260505235140 0 225 3.0 7.0 0.00 0.01 0.00 999.3
20260505235100 0 225 2.0 7.0 0.00 0.01 0.00 999.3
20260505235040 0 225 2.0 7.0 0.00 0.01 0.00 999.2
20260505235020 0 225 2.0 7.0 0.00 0.01 0.00 999.3
20260505235010 0 225 3.0 7.0 0.00 0.01 0.00 999.2
20260505234950 0 225 3.0 7.0 0.00 0.01 0.00 999.3
20260505234930 0 225 4.0 7.0 0.00 0.01 0.00 999.3
20260505234900 0 225 3.0 7.0 0.00 0.01 0.00 999.3
20260505234850 0 225 3.0 6.0 0.00 0.01 0.00 999.3
20260505234840 0 248 3.0 5.0 0.00 0.01 0.00 999.3
20260505234810 0 225 3.0 5.0 0.00 0.01 0.00 999.3
20260505234800 0 225 4.0 5.0 0.00 0.01 0.00 999.3
20260505234750 0 270 4.0 5.0 0.00 0.01 0.00 999.3
20260505234720 0 225 4.0 5.0 0.00 0.01 0.00 999.3
20260505234640 0 225 4.0 5.0 0.00 0.01 0.00 999.3
20260505234631 0 225 3.0 5.0 0.00 0.01 0.00 999.3
20260505234551 0 225 3.0 5.0 0.00 0.01 0.00 999.3
20260505234541 0 225 4.0 5.0 0.00 0.01 0.00 999.3
20260505234501 0 225 4.0 5.0 0.00 0.01 0.00 999.3
20260505234441 0 270 3.0 5.0 0.00 0.01 0.00 999.3
20260505234431 0 225 3.0 5.0 0.00 0.01 0.00 999.3
20260505234401 0 225 2.0 5.0 0.00 0.01 0.00 999.3
20260505234351 0 225 2.0 4.0 0.00 0.01 0.00 999.3
20260505234311 0 225 1.0 5.0 0.00 0.01 0.00 999.3
20260505234251 0 203 2.0 5.0 0.00 0.01 0.00 999.3
20260505234241 0 248 2.0 5.0 0.00 0.01 0.00 999.2
20260505234231 0 225 2.0 5.0 0.00 0.01 0.00 999.3
20260505234221 0 225 2.0 6.0 0.00 0.01 0.00 999.3
20260505234211 0 225 2.0 7.0 0.00 0.01 0.00 999.3
20260505234141 0 225 1.0 7.0 0.00 0.01 0.00 999.3
20260505234101 0 225 1.0 7.0 0.00 0.01 0.00 999.3
20260505234032 0 225 1.0 8.0 0.00 0.01 0.00 999.3
20260505233951 0 225 1.0 8.0 0.00 0.01 0.00 999.3
20260505233922 0 225 2.0 8.0 0.00 0.01 0.00 999.3
20260505233902 0 225 3.0 8.0 0.00 0.01 0.00 999.3
20260505233822 0 225 4.0 8.0 0.00 0.01 0.00 999.4
20260505233812 0 225 4.0 8.0 0.00 0.01 0.00 999.3
20260505233742 0 225 4.0 8.0 0.00 0.01 0.00 999.4
20260505233732 0 270 4.0 8.0 0.00 0.01 0.00 999.4
20260505233722 0 225 3.0 8.0 0.00 0.01 0.00 999.4
20260505233702 0 225 2.0 8.0 0.00 0.01 0.00 999.4
20260505233652 0 180 2.0 8.0 0.00 0.01 0.00 999.3
20260505233642 0 225 3.0 8.0 0.00 0.01 0.00 999.4
20260505233632 0 90 4.0 8.0 0.00 0.01 0.00
20260505233622 0 135 4.0 8.0 0.00 0.01 0.00 999.3
20260505233552 0 203 4.0 8.0 0.00 0.01 0.00 999.4
20260505233542 0 225 4.0 8.0 0.00 0.01 0.00 999.4
20260505233532 0 225 3.0 8.0 0.00 0.01 0.00 999.4
20260505233512 0 225 3.0 6.0 0.00 0.01 0.00 999.4
20260505233502 0 225 2.0 6.0 0.00 0.01 0.00 999.4
20260505233452 0 225 2.0 5.0 0.00 0.01 0.00 999.4
20260505233442 0 248 2.0 5.0 0.00 0.01 0.00 999.4
20260505233432 0 180 3.0 5.0 0.00 0.01 0.00 999.4
20260505233402 0 225 3.0 5.0 0.00 0.01 0.00 999.4
20260505233332 0 225 2.0 5.0 0.00 0.01 0.00 999.4
20260505233253 0 225 2.0 5.0 0.00 0.01 0.00 999.4
20260505233223 0 270 2.0 5.0 0.00 0.01 0.00 999.4
20260505233213 0 270 3.0 5.0 0.00 0.01 0.00 999.4
20260505233133 0 270 3.0 5.0 0.00 0.01 0.00 999.4
20260505233123 0 225 3.0 5.0 0.00 0.01 0.00 999.4
20260505233043 0 270 3.0 5.0 0.00 0.01 0.00 999.4
20260505233003 0 270 3.0 5.0 0.00 0.01 0.00 999.4
20260505232933 0 270 4.0 5.0 0.00 0.01 0.00 999.4
20260505232903 0 225 4.0 5.0 0.00 0.01 0.00 999.4
20260505232853 0 270 4.0 5.0 0.00 0.01 0.00 999.4
20260505232843 0 248 4.0 5.0 0.00 0.01 0.00 999.4
20260505232823 0 248 3.0 5.0 0.00 0.01 0.00 999.4
20260505232803 0 225 3.0 5.0 0.00 0.01 0.00 999.4
20260505232753 0 225 3.0 4.0 0.00 0.01 0.00 999.4
20260505232713 0 225 3.0 4.0 0.00 0.01 0.00 999.4
20260505232653 0 225 3.0 4.0 0.00 0.01 0.00 999.3
20260505232634 0 225 3.0 4.0 0.00 0.01 0.00 999.4
20260505232604 0 225 3.0 4.0 0.00 0.01 0.00 999.3
20260505232554 0 225 3.0 4.0 0.00 0.01 0.00 999.4
20260505232514 0 225 3.0 4.0 0.00 0.01 0.00 999.4
20260505232504 0 225 2.0 4.0 0.00 0.01 0.00 999.4
20260505232424 0 225 2.0 4.0 0.00 0.01 0.00 999.4
20260505232414 0 225 2.0 3.0 0.00 0.01 0.00 999.4
20260505232404 0 225 2.0 2.0 0.00 0.01 0.00 999.4
20260505232324 0 225 1.0 2.0 0.00 0.01 0.00 999.4
20260505232314 0 225 0.0 2.0 0.00 0.01 0.00 999.4
20260505232234 0 225 0.0 2.0 0.00 0.01 0.00 999.4
20260505232154 0 225 0.0 2.0 0.00 0.01 0.00 999.4
20260505232144 0 225 0.0 2.0 0.00 0.01 0.00 999.5
20260505232124 0 225 1.0 2.0 0.00 0.01 0.00 999.5
20260505232044 0 225 1.0 2.0 0.00 0.01 0.00 999.5
20260505232004 0 180 0.0 2.0 0.00 0.01 0.00 999.5
20260505231925 0 180 0.0 2.0 0.00 0.01 0.00 999.5
20260505231855 0 180 1.0 3.0 0.00 0.01 0.00 999.5
20260505231845 0 180 1.0 4.0 0.00 0.01 0.00 999.5
20260505231835 0 158 1.0 4.0 0.00 0.01 0.00 999.5
20260505231825 0 225 1.0 4.0 0.00 0.01 0.00 999.5
20260505231805 0 180 0.0 4.0 0.00 0.01 0.00 999.5
20260505231755 0 180 0.0 4.0 0.00 0.01 0.00 999.6
20260505231725 0 225 0.0 4.0 0.00 0.01 0.00 999.5
20260505231705 0 203 0.0 5.0 0.00 0.01 0.00 999.5
20260505231655 0 225 0.0 5.0 0.00 0.01 0.00 999.5
20260505231615 0 225 0.0 5.0 0.00 0.01 0.00 999.5
20260505231605 0 180 0.0 5.0 0.00 0.01 0.00 999.5
20260505231535 0 225 0.0 5.0 0.00 0.01 0.00 999.5
20260505231515 0 225 1.0 5.0 0.00 0.01 0.00 999.5
20260505231505 0 225 1.0 5.0 0.00 0.01 0.00 999.4
20260505231435 0 225 2.0 5.0 0.00 0.01 0.00 999.5
20260505231355 0 225 2.0 5.0 0.00 0.01 0.00 999.5
20260505231315 0 225 2.0 5.0 0.00 0.01 0.00 999.5
20260505231236 0 225 3.0 5.0 0.00 0.01 0.00 999.5
20260505231156 0 225 3.0 5.0 0.00 0.01 0.00 999.5
20260505231136 0 248 3.0 5.0 0.00 0.01 0.00 999.5
20260505231116 0 225 3.0 5.0 0.00 0.01 0.00 999.5
20260505231056 0 248 3.0 5.0 0.00 0.01 0.00 999.5
20260505231046 0 270 3.0 5.0 0.00 0.01 0.00 999.5
20260505231026 0 225 3.0 5.0 0.00 0.01 0.00 999.5
20260505231016 0 248 3.0 5.0 0.00 0.01 0.00 999.5
20260505231006 0 270 4.0 5.0 0.00 0.01 0.00 999.5
20260505230946 0 225 4.0 5.0 0.00 0.01 0.00 999.6
20260505230916 0 225 4.0 5.0 0.00 0.01 0.00 999.5
20260505230856 0 225 4.0 5.0 0.00 0.01 0.00 999.6
20260505230816 0 225 4.0 5.0 0.00 0.01 0.00 999.5
20260505230756 0 225 4.0 5.0 0.00 0.01 0.00 999.6
20260505230736 0 225 4.0 5.0 0.00 0.01 0.00 999.5
20260505230656 0 225 4.0 5.0 0.00 0.01 0.00 999.6
20260505230646 0 225 3.0 5.0 0.00 0.01 0.00 999.5
20260505230607 0 225 3.0 5.0 0.00 0.01 0.00 999.5
20260505230557 0 225 3.0 5.0 0.00 0.01 0.00 999.6
20260505230527 0 225 3.0 5.0 0.00 0.01 0.00 999.5
20260505230507 0 225 2.0 5.0 0.00 0.01 0.00 999.6
20260505230457 0 225 2.0 5.0 0.00 0.01 0.00 999.5
20260505230437 0 225 3.0 5.0 0.00 0.01 0.00 999.6
20260505230417 0 225 3.0 5.0 0.00 0.01 0.00 999.5
20260505230357 0 225 3.0 5.0 0.00 0.01 0.00 999.6
20260505230327 0 225 3.0 5.0 0.00 0.01 0.00 999.5
20260505230257 0 225 3.0 5.0 0.00 0.01 0.00 999.6
20260505230247 0 225 3.0 5.0 0.00 0.01 0.00 999.5
20260505230207 0 225 3.0 5.0 0.00 0.01 0.00 999.6
20260505230137 0 225 3.0 5.0 0.00 0.01 0.00 999.5
20260505230127 0 225 3.0 5.0 0.00 0.01 0.00 999.6
20260505230117 0 248 3.0 5.0 0.00 0.01 0.00 999.6
20260505230037 0 225 3.0 5.0 0.00 0.01 0.00 999.6
20260505230007 0 225 3.0 5.0 0.00 0.01 0.00 999.5
20260505225928 0 225 3.0 5.0 0.00 0.01 0.00 999.5
20260505225848 0 225 3.0 5.0 0.00 0.01 0.00 999.5
20260505225838 0 225 2.0 5.0 0.00 0.01 0.00 999.5
20260505225808 0 225 3.0 5.0 0.00 0.01 0.00 999.5
20260505225728 0 225 3.0 5.0 0.00 0.01 0.00 999.5
20260505225648 0 225 3.0 5.0 0.00 0.01 0.00 999.5
20260505225608 0 225 4.0 5.0 0.00 0.01 0.00 999.5
20260505225558 0 248 3.0 5.0 0.00 0.01 0.00 999.5
20260505225538 0 225 3.0 5.0 0.00 0.01 0.00 999.5
20260505225518 0 225 4.0 5.0 0.00 0.01 0.00 999.5
20260505225438 0 225 4.0 5.0 0.00 0.01 0.00 999.5
20260505225358 0 225 3.0 5.0 0.00 0.01 0.00 999.5
20260505225348 0 270 3.0 5.0 0.00 0.01 0.00 999.5
20260505225338 0 248 3.0 5.0 0.00 0.01 0.00 999.5
20260505225308 0 225 3.0 5.0 0.00 0.01 0.00 999.5
20260505225259 0 225 3.0 5.0 0.00 0.01 0.00 665.9
20260505225219 0 225 3.0 5.0 0.00 0.01 0.00 999.5
20260505225139 0 225 3.0 5.0 0.00 0.01 0.00 999.5
20260505225059 0 225 3.0 5.0 0.00 0.01 0.00 999.5
20260505225049 0 248 3.0 5.0 0.00 0.01 0.00 999.5
20260505225039 0 225 3.0 5.0 0.00 0.01 0.00 999.4
20260505224959 0 225 3.0 5.0 0.00 0.01 0.00 999.5
20260505224939 0 270 3.0 5.0 0.00 0.01 0.00 999.5
20260505224859 0 270 3.0 5.0 0.00 0.01 0.00 999.5
20260505224819 0 270 3.0 5.0 0.00 0.01 0.00 999.5
20260505224809 0 270 3.0 4.0 0.00 0.01 0.00 999.5
20260505224729 0 270 3.0 4.0 0.00 0.01 0.00 999.5
20260505224719 0 270 2.0 4.0 0.00 0.01 0.00 999.4
20260505224700 0 270 2.0 4.0 0.00 0.01 0.00 999.5
20260505224630 0 270 2.0 4.0 0.00 0.01 0.00 999.4
20260505224619 0 270 2.0 4.0 0.00 0.01 0.00 999.5
20260505224609 0 270 3.0 4.0 0.00 0.01 0.00 999.4
20260505224530 0 270 3.0 4.0 0.00 0.01 0.00 999.4
20260505224520 0 270 2.0 4.0 0.00 0.01 0.00 999.4
20260505224500 0 225 2.0 4.0 0.00 0.01 0.00 999.4
20260505224440 0 270 2.0 4.0 0.00 0.01 0.00 999.4
20260505224430 0 248 2.0 4.0 0.00 0.01 0.00 999.4
20260505224410 0 225 2.0 4.0 0.00 0.01 0.00 999.4
20260505224400 0 225 2.0 4.0 0.00 0.01 0.00 999.5
20260505224350 0 270 2.0 4.0 0.00 0.01 0.00 999.4
20260505224310 0 270 2.0 4.0 0.00 0.01 0.00 999.4
20260505224250 0 225 2.0 4.0 0.00 0.01 0.00 999.4
20260505224240 0 248 2.0 4.0 0.00 0.01 0.00 999.4
20260505224230 0 270 2.0 3.0 0.00 0.01 0.00 999.4
20260505224150 0 225 2.0 3.0 0.00 0.01 0.00 999.4
20260505224130 0 225 1.0 3.0 0.00 0.01 0.00 999.4
20260505224120 0 248 1.0 3.0 0.00 0.01 0.00 999.3
20260505224110 0 225 0.0 3.0 0.00 0.01 0.00 999.4
20260505224040 0 225 0.0 3.0 0.00 0.01 0.00 999.3
20260505224020 0 225 0.0 3.0 0.00 0.01 0.00 999.4
20260505224001 0 203 0.0 3.0 0.00 0.01 0.00 999.4
20260505223941 0 225 0.0 3.0 0.00 0.01 0.00 999.3
20260505223911 0 225 1.0 3.0 0.00 0.01 0.00 999.3
20260505223901 0 225 1.0 3.0 0.00 0.01 0.00 999.4
20260505223851 0 225 0.0 3.0 0.00 0.01 0.00 999.4
20260505223841 0 180 0.0 2.0 0.00 0.01 0.00 999.3
20260505223811 0 225 0.0 2.0 0.00 0.01 0.00 999.3
20260505223801 0 225 0.0 2.0 0.00 0.01 0.00 999.4
20260505223751 0 180 0.0 2.0 0.00 0.01 0.00 999.4
20260505223731 0 203 0.0 2.0 0.00 0.01 0.00 999.4
20260505223721 0 225 0.0 2.0 0.00 0.01 0.00 999.4
20260505223641 0 225 0.0 2.0 0.00 0.01 0.00 999.4
20260505223621 0 225 1.0 2.0 0.00 0.01 0.00 999.5
20260505223601 0 225 1.0 2.0 0.00 0.01 0.00 999.4
20260505223541 0 225 1.0 2.0 0.00 0.01 0.00 999.5
20260505223521 0 225 0.0 2.0 0.00 0.01 0.00 999.4
20260505223441 0 225 0.0 2.0 0.00 0.01 0.00 999.4
20260505223411 0 225 0.0 2.0 0.00 0.01 0.00 999.5
20260505223401 0 225 0.0 2.0 0.00 0.01 0.00 999.4
20260505223322 0 225 0.0 2.0 0.00 0.01 0.00 999.4
20260505223312 0 225 0.0 2.0 0.00 0.01 0.00 999.5
20260505223232 0 225 0.0 2.0 0.00 0.01 0.00 999.5
20260505223222 0 225 0.0 3.0 0.00 0.01 0.00 999.5
20260505223212 0 203 0.0 3.0 0.00 0.01 0.00 999.4
20260505223152 0 225 1.0 3.0 0.00 0.01 0.00 999.4
20260505223142 0 225 2.0 3.0 0.00 0.01 0.00 999.5
20260505223132 0 180 2.0 3.0 0.00 0.01 0.00 999.4
20260505223052 0 225 1.0 3.0 0.00 0.01 0.00 999.4
20260505223042 0 180 1.0 3.0 0.00 0.01 0.00 999.4
20260505223002 0 180 1.0 3.0 0.00 0.01 0.00 999.4
20260505222952 0 225 1.0 3.0 0.00 0.01 0.00 999.4
20260505222922 0 180 1.0 3.0 0.00 0.01 0.00 999.4
20260505222852 0 203 1.0 3.0 0.00 0.01 0.00 999.4
20260505222842 0 180 1.0 3.0 0.00 0.01 0.00 999.4
20260505222802 0 180 2.0 3.0 0.00 0.01 0.00 999.4
20260505222752 0 203 2.0 3.0 0.00 0.01 0.00 999.4
20260505222713 0 180 2.0 3.0 0.00 0.01 0.00 999.3
20260505222703 0 180 2.0 3.0 0.00 0.01 0.00 999.4
20260505222623 0 180 2.0 3.0 0.00 0.01 0.00 999.3
20260505222603 0 180 2.0 3.0 0.00 0.01 0.00 999.4
20260505222533 0 180 2.0 3.0 0.00 0.01 0.00 999.3
20260505222523 0 180 2.0 3.0 0.00 0.01 0.00 999.4
20260505222503 0 180 2.0 4.0 0.00 0.01 0.00 999.4
20260505222453 0 180 2.0 4.0 0.00 0.01 0.00 999.3
20260505222443 0 180 1.0 4.0 0.00 0.01 0.00 999.3
20260505222413 0 180 2.0 4.0 0.00 0.01 0.00 999.4
20260505222343 0 180 2.0 4.0 0.00 0.01 0.00 999.3
20260505222333 0 180 2.0 4.0 0.00 0.01 0.00 999.4
20260505222305 0 180 2.0 4.0 0.00 0.01 0.00 999.3
20260505222243 0 180 2.0 4.0 0.00 0.01 0.00 999.4
20260505222223 0 180 2.0 4.0 0.00 0.01 0.00 999.3
20260505222143 0 180 2.0 4.0 0.00 0.01 0.00 999.3
20260505222104 0 180 2.0 4.0 0.00 0.01 0.00 999.3
20260505222034 0 180 2.0 4.0 0.00 0.01 0.00 999.4
20260505222024 0 180 2.0 4.0 0.00 0.01 0.00 999.3
20260505221944 0 180 2.0 4.0 0.00 0.01 0.00 999.3
20260505221914 0 180 2.0 4.0 0.00 0.01 0.00 999.4
20260505221854 0 180 2.0 4.0 0.00 0.01 0.00 999.3
20260505221844 0 180 2.0 4.0 0.00 0.01 0.00 684.6
20260505221814 0 180 2.0 4.0 0.00 0.01 0.00 999.3
20260505221804 0 180 2.0 4.0 0.00 0.01 0.00 999.4
20260505221734 0 180 2.0 4.0 0.00 0.01 0.00 999.3
20260505221714 0 180 2.0 4.0 0.00 0.01 0.00 999.4
20260505221654 0 180 2.0 4.0 0.00 0.01 0.00 999.3
20260505221634 0 180 2.0 4.0 0.00 0.01 0.00 999.4
20260505221624 0 180 2.0 3.0 0.00 0.01 0.00 999.3
20260505221614 61 180 2.0 3.0 0.00 0.01 0.00 73 999.3
20260505221544 0 180 2.0 4.0 0.00 0.01 0.00 999.3
20260505221534 0 180 2.0 4.0 0.00 0.01 0.00 999.4
20260505221454 0 180 2.0 4.0 0.00 0.01 0.00 999.3
20260505221435 0 180 2.0 4.0 0.00 0.01 0.00 999.4
20260505221415 0 180 2.0 4.0 0.00 0.01 0.00 999.3
20260505221355 0 180 2.0 4.0 0.00 0.01 0.00 999.4
20260505221325 0 180 2.0 4.0 0.00 0.01 0.00 999.3
20260505221315 0 180 2.0 4.0 0.00 0.01 0.00 999.4
20260505221235 0 180 2.0 4.0 0.00 0.01 0.00 999.4
20260505221215 0 180 2.0 4.0 0.00 0.01 0.00 999.3
20260505221155 0 180 2.0 4.0 0.00 0.01 0.00 999.4
20260505221115 0 180 2.0 4.0 0.00 0.01 0.00 999.4
20260505221035 0 180 2.0 3.0 0.00 0.01 0.00 999.4
20260505221015 0 180 2.0 2.0 0.00 0.01 0.00 999.4
20260505221005 0 180 2.0 2.0 0.00 0.01 0.00 999.3
20260505220925 0 180 1.0 2.0 0.00 0.01 0.00 999.3
20260505220915 0 158 1.0 2.0 0.00 0.01 0.00
20260505220855 0 158 1.0 2.0 0.00 0.01 0.00 999.3
20260505220835 0 180 1.0 2.0 0.00 0.01 0.00 999.3
20260505220756 0 180 1.0 2.0 0.00 0.01 0.00 999.3
20260505220716 0 180 1.0 2.0 0.00 0.01 0.00 999.3
20260505220706 0 180 1.0 2.0 0.00 0.01 0.00 999.4
20260505220656 0 180 2.0 2.0 0.00 0.01 0.00 999.4
20260505220616 0 180 2.0 2.0 0.00 0.01 0.00 999.4
20260505220606 0 180 1.0 2.0 0.00 0.01 0.00 999.4
20260505220526 0 180 1.0 2.0 0.00 0.01 0.00 999.4
20260505220516 0 180 1.0 2.0 0.00 0.01 0.00 999.5
20260505220446 0 225 1.0 2.0 0.00 0.01 0.00 999.5
20260505220436 0 180 1.0 2.0 0.00 0.01 0.00 999.5
20260505220426 0 270 1.0 2.0 0.00 0.01 0.00 999.4
20260505220416 0 225 0.0 2.0 0.00 0.01 0.00 999.5
20260505220406 0 180 0.0 2.0 0.00 0.01 0.00 999.5
20260505220356 0 203 0.0 2.0 0.00 0.01 0.00 999.5
20260505220346 0 225 0.0 2.0 0.00 0.01 0.00 999.4
20260505220316 0 225 0.0 2.0 0.00 0.01 0.00 999.5
20260505220306 0 225 0.0 2.0 0.00 0.01 0.00 999.4
20260505220256 0 180 0.0 2.0 0.00 0.01 0.00 999.4
20260505220246 0 180 0.0 2.0 0.00 0.01 0.00 999.5
20260505220227 0 225 0.0 2.0 0.00 0.01 0.00 999.4
20260505220217 0 203 0.0 2.0 0.00 0.01 0.00 999.4
20260505220207 0 180 0.0 2.0 0.00 0.01 0.00 999.4
20260505220157 0 203 0.0 2.0 0.00 0.01 0.00 999.5
20260505220137 0 225 0.0 2.0 0.00 0.01 0.00 999.4
20260505220127 0 225 1.0 2.0 0.00 0.01 0.00 999.5
20260505220117 0 180 1.0 2.0 0.00 0.01 0.00 999.4
20260505220057 0 225 1.0 2.0 0.00 0.01 0.00 999.4
20260505220047 0 225 0.0 2.0 0.00 0.01 0.00 999.4
20260505220037 0 225 0.0 2.0 0.00 0.01 0.00 999.5
20260505220017 0 225 1.0 2.0 0.00 0.01 0.00 999.4
20260505215957 0 203 1.0 2.0 0.00 0.01 0.00 999.4
20260505215947 0 180 1.0 2.0 0.00 0.01 0.00 999.4
20260505215937 0 225 1.0 2.0 0.00 0.01 0.00 999.4
20260505215907 0 180 1.0 2.0 0.00 0.01 0.00 999.4
20260505215847 0 203 1.0 2.0 0.00 0.01 0.00 999.4
20260505215827 0 225 1.0 2.0 0.00 0.01 0.00 999.4
20260505215807 0 180 1.0 2.0 0.00 0.01 0.00 999.4
20260505215727 0 180 1.0 2.0 0.00 0.01 0.00 999.4
20260505215717 0 180 2.0 3.0 0.00 0.01 0.00 999.4
20260505215657 0 180 1.0 3.0 0.00 0.01 0.00 999.5
20260505215647 0 180 1.0 3.0 0.00 0.01 0.00 999.4
20260505215608 0 180 1.0 3.0 0.00 0.01 0.00 999.4
20260505215558 0 225 0.0 3.0 0.00 0.01 0.00 999.4
20260505215548 0 180 0.0 3.0 0.00 0.01 0.00 999.4
20260505215508 0 180 0.0 3.0 0.00 0.01 0.00 999.4
20260505215458 0 180 0.0 4.0 0.00 0.01 0.00 999.3
20260505215448 0 225 0.0 4.0 0.00 0.01 0.00 999.4
20260505215418 0 180 0.0 4.0 0.00 0.01 0.00 999.4
20260505215338 0 225 0.0 4.0 0.00 0.01 0.00 999.4
20260505215328 0 203 0.0 4.0 0.00 0.01 0.00 999.4
20260505215318 0 180 1.0 4.0 0.00 0.01 0.00 999.4
20260505215258 0 225 1.0 4.0 0.00 0.01 0.00 999.4
20260505215248 0 225 2.0 4.0 0.00 0.01 0.00 999.4
20260505215208 0 225 2.0 4.0 0.00 0.01 0.00 999.4
20260505215138 0 0 2.0 4.0 0.00 0.01 0.00 999.4
20260505215128 0 225 2.0 4.0 0.00 0.01 0.00 999.4
20260505215048 0 225 2.0 4.0 0.00 0.01 0.00 999.4
20260505215008 0 225 2.0 5.0 0.00 0.01 0.00 999.4
20260505214949 0 225 2.0 5.0 0.00 0.01 0.00 999.5
20260505214909 0 225 2.0 5.0 0.00 0.01 0.00 999.4
20260505214859 0 225 2.0 5.0 0.00 0.01 0.00 999.5
20260505214819 0 225 2.0 5.0 0.00 0.01 0.00 999.5
20260505214809 0 225 2.0 5.0 0.00 0.01 0.00 999.4
20260505214739 0 225 2.0 5.0 0.00 0.01 0.00 999.5
20260505214709 0 225 2.0 5.0 0.00 0.01 0.00 999.4
20260505214659 0 225 2.0 5.0 0.00 0.01 0.00 999.5
20260505214619 0 225 2.0 5.0 0.00 0.01 0.00 999.5
20260505214539 0 225 2.0 5.0 0.00 0.01 0.00 999.5
20260505214459 0 225 2.0 5.0 0.00 0.01 0.00 999.5
20260505214449 0 225 3.0 5.0 0.00 0.01 0.00 999.5
20260505214409 0 225 3.0 5.0 0.00 0.01 0.00 999.5
20260505214349 0 225 2.0 5.0 0.00 0.01 0.00 999.5
20260505214309 0 225 2.0 4.0 0.00 0.01 0.00 999.5
20260505214230 0 225 2.0 4.0 0.00 0.01 0.00 999.5
20260505214150 0 225 2.0 4.0 0.00 0.01 0.00 999.5
20260505214110 0 225 2.0 4.0 0.00 0.01 0.00 999.5
20260505214030 0 225 2.0 4.0 0.00 0.01 0.00 999.5
20260505213950 0 225 2.0 4.0 0.00 0.01 0.00 999.5
20260505213910 0 225 2.0 4.0 0.00 0.01 0.00 999.5
20260505213900 0 225 2.0 4.0 0.00 0.01 0.00 999.6
20260505213820 0 225 2.0 4.0 0.00 0.01 0.00 999.5
20260505213800 0 225 2.0 4.0 0.00 0.01 0.00 999.6
20260505213740 0 225 2.0 4.0 0.00 0.01 0.00 999.5
20260505213700 0 225 2.0 4.0 0.00 0.01 0.00 999.5
20260505213620 0 225 2.0 4.0 0.00 0.01 0.00 999.5
20260505213600 0 225 2.0 4.0 0.00 0.01 0.00 999.6
20260505213541 0 225 1.0 4.0 0.00 0.01 0.00 999.5
20260505213531 0 225 0.0 3.0 0.00 0.01 0.00 843.3
20260505213501 0 225 0.0 3.0 0.00 0.01 0.00 999.5
20260505213451 0 225 1.0 3.0 0.00 0.01 0.00 999.5
20260505213411 0 225 1.0 3.0 0.00 0.01 0.00 999.5
20260505213341 0 225 2.0 3.0 0.00 0.01 0.00 999.5
20260505213301 0 225 2.0 3.0 0.00 0.01 0.00 999.5
20260505213241 0 225 2.0 3.0 0.00 0.01 0.00 999.6
20260505213221 0 248 2.0 4.0 0.00 0.01 0.00 807.0
20260505213211 0 225 2.0 4.0 0.00 0.01 0.00 999.5
20260505213131 0 225 1.0 4.0 0.00 0.01 0.00 999.5
20260505213111 0 225 0.0 4.0 0.00 0.01 0.00 999.5
20260505213051 0 225 0.0 4.0 0.00 0.01 0.00 999.6
20260505213041 0 225 1.0 4.0 0.00 0.01 0.00 999.5
20260505213021 0 225 1.0 4.0 0.00 0.01 0.00 999.6
20260505213001 0 225 1.0 4.0 0.00 0.01 0.00 999.5
20260505212932 0 203 0.0 4.0 0.00 0.01 0.00 999.5
20260505212921 0 225 0.0 4.0 0.00 0.01 0.00 999.5
20260505212902 0 180 0.0 4.0 0.00 0.01 0.00 999.5
20260505212842 0 225 1.0 4.0 0.00 0.01 0.00 999.5
20260505212802 0 225 2.0 5.0 0.00 0.01 0.00 999.5
20260505212722 0 225 3.0 5.0 0.00 0.01 0.00 999.5
20260505212702 0 225 3.0 5.0 0.00 0.01 0.00 999.6
20260505212642 0 225 3.0 5.0 0.00 0.01 0.00 999.5
20260505212602 0 225 3.0 5.0 0.00 0.01 0.00 999.5
20260505212522 0 225 3.0 5.0 0.00 0.01 0.00 999.5
20260505212512 0 270 3.0 5.0 0.00 0.01 0.00 999.5
20260505212432 0 225 3.0 5.0 0.00 0.01 0.00 999.5
20260505212422 0 270 3.0 5.0 0.00 0.01 0.00 999.5
20260505212352 0 225 3.0 5.0 0.00 0.01 0.00 999.5
20260505212342 0 270 3.0 5.0 0.00 0.01 0.00 999.6
20260505212305 0 270 3.0 5.0 0.00 0.01 0.00 999.5
20260505212253 0 270 3.0 5.0 0.00 0.01 0.00 999.4
20260505212233 0 225 3.0 5.0 0.00 0.01 0.00 999.5
20260505212213 0 270 3.0 5.0 0.00 0.01 0.00 999.5
20260505212143 0 225 4.0 5.0 0.00 0.01 0.00 999.5
20260505212133 0 270 4.0 5.0 0.00 0.01 0.00 999.5
20260505212123 0 248 4.0 5.0 0.00 0.01 0.00 999.5
20260505212113 0 248 3.0 5.0 0.00 0.01 0.00 999.5
20260505212033 0 270 3.0 5.0 0.00 0.01 0.00 999.5
20260505212023 0 225 3.0 5.0 0.00 0.01 0.00 999.5
20260505211953 0 270 2.0 5.0 0.00 0.01 0.00 999.5
20260505211913 0 270 2.0 5.0 0.00 0.01 0.00 999.5
20260505211903 0 248 2.0 5.0 0.00 0.01 0.00 999.5
20260505211843 0 225 2.0 5.0 0.00 0.01 0.00 999.4
20260505211823 0 225 2.0 5.0 0.00 0.01 0.00 999.5
20260505211753 0 225 3.0 5.0 0.00 0.01 0.00 999.4
20260505211743 0 225 3.0 5.0 0.00 0.01 0.00 999.5
20260505211714 0 270 3.0 5.0 0.00 0.01 0.00 999.5
20260505211703 0 248 3.0 5.0 0.00 0.01 0.00 999.5
20260505211644 0 248 3.0 4.0 0.00 0.01 0.00 999.5
20260505211624 0 225 3.0 4.0 0.00 0.01 0.00 999.5
20260505211604 0 270 2.0 4.0 0.00 0.01 0.00 999.5
20260505211554 0 225 2.0 4.0 0.00 0.01 0.00 999.5
20260505211544 0 248 2.0 4.0 0.00 0.01 0.00 999.5
20260505211524 0 270 2.0 4.0 0.00 0.01 0.00 999.5
20260505211444 0 270 2.0 4.0 0.00 0.01 0.00 999.5
20260505211404 0 270 2.0 4.0 0.00 0.01 0.00 999.5
20260505211324 0 270 2.0 4.0 0.00 0.01 0.00 999.5
20260505211244 0 270 2.0 4.0 0.00 0.01 0.00 999.5
20260505211224 0 248 2.0 4.0 0.00 0.01 0.00 1026.1
20260505211214 0 225 2.0 4.0 0.00 0.01 0.00 999.5
20260505211204 0 225 3.0 4.0 0.00 0.01 0.00 999.5
20260505211144 0 248 3.0 4.0 0.00 0.01 0.00 999.5
20260505211134 0 248 2.0 4.0 0.00 0.01 0.00 999.5
20260505211104 0 248 2.0 5.0 0.00 0.01 0.00 999.5
20260505211054 0 225 2.0 5.0 0.00 0.01 0.00 999.5
20260505211035 0 225 1.0 5.0 0.00 0.01 0.00 999.5
20260505211015 0 225 2.0 5.0 0.00 0.01 0.00 999.5
20260505210935 0 225 2.0 5.0 0.00 0.01 0.00 999.5
20260505210925 0 225 2.0 5.0 0.00 0.01 0.00 999.6
20260505210905 0 225 1.0 5.0 0.00 0.01 0.00 999.5
20260505210855 0 225 1.0 5.0 0.00 0.01 0.00 999.6
20260505210835 0 225 2.0 5.0 0.00 0.01 0.00 999.5
20260505210755 0 225 1.0 5.0 0.00 0.01 0.00 999.6
20260505210745 0 203 1.0 5.0 0.00 0.01 0.00 999.6
20260505210725 0 0 2.0 5.0 0.00 0.01 0.00 999.5
20260505210705 0 225 2.0 5.0 0.00 0.01 0.00 999.6
20260505210645 0 270 3.0 5.0 0.00 0.01 0.00 999.6
20260505210635 0 225 3.0 5.0 0.00 0.01 0.00 999.5
20260505210625 0 225 3.0 5.0 0.00 0.01 0.00 999.6
20260505210615 0 225 2.0 5.0 0.00 0.01 0.00 999.6
20260505210605 0 203 2.0 5.0 0.00 0.01 0.00 999.6
20260505210555 0 225 2.0 4.0 0.00 0.01 0.00 999.5
20260505210545 0 203 2.0 4.0 0.00 0.01 0.00 999.5
20260505210515 0 225 2.0 4.0 0.00 0.01 0.00 999.6
20260505210505 0 203 2.0 4.0 0.00 0.01 0.00 999.6
20260505210445 0 225 1.0 4.0 0.00 0.01 0.00 999.6
20260505210435 0 203 2.0 4.0 0.00 0.01 0.00 999.5
20260505210425 0 225 2.0 4.0 0.00 0.01 0.00 999.5
20260505210405 0 225 2.0 4.0 0.00 0.01 0.00 999.6
20260505210356 0 203 2.0 4.0 0.00 0.01 0.00 999.5
20260505210336 0 180 2.0 4.0 0.00 0.01 0.00 999.6
20260505210326 0 180 2.0 4.0 0.00 0.01 0.00 999.5
20260505210316 0 203 2.0 4.0 0.00 0.01 0.00 999.5
20260505210306 0 225 1.0 4.0 0.00 0.01 0.00 999.5
20260505210256 0 225 1.0 4.0 0.00 0.01 0.00
20260505210236 0 203 1.0 4.0 0.00 0.01 0.00 999.5
20260505210156 0 225 1.0 4.0 0.00 0.01 0.00 999.5
20260505210146 0 203 2.0 4.0 0.00 0.01 0.00 999.5
20260505210136 0 225 2.0 4.0 0.00 0.01 0.00 999.5
20260505210056 0 225 2.0 4.0 0.00 0.01 0.00 999.5
20260505210016 0 225 2.0 4.0 0.00 0.01 0.00 999.5
20260505205946 0 225 2.0 4.0 0.00 0.01 0.00 999.4
20260505205926 0 225 2.0 4.0 0.00 0.01 0.00 999.5
20260505205906 0 225 1.0 4.0 0.00 0.01 0.00 999.5
20260505205856 0 225 1.0 4.0 0.00 0.01 0.00 999.4
20260505205836 0 180 2.0 4.0 0.00 0.01 0.00 999.4
20260505205826 0 225 2.0 4.0 0.00 0.01 0.00 999.4
20260505205746 0 225 2.0 4.0 0.00 0.01 0.00 999.4
20260505205726 0 225 3.0 4.0 0.00 0.01 0.00 999.4
20260505205657 0 225 3.0 4.0 0.00 0.01 0.00 999.3
20260505205647 0 225 3.0 4.0 0.00 0.01 0.00 999.4
20260505205617 0 225 2.0 4.0 0.00 0.01 0.00 999.4
20260505205537 0 225 2.0 4.0 0.00 0.01 0.00 999.4
20260505205517 0 225 2.0 3.0 0.00 0.01 0.00 999.3
20260505205507 0 225 2.0 3.0 0.00 0.01 0.00 999.4
20260505205427 0 225 2.0 3.0 0.00 0.01 0.00 999.3
20260505205417 0 225 2.0 3.0 0.00 0.01 0.00 999.4
20260505205407 0 225 2.0 4.0 0.00 0.01 0.00 999.4
20260505205357 0 225 1.0 4.0 0.00 0.01 0.00 999.3
20260505205347 0 225 1.0 4.0 0.00 0.01 0.00 999.4
20260505205317 0 225 0.0 4.0 0.00 0.01 0.00 999.3
20260505205237 0 225 0.0 4.0 0.00 0.01 0.00 999.3
20260505205157 0 225 0.0 4.0 0.00 0.01 0.00 999.3
20260505205147 0 225 1.0 4.0 0.00 0.01 0.00 999.3
20260505205127 0 203 0.0 4.0 0.00 0.01 0.00 999.3
20260505205107 0 225 0.0 4.0 0.00 0.01 0.00 999.3
20260505205047 0 180 0.0 4.0 0.00 0.01 0.00 999.3
20260505205028 0 225 0.0 4.0 0.00 0.01 0.00 999.3
20260505205018 0 225 1.0 4.0 0.00 0.01 0.00 999.3
20260505204948 0 225 2.0 4.0 0.00 0.01 0.00 999.2
20260505204938 0 225 2.0 4.0 0.00 0.01 0.00 999.3
20260505204928 0 225 3.0 4.0 0.00 0.01 0.00 999.2
20260505204848 0 225 3.0 4.0 0.00 0.01 0.00 999.2
20260505204818 0 270 2.0 4.0 0.00 0.01 0.00 999.2
20260505204808 0 225 2.0 4.0 0.00 0.01 0.00 999.2
20260505204728 0 270 2.0 4.0 0.00 0.01 0.00 999.2
20260505204658 0 270 2.0 4.0 0.00 0.01 0.00 999.1
20260505204648 0 270 2.0 4.0 0.00 0.01 0.00 999.2
20260505204638 0 248 2.0 4.0 0.00 0.01 0.00 999.2
20260505204628 0 225 2.0 4.0 0.00 0.01 0.00 999.2
20260505204618 0 248 2.0 4.0 0.00 0.01 0.00 999.1
20260505204608 0 270 2.0 4.0 0.00 0.01 0.00 999.1
20260505204558 0 225 2.0 4.0 0.00 0.01 0.00 999.1
20260505204548 0 225 2.0 4.0 0.00 0.01 0.00 999.2
20260505204518 0 270 2.0 4.0 0.00 0.01 0.00 999.1
20260505204508 0 270 2.0 4.0 0.00 0.01 0.00 999.2
20260505204428 0 270 2.0 4.0 0.00 0.01 0.00 999.1
20260505204349 0 270 2.0 4.0 0.00 0.01 0.00 999.1
20260505204309 0 270 2.0 4.0 0.00 0.01 0.00 999.1
20260505204229 0 270 2.0 4.0 0.00 0.01 0.00 999.1
20260505204149 0 270 2.0 5.0 0.00 0.01 0.00 999.1
20260505204109 0 270 2.0 5.0 0.00 0.01 0.00 999.0
20260505204039 0 270 2.0 5.0 0.00 0.01 0.00 999.1
20260505204029 61 270 2.0 5.0 0.00 0.01 0.00 73 999.0
20260505204019 0 270 2.0 5.0 0.00 0.01 0.00 999.0
20260505203949 0 270 2.0 5.0 0.00 0.01 0.00 999.1
20260505203939 0 270 2.0 5.0 0.00 0.01 0.00 999.0
20260505203859 0 270 2.0 5.0 0.00 0.01 0.00 999.0
20260505203839 0 270 2.0 5.0 0.00 0.01 0.00 999.1
20260505203819 0 270 2.0 5.0 0.00 0.01 0.00 999.0
20260505203749 0 270 3.0 5.0 0.00 0.01 0.00 915.3
20260505203739 0 270 3.0 5.0 0.00 0.01 0.00 999.0
20260505203720 0 315 2.0 6.0 0.00 0.01 0.00 999.0
20260505203700 0 270 2.0 6.0 0.00 0.01 0.00 999.0
20260505203650 61 315 2.0 6.0 0.00 0.01 0.00 73 999.0
20260505203640 0 315 2.0 6.0 0.00 0.01 0.00 998.9
20260505203620 0 315 2.0 6.0 0.00 0.01 0.00 999.0
20260505203601 0 315 2.0 6.0 0.00 0.01 0.00 998.9
20260505203530 0 270 2.0 6.0 0.00 0.01 0.00 998.9
20260505203520 0 315 2.0 6.0 0.00 0.01 0.00 998.9
20260505203510 0 315 2.0 6.0 0.00 0.01 0.00 999.0
20260505203450 0 270 3.0 6.0 0.00 0.01 0.00 998.9
20260505203440 0 293 3.0 6.0 0.00 0.01 0.00 998.9
20260505203420 0 315 3.0 6.0 0.00 0.01 0.00 998.9
20260505203410 0 270 3.0 6.0 0.00 0.01 0.00 998.9
20260505203400 0 315 4.0 6.0 0.00 0.01 0.00 998.9
20260505203330 0 270 4.0 6.0 0.00 0.01 0.00 998.9
20260505203310 0 315 4.0 6.0 0.00 0.01 0.00 998.9
20260505203230 0 315 4.0 6.0 0.00 0.01 0.00 998.9
20260505203220 0 315 4.0 5.0 0.00 0.01 0.00 998.9
20260505203210 0 293 4.0 5.0 0.00 0.01 0.00 998.8
20260505203200 0 270 4.0 5.0 0.00 0.01 0.00 998.9
20260505203151 0 270 3.0 5.0 0.00 0.01 0.00 998.9
20260505203140 0 315 3.0 5.0 0.00 0.01 0.00 998.9
20260505203130 0 315 4.0 5.0 0.00 0.01 0.00 998.8
20260505203100 0 315 4.0 5.0 0.00 0.01 0.00 998.9
20260505203051 0 293 4.0 5.0 0.00 0.01 0.00 998.8
20260505203041 0 293 4.0 5.0 0.00 0.01 0.00 998.9
20260505203031 0 315 4.0 6.0 0.00 0.01 0.00 998.8
20260505203011 0 315 3.0 7.0 0.00 0.01 0.00 998.9
20260505203001 0 315 3.0 7.0 0.00 0.01 0.00 998.8
20260505202951 0 270 3.0 7.0 0.00 0.01 0.00 998.9
20260505202941 0 315 2.0 7.0 0.00 0.01 0.00 998.8
20260505202931 0 270 3.0 7.0 0.00 0.01 0.00 998.8
20260505202911 0 315 2.0 7.0 0.00 0.01 0.00 998.9
20260505202901 0 270 2.0 7.0 0.00 0.01 0.00 998.8
20260505202841 0 315 3.0 7.0 0.00 0.01 0.00 998.8
20260505202821 0 315 3.0 7.0 0.00 0.01 0.00 998.9
20260505202811 0 270 3.0 7.0 0.00 0.01 0.00 998.8
20260505202801 0 315 3.0 7.0 0.00 0.01 0.00 998.8
20260505202751 0 293 3.0 7.0 0.00 0.01 0.00 998.8
20260505202741 0 315 3.0 7.0 0.00 0.01 0.00 998.9
20260505202721 0 315 3.0 7.0 0.00 0.01 0.00 998.8
20260505202711 0 315 4.0 7.0 0.00 0.01 0.00 998.9
20260505202641 0 315 4.0 7.0 0.00 0.01 0.00 998.8
20260505202611 0 315 4.0 8.0 0.00 0.01 0.00 998.8
20260505202531 0 315 4.0 8.0 0.00 0.01 0.00 998.8
20260505202521 0 293 4.0 10.0 0.00 0.01 0.00 998.8
20260505202501 0 270 4.0 11.0 0.00 0.01 0.00 998.8
20260505202451 0 315 4.0 11.0 0.00 0.01 0.00 998.8
20260505202431 0 293 4.0 11.0 0.00 0.01 0.00 998.8
20260505202411 0 315 4.0 11.0 0.00 0.01 0.00 998.8
20260505202352 63 315 4.0 11.0 0.00 0.01 0.00 71 998.8
20260505202341 0 270 4.0 11.0 0.00 0.01 0.00 998.8
20260505202332 0 315 4.0 11.0 0.00 0.01 0.00 998.8
20260505202302 0 270 4.0 11.0 0.00 0.01 0.00 998.8
20260505202252 0 315 4.0 11.0 0.00 0.01 0.00 998.8
20260505202242 0 0 4.0 11.0 0.00 0.01 0.00 998.8
20260505202212 0 315 4.0 11.0 0.00 0.01 0.00 998.8
20260505202202 0 293 4.0 11.0 0.00 0.01 0.00 998.8
20260505202152 0 270 4.0 11.0 0.00 0.01 0.00 998.8
20260505202132 0 315 4.0 11.0 0.00 0.01 0.00 998.8
20260505202122 0 315 5.0 11.0 0.00 0.01 0.00 998.8
20260505202112 0 315 6.0 11.0 0.00 0.01 0.00 998.8
20260505202042 0 293 6.0 11.0 0.00 0.01 0.00 998.8
20260505202032 0 315 6.0 11.0 0.00 0.01 0.00 998.8
20260505202022 0 270 5.0 11.0 0.00 0.01 0.00 998.8
20260505202012 0 270 4.0 8.0 0.00 0.01 0.00 998.8
20260505201952 0 315 4.0 7.0 0.00 0.01 0.00 998.8
20260505201912 0 315 4.0 7.0 0.00 0.01 0.00 998.8
20260505201902 0 270 4.0 7.0 0.00 0.01 0.00 998.8
20260505201822 0 315 4.0 7.0 0.00 0.01 0.00 998.8
20260505201752 0 270 4.0 7.0 0.00 0.01 0.00 998.8
20260505201743 0 315 4.0 7.0 0.00 0.01 0.00 998.8
20260505201723 0 293 4.0 7.0 0.00 0.01 0.00 998.8
20260505201653 0 315 4.0 7.0 0.00 0.01 0.00 998.8
20260505201643 0 293 4.0 7.0 0.00 0.01 0.00 998.8
20260505201633 0 315 4.0 7.0 0.00 0.01 0.00 998.9
20260505201613 0 315 5.0 7.0 0.00 0.01 0.00 998.8
20260505201603 0 270 5.0 7.0 0.00 0.01 0.00 998.8
20260505201523 0 315 5.0 7.0 0.00 0.01 0.00 998.8
20260505201513 0 293 5.0 7.0 0.00 0.01 0.00 998.8
20260505201503 0 315 4.0 7.0 0.00 0.01 0.00 998.8
20260505201443 0 270 4.0 7.0 0.00 0.01 0.00 998.8
20260505201423 0 293 4.0 7.0 0.00 0.01 0.00 998.8
20260505201403 0 315 4.0 7.0 0.00 0.01 0.00 998.8
20260505201343 0 270 4.0 7.0 0.00 0.01 0.00 998.8
20260505201313 0 293 4.0 7.0 0.00 0.01 0.00 998.8
20260505201303 0 315 4.0 7.0 0.00 0.01 0.00 998.8
20260505201233 0 270 4.0 7.0 0.00 0.01 0.00 998.8
20260505201223 0 293 4.0 7.0 0.00 0.01 0.00 998.8
20260505201153 0 315 4.0 7.0 0.00 0.01 0.00 998.8
20260505201133 0 315 4.0 8.0 0.00 0.01 0.00 998.8
20260505201123 0 293 4.0 8.0 0.00 0.01 0.00 998.8
20260505201114 0 270 4.0 8.0 0.00 0.01 0.00 998.8
20260505201054 0 293 5.0 8.0 0.00 0.01 0.00 998.8
20260505201044 0 293 4.0 8.0 0.00 0.01 0.00 998.8
20260505201034 0 315 4.0 8.0 0.00 0.01 0.00 998.8
20260505201014 0 270 4.0 8.0 0.00 0.01 0.00 998.8
20260505201004 0 293 4.0 8.0 0.00 0.01 0.00 998.8
20260505200954 0 315 4.0 8.0 0.00 0.01 0.00 998.8
20260505200934 0 270 4.0 8.0 0.00 0.01 0.00 998.7
20260505200914 0 315 4.0 8.0 0.00 0.01 0.00 998.8
20260505200854 0 315 4.0 8.0 0.00 0.01 0.00 998.7
20260505200814 0 315 4.0 8.0 0.00 0.01 0.00 998.7
20260505200724 0 270 4.0 8.0 0.00 0.01 0.00 998.7
20260505200654 0 315 5.0 8.0 0.00 0.01 0.00 998.7
20260505200634 0 315 4.0 8.0 0.00 0.01 0.00 998.7
20260505200624 0 293 4.0 8.0 0.00 0.01 0.00 998.7
20260505200614 0 315 4.0 7.0 0.00 0.01 0.00 998.7
20260505200604 0 270 4.0 7.0 0.00 0.01 0.00 998.7
20260505200534 0 315 3.0 7.0 0.00 0.01 0.00 998.7
20260505200524 0 270 3.0 7.0 0.00 0.01 0.00 998.7
20260505200504 0 293 3.0 7.0 0.00 0.01 0.00 998.7
20260505200454 0 315 3.0 7.0 0.00 0.01 0.00 998.7
20260505200444 0 315 4.0 7.0 0.00 0.01 0.00 998.7
20260505200424 0 315 4.0 7.0 0.00 0.01 0.00 998.6
20260505200414 0 270 4.0 7.0 0.00 0.01 0.00 998.7
20260505200355 0 315 4.0 7.0 0.00 0.01 0.00 998.7
20260505200335 0 293 4.0 7.0 0.00 0.01 0.00 998.7
20260505200315 0 315 4.0 7.0 0.00 0.01 0.00 998.7
20260505200305 0 315 3.0 7.0 0.00 0.01 0.00 998.7
20260505200255 0 315 3.0 7.0 0.00 0.01 0.00 998.6
20260505200225 0 315 2.0 6.0 0.00 0.01 0.00 998.7
20260505200215 0 315 3.0 6.0 0.00 0.01 0.00 998.7
20260505200205 0 293 3.0 6.0 0.00 0.01 0.00 998.7
20260505200135 0 0 3.0 6.0 0.00 0.01 0.00 998.6
20260505200125 0 315 3.0 6.0 0.00 0.01 0.00 998.7
20260505200105 0 270 3.0 6.0 0.00 0.01 0.00 998.7
20260505200055 0 315 3.0 7.0 0.00 0.01 0.00 998.7
20260505200045 0 315 3.0 7.0 0.00 0.01 0.00 998.6
20260505200035 0 293 3.0 7.0 0.00 0.01 0.00 998.6
20260505200025 0 293 3.0 7.0 0.00 0.01 0.00 998.7
20260505200005 0 315 3.0 7.0 0.00 0.01 0.00 998.7
20260505195935 0 315 3.0 7.0 0.00 0.01 0.00 998.6
20260505195925 0 293 4.0 8.0 0.00 0.01 0.00 998.6
20260505195915 0 293 4.0 8.0 0.00 0.01 0.00 998.7
20260505195905 0 270 4.0 8.0 0.00 0.01 0.00 998.7
20260505195855 0 315 3.0 8.0 0.00 0.01 0.00 998.7
20260505195825 0 315 4.0 8.0 0.00 0.01 0.00 998.7
20260505195815 0 293 4.0 8.0 0.00 0.01 0.00 998.6
20260505195805 0 293 4.0 8.0 0.00 0.01 0.00 998.7
20260505195736 0 315 4.0 8.0 0.00 0.01 0.00 998.7
20260505195656 0 315 4.0 8.0 0.00 0.01 0.00 998.7
20260505195616 0 315 4.0 8.0 0.00 0.01 0.00 998.7
20260505195536 0 315 4.0 8.0 0.00 0.01 0.00 998.7
20260505195526 0 293 4.0 8.0 0.00 0.01 0.00 998.7
20260505195456 0 315 4.0 8.0 0.00 0.01 0.00 998.7
20260505195436 0 270 4.0 8.0 0.00 0.01 0.00 998.7
20260505195406 0 315 4.0 8.0 0.00 0.01 0.00 998.6
20260505195356 0 315 4.0 8.0 0.00 0.01 0.00 998.7
20260505195346 0 315 3.0 8.0 0.00 0.01 0.00 998.7
20260505195326 0 315 2.0 8.0 0.00 0.01 0.00 998.7
20260505195316 0 270 2.0 8.0 0.00 0.01 0.00 998.7
20260505195306 0 270 3.0 8.0 0.00 0.01 0.00 998.7
20260505195256 0 315 3.0 8.0 0.00 0.01 0.00 998.6
20260505195246 0 270 4.0 8.0 0.00 0.01 0.00 998.6
20260505195226 0 315 4.0 8.0 0.00 0.01 0.00 998.6
20260505195216 0 270 4.0 8.0 0.00 0.01 0.00 998.7
20260505195206 0 270 4.0 8.0 0.00 0.01 0.00 998.6
20260505195156 0 315 4.0 8.0 0.00 0.01 0.00 998.7
20260505195146 0 315 4.0 8.0 0.00 0.01 0.00 998.6
20260505195136 0 293 4.0 6.0 0.00 0.01 0.00 998.6
20260505195127 0 315 4.0 6.0 0.00 0.01 0.00 998.6
20260505195117 0 315 3.0 5.0 0.00 0.01 0.00 998.6
20260505195107 0 270 2.0 5.0 0.00 0.01 0.00 998.6
20260505195047 0 315 2.0 5.0 0.00 0.01 0.00 998.6
20260505195037 0 293 2.0 5.0 0.00 0.01 0.00 998.6
20260505195027 0 315 1.0 5.0 0.00 0.01 0.00 998.6
20260505195007 0 315 2.0 5.0 0.00 0.01 0.00 998.6
20260505194927 0 315 2.0 5.0 0.00 0.01 0.00 998.6
20260505194857 0 315 2.0 5.0 0.00 0.01 0.00 998.5
20260505194847 0 315 2.0 5.0 0.00 0.01 0.00 998.6
20260505194837 0 315 3.0 5.0 0.00 0.01 0.00 998.6
20260505194817 0 270 3.0 5.0 0.00 0.01 0.00 998.6
20260505194757 0 315 3.0 5.0 0.00 0.01 0.00 998.6
20260505194737 0 293 2.0 5.0 0.00 0.01 0.00 998.6
20260505194727 0 315 2.0 5.0 0.00 0.01 0.00 998.6
20260505194717 0 270 2.0 5.0 0.00 0.01 0.00 998.6
20260505194637 0 315 2.0 5.0 0.00 0.01 0.00 998.6
20260505194607 0 315 3.0 5.0 0.00 0.01 0.00 998.6
20260505194557 0 270 3.0 5.0 0.00 0.01 0.00 998.5
20260505194547 0 315 2.0 5.0 0.00 0.01 0.00 998.6
20260505194517 0 315 2.0 5.0 0.00 0.01 0.00 998.5
20260505194508 0 315 2.0 5.0 0.00 0.01 0.00 998.6
20260505194458 0 315 3.0 5.0 0.00 0.01 0.00 998.6
20260505194438 0 293 3.0 5.0 0.00 0.01 0.00 998.5
20260505194428 0 315 3.0 5.0 0.00 0.01 0.00 998.5
20260505194418 0 315 2.0 5.0 0.00 0.01 0.00 998.5
20260505194338 0 315 2.0 5.0 0.00 0.01 0.00 998.5
20260505194328 0 315 3.0 5.0 0.00 0.01 0.00 998.5
20260505194258 0 270 3.0 5.0 0.00 0.01 0.00 998.5
20260505194238 0 315 3.0 5.0 0.00 0.01 0.00 998.5
20260505194158 0 315 3.0 5.0 0.00 0.01 0.00 998.5
20260505194148 0 270 3.0 5.0 0.00 0.01 0.00 998.5
20260505194138 0 315 3.0 5.0 0.00 0.01 0.00 998.4
20260505194128 0 293 3.0 5.0 0.00 0.01 0.00 998.4
20260505194048 0 315 3.0 5.0 0.00 0.01 0.00 998.4
20260505194038 0 270 3.0 5.0 0.00 0.01 0.00 998.4
20260505194018 0 315 3.0 5.0 0.00 0.01 0.00 998.5
20260505193938 0 315 3.0 5.0 0.00 0.01 0.00 998.4
20260505193859 0 315 3.0 5.0 0.00 0.01 0.00 998.4
20260505193839 0 293 3.0 5.0 0.00 0.01 0.00 998.4
20260505193819 0 315 3.0 5.0 0.00 0.01 0.00 998.4
20260505193809 0 315 4.0 5.0 0.00 0.01 0.00 998.4
20260505193759 0 293 4.0 5.0 0.00 0.01 0.00 998.4
20260505193729 0 315 4.0 5.0 0.00 0.01 0.00 998.4
20260505193719 0 270 3.0 5.0 0.00 0.01 0.00 998.4
20260505193709 0 315 3.0 5.0 0.00 0.01 0.00 998.4
20260505193639 0 315 2.0 5.0 0.00 0.01 0.00 998.4
20260505193619 0 315 3.0 5.0 0.00 0.01 0.00 998.4
20260505193609 0 270 3.0 5.0 0.00 0.01 0.00 998.4
20260505193539 0 315 4.0 5.0 0.00 0.01 0.00 998.4
20260505193529 0 315 3.0 5.0 0.00 0.01 0.00 998.4
20260505193519 0 315 3.0 6.0 0.00 0.01 0.00 998.4
20260505193449 0 293 3.0 6.0 0.00 0.01 0.00 998.4
20260505193439 0 315 3.0 6.0 0.00 0.01 0.00 998.4
20260505193429 0 270 3.0 6.0 0.00 0.01 0.00 998.4
20260505193409 0 270 4.0 6.0 0.00 0.01 0.00 998.4
20260505193349 0 315 4.0 6.0 0.00 0.01 0.00 998.4
20260505193339 0 293 4.0 6.0 0.00 0.01 0.00 998.3
20260505193310 0 315 4.0 6.0 0.00 0.01 0.00 998.4
20260505193250 0 270 4.0 6.0 0.00 0.01 0.00 998.4
20260505193240 0 270 4.0 6.0 0.00 0.01 0.00 998.3
20260505193230 0 315 4.0 6.0 0.00 0.01 0.00 998.3
20260505193210 0 315 4.0 6.0 0.00 0.01 0.00 998.4
20260505193150 0 315 4.0 6.0 0.00 0.01 0.00 998.3
20260505193140 0 270 4.0 6.0 0.00 0.01 0.00 998.4
20260505193130 0 270 4.0 6.0 0.00 0.01 0.00 998.3
20260505193100 0 315 4.0 6.0 0.00 0.01 0.00 998.4
20260505193050 0 293 4.0 6.0 0.00 0.01 0.00 998.4
20260505193030 0 270 4.0 6.0 0.00 0.01 0.00 998.4
20260505193010 0 293 4.0 6.0 0.00 0.01 0.00 998.4
20260505192950 0 315 4.0 6.0 0.00 0.01 0.00 998.3
20260505192930 0 270 4.0 6.0 0.00 0.01 0.00 998.3
20260505192910 0 315 4.0 6.0 0.00 0.01 0.00 998.3
20260505192830 0 315 4.0 6.0 0.00 0.01 0.00 998.3
20260505192820 0 293 4.0 6.0 0.00 0.01 0.00 998.3
20260505192810 0 270 4.0 6.0 0.00 0.01 0.00 998.3
20260505192740 0 315 4.0 6.0 0.00 0.01 0.00 998.3
20260505192730 0 270 4.0 6.0 0.00 0.01 0.00 998.3
20260505192701 0 293 4.0 6.0 0.00 0.01 0.00 998.3
20260505192651 0 315 4.0 6.0 0.00 0.01 0.00 998.3
20260505192641 0 270 4.0 6.0 0.00 0.01 0.00 998.3
20260505192601 0 315 4.0 6.0 0.00 0.01 0.00 998.3
20260505192551 0 270 4.0 6.0 0.00 0.01 0.00 998.3
20260505192531 0 293 4.0 6.0 0.00 0.01 0.00 998.3
20260505192521 0 315 4.0 6.0 0.00 0.01 0.00 998.3
20260505192441 0 315 4.0 6.0 0.00 0.01 0.00 998.3
20260505192431 0 270 4.0 6.0 0.00 0.01 0.00 998.3
20260505192421 0 315 4.0 6.0 0.00 0.01 0.00 998.2
20260505192351 0 270 4.0 6.0 0.00 0.01 0.00 998.2
20260505192341 0 270 4.0 6.0 0.00 0.01 0.00 998.3
20260505192311 0 315 4.0 5.0 0.00 0.01 0.00 998.2
20260505192251 0 293 4.0 5.0 0.00 0.01 0.00 998.2
20260505192231 0 270 4.0 5.0 0.00 0.01 0.00 998.2
20260505192211 0 315 4.0 5.0 0.00 0.01 0.00 998.3
20260505192201 0 315 4.0 5.0 0.00 0.01 0.00 998.2
20260505192141 0 270 3.0 5.0 0.00 0.01 0.00 998.2
20260505192131 0 293 3.0 5.0 0.00 0.01 0.00 998.2
20260505192102 0 270 3.0 5.0 0.00 0.01 0.00 998.2
20260505192052 0 270 4.0 5.0 0.00 0.01 0.00 998.2
20260505192042 0 315 4.0 5.0 0.00 0.01 0.00 998.2
20260505192022 0 270 3.0 5.0 0.00 0.01 0.00 998.2
20260505191952 0 270 3.0 7.0 0.00 0.01 0.00 998.2
20260505191942 0 293 3.0 7.0 0.00 0.01 0.00 998.2
20260505191932 0 315 4.0 7.0 0.00 0.01 0.00 998.2
20260505191922 0 270 4.0 7.0 0.00 0.01 0.00 998.1
20260505191902 0 270 4.0 7.0 0.00 0.01 0.00 998.2
20260505191852 0 315 3.0 7.0 0.00 0.01 0.00 998.1
20260505191832 0 315 3.0 7.0 0.00 0.01 0.00 998.2
20260505191812 0 270 3.0 7.0 0.00 0.01 0.00 998.2
20260505191732 0 270 3.0 7.0 0.00 0.01 0.00 998.1
20260505191712 0 315 4.0 7.0 0.00 0.01 0.00 998.1
20260505191702 0 270 4.0 7.0 0.00 0.01 0.00 998.1
20260505191622 0 270 4.0 7.0 0.00 0.01 0.00 998.1
20260505191603 0 315 4.0 7.0 0.00 0.01 0.00 998.1
20260505191552 0 270 4.0 7.0 0.00 0.01 0.00 998.0
20260505191532 0 315 4.0 7.0 0.00 0.01 0.00 998.0
20260505191522 0 270 4.0 7.0 0.00 0.01 0.00 998.1
20260505191512 0 270 4.0 6.0 0.00 0.01 0.00 998.1
20260505191453 0 270 3.0 5.0 0.00 0.01 0.00 998.1
20260505191443 0 293 3.0 5.0 0.00 0.01 0.00 998.1
20260505191433 64 315 3.0 5.0 0.00 0.01 0.00 70 998.1
20260505191423 64 293 3.0 5.0 0.00 0.01 0.00 70 998.0
20260505191413 0 293 3.0 5.0 0.00 0.01 0.00 998.0
20260505191403 0 315 3.0 5.0 0.00 0.01 0.00 998.0
20260505191353 0 270 3.0 5.0 0.00 0.01 0.00 998.0
20260505191343 0 270 2.0 5.0 0.00 0.01 0.00 998.0
20260505191333 0 293 2.0 5.0 0.00 0.01 0.00 998.0
20260505191313 0 315 2.0 5.0 0.00 0.01 0.00 998.0
20260505191303 0 270 2.0 5.0 0.00 0.01 0.00 998.0
20260505191253 0 293 2.0 5.0 0.00 0.01 0.00 998.0
20260505191223 0 315 3.0 5.0 0.00 0.01 0.00 998.0
20260505191213 0 270 3.0 5.0 0.00 0.01 0.00 998.0
20260505191203 0 293 3.0 5.0 0.00 0.01 0.00 997.9
20260505191143 0 270 4.0 5.0 0.00 0.01 0.00 998.0
20260505191123 0 315 4.0 5.0 0.00 0.01 0.00 998.0
20260505191113 0 315 4.0 5.0 0.00 0.01 0.00 997.9
20260505191103 0 315 3.0 5.0 0.00 0.01 0.00 998.0
20260505191043 0 270 3.0 5.0 0.00 0.01 0.00 998.0
20260505191033 0 315 3.0 5.0 0.00 0.01 0.00 997.9
20260505191013 0 293 3.0 5.0 0.00 0.01 0.00 998.0
20260505190953 0 315 3.0 5.0 0.00 0.01 0.00 997.9
20260505190943 0 270 3.0 5.0 0.00 0.01 0.00 997.9
20260505190933 0 293 3.0 5.0 0.00 0.01 0.00 997.9
20260505190923 0 270 3.0 5.0 0.00 0.01 0.00 998.0
20260505190914 0 315 3.0 5.0 0.00 0.01 0.00 997.9
20260505190904 0 315 2.0 5.0 0.00 0.01 0.00 997.9
20260505190844 0 293 2.0 5.0 0.00 0.01 0.00 997.9
20260505190834 0 270 2.0 5.0 0.00 0.01 0.00 997.9
20260505190824 0 315 2.0 5.0 0.00 0.01 0.00 997.9
20260505190804 0 315 3.0 5.0 0.00 0.01 0.00 997.9
20260505190734 0 293 3.0 5.0 0.00 0.01 0.00 997.9
20260505190724 0 315 3.0 5.0 0.00 0.01 0.00 997.9
20260505190714 0 293 2.0 5.0 0.00 0.01 0.00 997.9
20260505190704 0 270 2.0 5.0 0.00 0.01 0.00 997.9
20260505190644 0 270 3.0 5.0 0.00 0.01 0.00 997.9
20260505190624 0 270 2.0 5.0 0.00 0.01 0.00 997.9
20260505190544 0 270 2.0 5.0 0.00 0.01 0.00 997.9
20260505190504 0 270 2.0 5.0 0.00 0.01 0.00 997.9
20260505190454 0 315 2.0 5.0 0.00 0.01 0.00 997.9
20260505190424 0 270 2.0 5.0 0.00 0.01 0.00 997.9
20260505190344 0 270 3.0 5.0 0.00 0.01 0.00 997.9
20260505190315 0 270 2.0 5.0 0.00 0.01 0.00 997.9
20260505190235 0 270 2.0 5.0 0.00 0.01 0.00 997.9
20260505190225 0 270 2.0 5.0 0.00 0.01 0.00 998.0
20260505190155 0 270 2.0 5.0 0.00 0.01 0.00 997.9
20260505190115 0 270 2.0 5.0 0.00 0.01 0.00 997.9
20260505190055 0 270 3.0 5.0 0.00 0.01 0.00 997.9
20260505190045 0 248 3.0 5.0 0.00 0.01 0.00 997.9
20260505190005 0 270 3.0 5.0 0.00 0.01 0.00 997.9
20260505185945 0 248 3.0 5.0 0.00 0.01 0.00 997.9
20260505185915 0 270 3.0 5.0 0.00 0.01 0.00 997.9
20260505185835 0 270 3.0 5.0 0.00 0.01 0.00 997.9
20260505185755 0 270 3.0 5.0 0.00 0.01 0.00 997.9
20260505185735 0 270 4.0 5.0 0.00 0.01 0.00 997.9
20260505185656 0 270 4.0 5.0 0.00 0.01 0.00 997.9
20260505185646 0 270 4.0 5.0 0.00 0.01 0.00 997.8
20260505185626 0 270 3.0 5.0 0.00 0.01 0.00 997.9
20260505185616 0 270 4.0 5.0 0.00 0.01 0.00 997.9
20260505185536 0 270 4.0 5.0 0.00 0.01 0.00 997.8
20260505185516 0 270 3.0 5.0 0.00 0.01 0.00 997.8
20260505185506 0 270 3.0 5.0 0.00 0.01 0.00 997.7
20260505185436 0 270 3.0 5.0 0.00 0.01 0.00 997.8
20260505185356 0 270 3.0 5.0 0.00 0.01 0.00 997.8
20260505185316 0 270 3.0 5.0 0.00 0.01 0.00 997.8
20260505185246 0 270 3.0 5.0 0.00 0.01 0.00 997.7
20260505185236 0 270 3.0 5.0 0.00 0.01 0.00 997.8
20260505185216 0 293 3.0 5.0 0.00 0.01 0.00 997.8
20260505185156 0 270 3.0 5.0 0.00 0.01 0.00 997.8
20260505185136 0 270 3.0 6.0 0.00 0.01 0.00 997.8
20260505185056 0 270 3.0 6.0 0.00 0.01 0.00 997.8
20260505185047 0 270 3.0 6.0 0.00 0.01 0.00 997.7
20260505185037 0 293 3.0 6.0 0.00 0.01 0.00 997.8
20260505185017 0 270 2.0 6.0 0.00 0.01 0.00 997.8
20260505185007 0 270 3.0 6.0 0.00 0.01 0.00 997.7
20260505184947 0 270 2.0 6.0 0.00 0.01 0.00 997.7
20260505184927 0 270 2.0 6.0 0.00 0.01 0.00 997.8
20260505184917 0 270 3.0 6.0 0.00 0.01 0.00 997.8
20260505184857 0 270 3.0 6.0 0.00 0.01 0.00 997.7
20260505184837 0 270 3.0 6.0 0.00 0.01 0.00 997.8
20260505184817 0 293 3.0 6.0 0.00 0.01 0.00 997.8
20260505184807 0 270 3.0 6.0 0.00 0.01 0.00 997.7
20260505184757 0 270 3.0 6.0 0.00 0.01 0.00 997.8
20260505184737 0 270 4.0 6.0 0.00 0.01 0.00 997.7
20260505184717 0 270 4.0 6.0 0.00 0.01 0.00 997.8
20260505184637 0 270 4.0 6.0 0.00 0.01 0.00 997.8
20260505184627 0 270 4.0 6.0 0.00 0.01 0.00 997.7
20260505184547 0 270 4.0 6.0 0.00 0.01 0.00 997.8
20260505184537 0 270 4.0 6.0 0.00 0.01 0.00 997.7
20260505184508 0 270 4.0 6.0 0.00 0.01 0.00 997.8
20260505184448 0 270 4.0 7.0 0.00 0.01 0.00 997.8
20260505184408 0 270 4.0 7.0 0.00 0.01 0.00 997.8
20260505184328 0 270 4.0 7.0 0.00 0.01 0.00 997.8
20260505184318 0 225 4.0 7.0 0.00 0.01 0.00 997.8
20260505184248 0 270 4.0 7.0 0.00 0.01 0.00 997.8
20260505184228 0 270 4.0 7.0 0.00 0.01 0.00 997.9
20260505184158 0 248 4.0 7.0 0.00 0.01 0.00 997.8
20260505184138 0 270 4.0 7.0 0.00 0.01 0.00 997.8
20260505184118 0 270 4.0 7.0 0.00 0.01 0.00 997.9
20260505184048 0 270 4.0 7.0 0.00 0.01 0.00 997.8
20260505184008 0 270 4.0 7.0 0.00 0.01 0.00 997.8
20260505183938 0 270 4.0 6.0 0.00 0.01 0.00 997.8
20260505183859 0 270 4.0 6.0 0.00 0.01 0.00 997.8
20260505183849 0 270 4.0 5.0 0.00 0.01 0.00 997.7
20260505183829 0 270 4.0 5.0 0.00 0.01 0.00 997.8
20260505183809 0 270 4.0 5.0 0.00 0.01 0.00 997.7
20260505183739 0 270 4.0 5.0 0.00 0.01 0.00 997.8
20260505183719 0 270 4.0 5.0 0.00 0.01 0.00 997.7
20260505183709 0 270 3.0 5.0 0.00 0.01 0.00 997.7
20260505183559 0 270 3.0 5.0 0.00 0.01 0.00 997.7
20260505183529 0 270 2.0 5.0 0.00 0.01 0.00 997.7
20260505183509 0 270 2.0 5.0 0.00 0.01 0.00 997.6
20260505183459 0 270 2.0 6.0 0.00 0.01 0.00 997.7
20260505183449 0 270 2.0 7.0 0.00 0.01 0.00 997.7
20260505183439 0 270 3.0 7.0 0.00 0.01 0.00 997.7
20260505183429 0 270 3.0 7.0 0.00 0.01 0.00 997.6
20260505183359 0 270 2.0 7.0 0.00 0.01 0.00 997.6
20260505183349 0 270 3.0 7.0 0.00 0.01 0.00 997.7
20260505183319 0 270 2.0 7.0 0.00 0.01 0.00 997.6
20260505183309 0 270 3.0 7.0 0.00 0.01 0.00 997.6
20260505183300 0 270 3.0 7.0 0.00 0.01 0.00 997.7
20260505183240 0 270 2.0 7.0 0.00 0.01 0.00 997.6
20260505183200 0 270 3.0 7.0 0.00 0.01 0.00 997.6
20260505183150 0 270 4.0 7.0 0.00 0.01 0.00 997.6
20260505183110 0 270 4.0 7.0 0.00 0.01 0.00 997.6
20260505183030 0 270 4.0 7.0 0.00 0.01 0.00 997.6
20260505183000 0 270 5.0 7.0 0.00 0.01 0.00 997.6
20260505182920 0 270 4.0 7.0 0.00 0.01 0.00 997.6
20260505182840 0 270 4.0 7.0 0.00 0.01 0.00 997.6
20260505182800 0 270 4.0 7.0 0.00 0.01 0.00 997.6
20260505182740 0 270 4.0 6.0 0.00 0.01 0.00 997.6
20260505182721 0 270 4.0 6.0 0.00 0.01 0.00 997.5
20260505182701 0 270 4.0 6.0 0.00 0.01 0.00 997.6
20260505182641 0 270 4.0 6.0 0.00 0.01 0.00 997.5
20260505182621 0 270 4.0 6.0 0.00 0.01 0.00 997.6
20260505182551 0 270 4.0 6.0 0.00 0.01 0.00 997.5
20260505182511 0 270 4.0 6.0 0.00 0.01 0.00 997.6
20260505182501 0 270 4.0 6.0 0.00 0.01 0.00 997.5
20260505182431 0 270 4.0 6.0 0.00 0.01 0.00 997.6
20260505182421 0 270 4.0 6.0 0.00 0.01 0.00 997.5
20260505182341 0 270 4.0 6.0 0.00 0.01 0.00 997.5
20260505182305 0 270 4.0 6.0 0.00 0.01 0.00 997.5
20260505182231 0 270 4.0 6.0 0.00 0.01 0.00 997.6
20260505182221 0 270 4.0 6.0 0.00 0.01 0.00 997.5
20260505182142 0 270 4.0 6.0 0.00 0.01 0.00 997.5
20260505182102 0 270 4.0 6.0 0.00 0.01 0.00 997.5
20260505182042 0 270 4.0 5.0 0.00 0.01 0.00 997.4
20260505182022 0 270 4.0 5.0 0.00 0.01 0.00 997.5
20260505182012 0 270 4.0 6.0 0.00 0.01 0.00 997.5
20260505181942 0 270 3.0 6.0 0.00 0.01 0.00 997.4
20260505181922 0 270 3.0 6.0 0.00 0.01 0.00 997.5
20260505181912 0 248 4.0 6.0 0.00 0.01 0.00 997.4
20260505181902 0 270 3.0 6.0 0.00 0.01 0.00 997.4
20260505181822 0 270 3.0 6.0 0.00 0.01 0.00 997.4
20260505181812 0 270 3.0 7.0 0.00 0.01 0.00 997.4
20260505181802 0 270 3.0 8.0 0.00 0.01 0.00 997.4
20260505181722 0 270 4.0 8.0 0.00 0.01 0.00 997.4
20260505181642 0 270 4.0 8.0 0.00 0.01 0.00 997.4
20260505181602 0 270 4.0 8.0 0.00 0.01 0.00 997.4
20260505181523 0 270 4.0 8.0 0.00 0.01 0.00 997.4
20260505181443 0 270 4.0 8.0 0.00 0.01 0.00 997.4
20260505181403 0 270 4.0 8.0 0.00 0.01 0.00 997.4
20260505181323 0 270 5.0 8.0 0.00 0.01 0.00 997.4
20260505181313 0 270 4.0 8.0 0.00 0.01 0.00 997.4
20260505181303 0 270 4.0 7.0 0.00 0.01 0.00 997.4
20260505181233 0 270 4.0 6.0 0.00 0.01 0.00 997.4
20260505181213 0 270 4.0 7.0 0.00 0.01 0.00 997.4
20260505181143 0 270 4.0 8.0 0.00 0.01 0.00 997.4
20260505181103 0 270 4.0 8.0 0.00 0.01 0.00 997.4
20260505181053 0 270 4.0 8.0 0.00 0.01 0.00 997.3
20260505181023 0 270 4.0 8.0 0.00 0.01 0.00 997.4
20260505181004 0 270 4.0 8.0 0.00 0.01 0.00 997.3
20260505180944 66 270 4.0 8.0 0.00 0.01 0.00 68 997.4
20260505180924 0 270 4.0 8.0 0.00 0.01 0.00 997.3
20260505180854 0 270 4.0 8.0 0.00 0.01 0.00 997.4
20260505180835 0 270 4.0 8.0 0.00 0.01 0.00 997.3
20260505180804 0 270 5.0 8.0 0.00 0.01 0.00 997.3
20260505180744 0 293 6.0 8.0 0.00 0.01 0.00 997.3
20260505180734 0 270 6.0 8.0 0.00 0.01 0.00 997.4
20260505180724 0 270 5.0 8.0 0.00 0.01 0.00 997.3
20260505180714 0 270 5.0 8.0 0.00 0.01 0.00 997.4
20260505180644 0 270 5.0 8.0 0.00 0.01 0.00 997.3
20260505180634 0 315 5.0 8.0 0.00 0.01 0.00 997.3
20260505180614 0 270 5.0 8.0 0.00 0.01 0.00 997.4
20260505180604 0 270 5.0 8.0 0.00 0.01 0.00 997.3
20260505180534 0 315 4.0 7.0 0.00 0.01 0.00 997.3
20260505180524 0 270 4.0 7.0 0.00 0.01 0.00 997.3
20260505180504 0 315 5.0 7.0 0.00 0.01 0.00 997.3
20260505180454 0 270 5.0 7.0 0.00 0.01 0.00 997.3
20260505180444 0 293 5.0 7.0 0.00 0.01 0.00 997.3
20260505180415 0 270 5.0 7.0 0.00 0.01 0.00 997.3
20260505180405 0 0 5.0 7.0 0.00 0.01 0.00 997.3
20260505180325 0 270 5.0 7.0 0.00 0.01 0.00 997.3
20260505180305 0 293 5.0 7.0 0.00 0.01 0.00 997.3
20260505180245 0 270 5.0 7.0 0.00 0.01 0.00 997.3
20260505180235 0 270 5.0 7.0 0.00 0.01 0.00 997.2
20260505180215 0 270 6.0 7.0 0.00 0.01 0.00 997.3
20260505180205 0 270 6.0 7.0 0.00 0.01 0.00 997.2
20260505180145 0 270 5.0 7.0 0.00 0.01 0.00 997.3
20260505180135 0 270 5.0 7.0 0.00 0.01 0.00 997.2
20260505180055 0 270 5.0 7.0 0.00 0.01 0.00 997.2
20260505180035 0 270 5.0 7.0 0.00 0.01 0.00 997.3
20260505180015 0 270 5.0 7.0 0.00 0.01 0.00 997.2
20260505175935 0 270 5.0 7.0 0.00 0.01 0.00 997.2
20260505175925 0 270 4.0 7.0 0.00 0.01 0.00 997.2
20260505175906 0 293 4.0 8.0 0.00 0.01 0.00 997.2
20260505175846 0 270 4.0 8.0 0.00 0.01 0.00 997.2
20260505175836 0 270 4.0 8.0 0.00 0.01 0.00 997.3
20260505175756 0 270 4.0 8.0 0.00 0.01 0.00 997.2
20260505175736 0 270 4.0 8.0 0.00 0.01 0.00 997.3
20260505175726 0 293 4.0 8.0 0.00 0.01 0.00 997.3
20260505175716 0 270 4.0 8.0 0.00 0.01 0.00 997.2
20260505175656 0 315 4.0 8.0 0.00 0.01 0.00 997.3
20260505175636 0 270 4.0 8.0 0.00 0.01 0.00 997.2
20260505175626 0 270 4.0 8.0 0.00 0.01 0.00 997.3
20260505175556 0 293 4.0 8.0 0.00 0.01 0.00 997.3
20260505175546 0 270 4.0 8.0 0.00 0.01 0.00 997.2
20260505175536 0 270 4.0 8.0 0.00 0.01 0.00 997.3
20260505175526 0 315 5.0 8.0 0.00 0.01 0.00 997.2
20260505175516 0 270 5.0 8.0 0.00 0.01 0.00 997.2
20260505175506 0 270 5.0 9.0 0.00 0.01 0.00 997.3
20260505175446 0 270 6.0 9.0 0.00 0.01 0.00 997.3
20260505175436 0 315 6.0 9.0 0.00 0.01 0.00 997.3
20260505175406 0 270 6.0 9.0 0.00 0.01 0.00 997.3
20260505175336 0 270 5.0 9.0 0.00 0.01 0.00 997.3
20260505175326 65 270 6.0 9.0 0.00 0.01 0.00 67 997.3
20260505175316 0 270 6.0 9.0 0.00 0.01 0.00 997.3
20260505175247 0 270 5.0 9.0 0.00 0.01 0.00 997.3
20260505175237 0 270 6.0 9.0 0.00 0.01 0.00 997.3
20260505175157 0 270 6.0 9.0 0.00 0.01 0.00 997.3
20260505175117 0 270 6.0 9.0 0.00 0.01 0.00 997.3
20260505175037 0 270 6.0 9.0 0.00 0.01 0.00 997.3
20260505175027 0 270 6.0 9.0 0.00 0.01 0.00 997.4
20260505175017 0 315 6.0 9.0 0.00 0.01 0.00 997.3
20260505175007 0 270 6.0 8.0 0.00 0.01 0.00 997.3
20260505174947 0 270 5.0 8.0 0.00 0.01 0.00 997.3
20260505174917 0 293 5.0 8.0 0.00 0.01 0.00 997.3
20260505174907 0 315 6.0 8.0 0.00 0.01 0.00 997.3
20260505174857 0 270 6.0 8.0 0.00 0.01 0.00 997.3
20260505174847 0 270 5.0 8.0 0.00 0.01 0.00 997.3
20260505174827 0 270 5.0 7.0 0.00 0.01 0.00 997.3
20260505174817 65 293 5.0 7.0 0.00 0.01 0.00 69 997.3
20260505174757 0 293 5.0 7.0 0.00 0.01 0.00 997.3
20260505174747 0 270 5.0 7.0 0.00 0.01 0.00 997.3
20260505174708 0 270 5.0 7.0 0.00 0.01 0.00 997.3
20260505174638 0 270 4.0 6.0 0.00 0.01 0.00 997.3
20260505174628 0 315 4.0 5.0 0.00 0.01 0.00 997.3
20260505174608 0 270 4.0 5.0 0.00 0.01 0.00 997.3
20260505174558 0 293 4.0 5.0 0.00 0.01 0.00 997.3
20260505174548 0 315 4.0 5.0 0.00 0.01 0.00 997.2
20260505174528 0 270 4.0 6.0 0.00 0.01 0.00 997.3
20260505174518 0 270 4.0 6.0 0.00 0.01 0.00 997.2
20260505174508 0 315 4.0 6.0 0.00 0.01 0.00 997.3
20260505174458 0 315 4.0 7.0 0.00 0.01 0.00 997.3
20260505174438 0 293 4.0 7.0 0.00 0.01 0.00 997.3
20260505174428 0 293 4.0 7.0 0.00 0.01 0.00 997.2
20260505174418 0 270 4.0 7.0 0.00 0.01 0.00 997.2
20260505174408 0 270 4.0 7.0 0.00 0.01 0.00 997.3
20260505174358 0 315 4.0 7.0 0.00 0.01 0.00 997.2
20260505174348 0 270 3.0 7.0 0.00 0.01 0.00 997.3
20260505174338 0 270 3.0 7.0 0.00 0.01 0.00 997.2
20260505174328 0 293 3.0 7.0 0.00 0.01 0.00 997.2
20260505174258 0 270 3.0 7.0 0.00 0.01 0.00 997.3
20260505174248 0 270 3.0 7.0 0.00 0.01 0.00 997.2
20260505174228 0 315 4.0 7.0 0.00 0.01 0.00 997.2
20260505174218 0 315 4.0 7.0 0.00 0.01 0.00 997.3
20260505174208 0 270 4.0 7.0 0.00 0.01 0.00 997.2
20260505174128 0 315 4.0 7.0 0.00 0.01 0.00 997.3
20260505174118 0 293 4.0 7.0 0.00 0.01 0.00 997.3
20260505174049 0 270 4.0 7.0 0.00 0.01 0.00 997.3
20260505174039 0 270 4.0 7.0 0.00 0.01 0.00 997.2
20260505174029 0 270 5.0 7.0 0.00 0.01 0.00 997.3
20260505173959 0 270 4.0 7.0 0.00 0.01 0.00 997.2
20260505173939 0 270 4.0 7.0 0.00 0.01 0.00 997.3
20260505173929 0 315 4.0 7.0 0.00 0.01 0.00 997.2
20260505173919 0 293 4.0 7.0 0.00 0.01 0.00 997.3
20260505173859 0 315 4.0 7.0 0.00 0.01 0.00 997.3
20260505173849 0 270 4.0 7.0 0.00 0.01 0.00 997.3
20260505173819 0 293 4.0 7.0 0.00 0.01 0.00 997.3
20260505173759 0 270 4.0 7.0 0.00 0.01 0.00 997.3
20260505173729 0 270 5.0 7.0 0.00 0.01 0.00 997.3
20260505173659 0 293 5.0 7.0 0.00 0.01 0.00 997.3
20260505173649 0 270 5.0 7.0 0.00 0.01 0.00 997.3
20260505173609 0 270 4.0 7.0 0.00 0.01 0.00 997.3
20260505173529 0 270 4.0 7.0 0.00 0.01 0.00 997.3
20260505173500 0 270 4.0 7.0 0.00 0.01 0.00 997.4
20260505173450 0 270 4.0 7.0 0.00 0.01 0.00 997.3
20260505173440 0 293 4.0 7.0 0.00 0.01 0.00 997.4
20260505173410 0 270 4.0 7.0 0.00 0.01 0.00 997.4
20260505173400 0 270 4.0 7.0 0.00 0.01 0.00 997.3
20260505173350 0 315 4.0 7.0 0.00 0.01 0.00 997.4
20260505173340 0 315 4.0 7.0 0.00 0.01 0.00 997.3
20260505173330 0 270 4.0 7.0 0.00 0.01 0.00 997.4
20260505173320 0 270 4.0 7.0 0.00 0.01 0.00 997.3
20260505173250 0 270 4.0 7.0 0.00 0.01 0.00 997.4
20260505173140 0 270 4.0 7.0 0.00 0.01 0.00 997.3
20260505173100 0 270 4.0 8.0 0.00 0.01 0.00 997.3
20260505173050 0 270 4.0 8.0 0.00 0.01 0.00 997.2
20260505173020 0 270 4.0 8.0 0.00 0.01 0.00 997.3
20260505173010 0 315 4.0 8.0 0.00 0.01 0.00 997.3
20260505173000 0 293 4.0 8.0 0.00 0.01 0.00 997.3
20260505172930 0 315 4.0 8.0 0.00 0.01 0.00 997.3
20260505172920 0 315 4.0 8.0 0.00 0.01 0.00 997.2
20260505172910 0 293 4.0 8.0 0.00 0.01 0.00 997.2
20260505172900 0 270 4.0 8.0 0.00 0.01 0.00 997.2
20260505172851 0 315 4.0 8.0 0.00 0.01 0.00 997.3
20260505172831 0 315 4.0 8.0 0.00 0.01 0.00 997.2
20260505172821 0 270 4.0 8.0 0.00 0.01 0.00 997.2
20260505172751 0 315 4.0 10.0 0.00 0.01 0.00 997.2
20260505172741 0 315 5.0 10.0 0.00 0.01 0.00 997.3
20260505172711 0 293 5.0 10.0 0.00 0.01 0.00 997.2
20260505172701 0 315 5.0 10.0 0.00 0.01 0.00 997.2
20260505172641 0 270 5.0 10.0 0.00 0.01 0.00 997.2
20260505172621 0 315 4.0 10.0 0.00 0.01 0.00 997.2
20260505172611 0 315 5.0 10.0 0.00 0.01 0.00 997.2
20260505172601 0 315 5.0 10.0 0.00 0.01 0.00 997.1
20260505172531 0 293 5.0 10.0 0.00 0.01 0.00 997.2
20260505172521 0 270 5.0 10.0 0.00 0.01 0.00 997.2
20260505172511 0 315 5.0 10.0 0.00 0.01 0.00 997.2
20260505172501 0 315 5.0 10.0 0.00 0.01 0.00 687.3
20260505172451 0 315 4.0 10.0 0.00 0.01 0.00 997.2
20260505172431 0 270 5.0 10.0 0.00 0.01 0.00 997.2
20260505172421 0 315 6.0 10.0 0.00 0.01 0.00 997.2
20260505172411 0 293 6.0 10.0 0.00 0.01 0.00 834.0
20260505172351 0 270 6.0 10.0 0.00 0.01 0.00 997.2
20260505172341 65 270 6.0 10.0 0.00 0.01 0.00 74 997.2
20260505172331 0 293 6.0 10.0 0.00 0.01 0.00 997.2
20260505172321 0 270 6.0 10.0 0.00 0.01 0.00 997.3
20260505172311 0 270 6.0 9.0 0.00 0.01 0.00 997.3
20260505172301 0 315 5.0 9.0 0.00 0.01 0.00 997.3
20260505172251 0 270 5.0 9.0 0.00 0.01 0.00 997.3
20260505172222 0 270 6.0 9.0 0.00 0.01 0.00 997.3
20260505172142 0 270 6.0 9.0 0.00 0.01 0.00 997.3
20260505172122 0 270 7.0 9.0 0.00 0.01 0.00 997.3
20260505172112 0 270 7.0 10.0 0.00 0.01 0.00 997.3
20260505172102 0 293 7.0 10.0 0.00 0.01 0.00 997.3
20260505172032 0 270 6.0 10.0 0.00 0.01 0.00 997.3
20260505172002 0 270 5.0 10.0 0.00 0.01 0.00 997.3
20260505171952 0 270 4.0 10.0 0.00 0.01 0.00 997.3
20260505171912 0 270 5.0 10.0 0.00 0.01 0.00 997.3
20260505171832 0 270 6.0 10.0 0.00 0.01 0.00 997.3
20260505171822 0 270 7.0 10.0 0.00 0.01 0.00 997.3
20260505171752 0 270 6.0 10.0 0.00 0.01 0.00 997.3
20260505171742 0 225 6.0 10.0 0.00 0.01 0.00 997.4
20260505171732 0 248 5.0 10.0 0.00 0.01 0.00 997.3
20260505171722 0 270 5.0 10.0 0.00 0.01 0.00 997.3
20260505171712 0 270 6.0 10.0 0.00 0.01 0.00 997.3
20260505171642 0 315 6.0 10.0 0.00 0.01 0.00 997.3
20260505171633 0 270 6.0 10.0 0.00 0.01 0.00 997.3
20260505171623 0 270 5.0 10.0 0.00 0.01 0.00 997.4
20260505171603 0 270 5.0 10.0 0.00 0.01 0.00 997.2
20260505171543 0 270 5.0 10.0 0.00 0.01 0.00 997.3
20260505171503 0 270 5.0 11.0 0.00 0.01 0.00 997.3
20260505171423 0 270 5.0 11.0 0.00 0.01 0.00 997.3
20260505171413 0 270 5.0 13.0 0.00 0.01 0.00 997.3
20260505171403 0 270 4.0 14.0 0.00 0.01 0.00 997.3
20260505171323 0 270 5.0 14.0 0.00 0.01 0.00 997.3
20260505171253 0 270 6.0 14.0 0.00 0.01 0.00 997.4
20260505171243 0 270 6.0 14.0 0.00 0.01 0.00 997.3
20260505171213 0 270 7.0 14.0 0.00 0.01 0.00 997.4
20260505171143 0 248 7.0 14.0 0.00 0.01 0.00 997.4
20260505171133 0 270 7.0 14.0 0.00 0.01 0.00 997.4
20260505171053 0 270 8.0 14.0 0.00 0.01 0.00 997.3
20260505171033 0 270 8.0 14.0 0.00 0.01 0.00 997.4
20260505171004 0 270 8.0 14.0 0.00 0.01 0.00 997.3
20260505170954 0 270 8.0 14.0 0.00 0.01 0.00 997.2
20260505170944 0 315 8.0 14.0 0.00 0.01 0.00 997.3
20260505170924 0 270 8.0 14.0 0.00 0.01 0.00 997.3
20260505170914 0 270 6.0 14.0 0.00 0.01 0.00 997.3
20260505170904 0 270 6.0 11.0 0.00 0.01 0.00 997.3
20260505170844 0 270 6.0 11.0 0.00 0.01 0.00 997.2
20260505170834 0 270 5.0 11.0 0.00 0.01 0.00 997.2
20260505170754 0 270 6.0 11.0 0.00 0.01 0.00 997.2
20260505170724 0 270 7.0 11.0 0.00 0.01 0.00 997.2
20260505170714 0 315 7.0 11.0 0.00 0.01 0.00 997.2
20260505170654 0 315 6.0 10.0 0.00 0.01 0.00 997.3
20260505170644 0 270 6.0 10.0 0.00 0.01 0.00 997.2
20260505170634 0 315 6.0 10.0 0.00 0.01 0.00 997.2
20260505170604 0 315 5.0 10.0 0.00 0.01 0.00 997.2
20260505170554 0 270 5.0 10.0 0.00 0.01 0.00 997.2
20260505170544 0 270 5.0 10.0 0.00 0.01 0.00 997.1
20260505170514 0 270 6.0 10.0 0.00 0.01 0.00 997.2
20260505170504 0 315 5.0 10.0 0.00 0.01 0.00 997.2
20260505170435 0 315 5.0 10.0 0.00 0.01 0.00 997.1
20260505170425 0 270 5.0 10.0 0.00 0.01 0.00 997.2
20260505170415 0 270 6.0 10.0 0.00 0.01 0.00 997.1
20260505170355 0 315 6.0 10.0 0.00 0.01 0.00 997.1
20260505170345 0 293 6.0 10.0 0.00 0.01 0.00 997.2
20260505170335 0 293 6.0 10.0 0.00 0.01 0.00 997.1
20260505170325 0 270 6.0 10.0 0.00 0.01 0.00 997.2
20260505170315 0 315 6.0 10.0 0.00 0.01 0.00 997.1
20260505170305 0 293 5.0 10.0 0.00 0.01 0.00 997.1
20260505170255 0 270 5.0 10.0 0.00 0.01 0.00 997.1
20260505170245 0 270 4.0 10.0 0.00 0.01 0.00 997.2
20260505170235 0 315 4.0 10.0 0.00 0.01 0.00 1017.7
20260505170225 0 270 4.0 10.0 0.00 0.01 0.00 997.1
20260505170155 0 315 5.0 10.0 0.00 0.01 0.00 997.1
20260505170135 0 293 5.0 10.0 0.00 0.01 0.00 997.1
20260505170115 0 315 5.0 10.0 0.00 0.01 0.00 997.1
20260505170105 0 293 6.0 10.0 0.00 0.01 0.00 997.1
20260505170055 0 270 6.0 10.0 0.00 0.01 0.00 997.1
20260505170025 0 315 6.0 10.0 0.00 0.01 0.00 997.1
20260505170015 0 270 6.0 10.0 0.00 0.01 0.00 997.1
20260505165955 0 293 6.0 10.0 0.00 0.01 0.00 997.1
20260505165935 0 270 6.0 10.0 0.00 0.01 0.00 997.1
20260505165925 0 315 6.0 10.0 0.00 0.01 0.00 997.1
20260505165905 0 270 5.0 8.0 0.00 0.01 0.00 997.1
20260505165845 0 270 4.0 8.0 0.00 0.01 0.00 997.1
20260505165835 0 315 4.0 8.0 0.00 0.01 0.00 997.0
20260505165826 0 315 4.0 8.0 0.00 0.01 0.00 997.1
20260505165816 0 270 4.0 8.0 0.00 0.01 0.00 997.0
20260505165806 0 293 4.0 8.0 0.00 0.01 0.00 997.1
20260505165746 0 315 4.0 8.0 0.00 0.01 0.00 997.1
20260505165736 0 315 4.0 8.0 0.00 0.01 0.00 997.0
20260505165716 0 270 4.0 8.0 0.00 0.01 0.00 997.0
20260505165706 0 270 4.0 9.0 0.00 0.01 0.00 997.1
20260505165656 0 293 4.0 9.0 0.00 0.01 0.00 997.0
20260505165646 0 270 4.0 10.0 0.00 0.01 0.00 997.1
20260505165626 0 270 5.0 10.0 0.00 0.01 0.00 997.0
20260505165616 0 315 5.0 11.0 0.00 0.01 0.00 997.0
20260505165606 0 270 5.0 11.0 0.00 0.01 0.00 997.1
20260505165556 0 270 6.0 11.0 0.00 0.01 0.00 997.0
20260505165546 0 293 6.0 11.0 0.00 0.01 0.00 997.0
20260505165536 0 270 5.0 11.0 0.00 0.01 0.00 997.0
20260505165526 0 270 5.0 11.0 0.00 0.01 0.00 997.1
20260505165516 64 293 6.0 11.0 0.00 0.01 0.00 79 997.0
20260505165506 0 270 6.0 11.0 0.00 0.01 0.00 997.0
20260505165456 0 293 5.0 11.0 0.00 0.01 0.00 997.0
20260505165446 0 270 6.0 11.0 0.00 0.01 0.00 997.1
20260505165426 0 315 5.0 11.0 0.00 0.01 0.00 997.0
20260505165416 0 315 5.0 11.0 0.00 0.01 0.00 997.1
20260505165356 0 293 5.0 11.0 0.00 0.01 0.00 997.1
20260505165347 0 315 5.0 11.0 0.00 0.01 0.00 997.0
20260505165336 0 270 5.0 11.0 0.00 0.01 0.00 997.0
20260505165316 0 270 6.0 11.0 0.00 0.01 0.00 997.1
20260505165256 0 270 6.0 11.0 0.00 0.01 0.00 997.0
20260505165247 0 293 6.0 11.0 0.00 0.01 0.00 997.1
20260505165237 0 315 6.0 11.0 0.00 0.01 0.00 997.1
20260505165227 0 293 6.0 11.0 0.00 0.01 0.00 997.0
20260505165217 0 270 7.0 11.0 0.00 0.01 0.00 997.0
20260505165207 0 315 7.0 11.0 0.00 0.01 0.00 997.0
20260505165157 0 270 7.0 11.0 0.00 0.01 0.00 997.1
20260505165147 0 270 6.0 11.0 0.00 0.01 0.00 997.1
20260505165137 0 315 7.0 12.0 0.00 0.01 0.00 997.0
20260505165057 0 270 7.0 12.0 0.00 0.01 0.00 997.1
20260505165047 0 315 7.0 12.0 0.00 0.01 0.00 997.1
20260505165037 74 293 7.0 12.0 0.00 0.01 0.00 38 997.1
20260505165017 0 270 7.0 12.0 0.00 0.01 0.00 997.1
20260505165007 0 315 7.0 12.0 0.00 0.01 0.00 997.1
20260505164947 0 315 7.0 12.0 0.00 0.01 0.00 997.0
20260505164937 0 270 7.0 12.0 0.00 0.01 0.00 997.1
20260505164917 0 293 8.0 12.0 0.00 0.01 0.00 997.0
20260505164907 0 293 8.0 12.0 0.00 0.01 0.00 997.1
20260505164857 0 315 8.0 12.0 0.00 0.01 0.00 997.1
20260505164847 0 270 8.0 12.0 0.00 0.01 0.00 997.0
20260505164837 0 270 8.0 12.0 0.00 0.01 0.00 997.1
20260505164827 0 270 8.0 13.0 0.00 0.01 0.00 997.0
20260505164817 0 315 8.0 13.0 0.00 0.01 0.00 997.0
20260505164747 0 315 8.0 13.0 0.00 0.01 0.00 997.1
20260505164737 0 270 8.0 13.0 0.00 0.01 0.00 997.1
20260505164717 0 270 9.0 13.0 0.00 0.01 0.00 997.1
20260505164707 0 315 9.0 13.0 0.00 0.01 0.00 997.1
20260505164658 0 270 8.0 13.0 0.00 0.01 0.00 997.1
20260505164648 0 270 8.0 13.0 0.00 0.01 0.00 997.0
20260505164638 0 293 8.0 13.0 0.00 0.01 0.00 997.1
20260505164628 0 293 7.0 13.0 0.00 0.01 0.00 997.1
20260505164618 0 315 6.0 13.0 0.00 0.01 0.00 997.1
20260505164608 0 315 6.0 13.0 0.00 0.01 0.00 997.0
20260505164558 0 293 6.0 13.0 0.00 0.01 0.00 997.1
20260505164548 0 293 6.0 13.0 0.00 0.01 0.00 997.0
20260505164538 0 293 7.0 13.0 0.00 0.01 0.00 997.0
20260505164528 0 293 8.0 13.0 0.00 0.01 0.00 997.1
20260505164518 0 315 8.0 13.0 0.00 0.01 0.00 997.1
20260505164508 0 270 8.0 13.0 0.00 0.01 0.00 997.0
20260505164438 0 270 8.0 13.0 0.00 0.01 0.00 997.1
20260505164358 0 270 8.0 13.0 0.00 0.01 0.00 997.1
20260505164328 0 315 8.0 13.0 0.00 0.01 0.00 997.1
20260505164318 0 270 8.0 13.0 0.00 0.01 0.00 997.1
20260505164238 0 315 8.0 13.0 0.00 0.01 0.00 997.1
20260505164228 0 315 8.0 13.0 0.00 0.01 0.00 997.2
20260505164218 0 270 8.0 13.0 0.00 0.01 0.00 997.2
20260505164208 0 270 8.0 14.0 0.00 0.01 0.00 997.1
20260505164158 0 270 8.0 14.0 0.00 0.01 0.00 997.2
20260505164148 0 293 9.0 14.0 0.00 0.01 0.00 997.2
20260505164138 0 270 9.0 14.0 0.00 0.01 0.00 997.1
20260505164118 0 315 8.0 15.0 0.00 0.01 0.00 997.1
20260505164109 0 293 8.0 15.0 0.00 0.01 0.00 997.1
20260505164059 0 270 8.0 15.0 0.00 0.01 0.00 997.2
20260505164039 0 270 8.0 15.0 0.00 0.01 0.00 997.1
20260505164019 0 315 8.0 15.0 0.00 0.01 0.00 997.1
20260505164009 0 270 8.0 15.0 0.00 0.01 0.00 997.2
20260505163959 0 315 8.0 15.0 0.00 0.01 0.00 997.2
20260505163949 0 315 9.0 15.0 0.00 0.01 0.00 997.2
20260505163939 0 270 9.0 15.0 0.00 0.01 0.00 997.2
20260505163909 0 293 8.0 15.0 0.00 0.01 0.00 997.2
20260505163859 0 270 8.0 15.0 0.00 0.01 0.00 997.2
20260505163849 0 293 8.0 15.0 0.00 0.01 0.00 997.1
20260505163839 0 270 8.0 15.0 0.00 0.01 0.00 997.1
20260505163829 0 315 8.0 15.0 0.00 0.01 0.00 997.2
20260505163819 0 293 8.0 15.0 0.00 0.01 0.00 997.2
20260505163759 0 293 9.0 15.0 0.00 0.01 0.00 997.2
20260505163749 0 315 9.0 15.0 0.00 0.01 0.00 997.2
20260505163719 0 315 10.0 15.0 0.00 0.01 0.00 997.2
20260505163659 0 293 10.0 15.0 0.00 0.01 0.00 997.2
20260505163649 0 270 10.0 15.0 0.00 0.01 0.00 997.2
20260505163639 0 270 10.0 15.0 0.00 0.01 0.00 997.1
20260505163629 0 315 10.0 15.0 0.00 0.01 0.00 997.2
20260505163619 0 315 10.0 15.0 0.00 0.01 0.00 997.1
20260505163559 0 315 9.0 15.0 0.00 0.01 0.00 997.2
20260505163549 0 270 9.0 15.0 0.00 0.01 0.00 997.2
20260505163539 0 315 10.0 15.0 0.00 0.01 0.00 997.2
20260505163500 0 270 10.0 15.0 0.00 0.01 0.00 997.2
20260505163450 0 315 10.0 15.0 0.00 0.01 0.00 997.2
20260505163440 0 270 9.0 15.0 0.00 0.01 0.00 997.2
20260505163430 0 270 8.0 15.0 0.00 0.01 0.00 997.2
20260505163410 0 270 8.0 14.0 0.00 0.01 0.00 997.2
20260505163340 0 293 8.0 14.0 0.00 0.01 0.00 997.2
20260505163330 0 270 8.0 14.0 0.00 0.01 0.00 997.2
20260505163320 0 293 8.0 15.0 0.00 0.01 0.00 997.2
20260505163250 0 270 8.0 15.0 0.00 0.01 0.00 997.1
20260505163240 0 270 8.0 15.0 0.00 0.01 0.00 997.2
20260505163230 0 315 8.0 15.0 0.00 0.01 0.00 997.3
20260505163200 0 315 9.0 15.0 0.00 0.01 0.00 997.2
20260505163150 0 270 9.0 15.0 0.00 0.01 0.00 997.2
20260505163140 0 270 10.0 15.0 0.00 0.01 0.00 997.3
20260505163120 0 270 10.0 15.0 0.00 0.01 0.00 997.2
20260505163110 0 315 9.0 15.0 0.00 0.01 0.00 997.2
20260505163100 0 293 9.0 15.0 0.00 0.01 0.00 997.2
20260505163050 0 270 9.0 15.0 0.00 0.01 0.00 997.2
20260505163040 0 270 8.0 15.0 0.00 0.01 0.00 997.3
20260505163020 0 315 8.0 15.0 0.00 0.01 0.00 997.3
20260505163010 0 270 8.0 15.0 0.00 0.01 0.00 997.2
20260505162951 0 293 8.0 15.0 0.00 0.01 0.00 997.2
20260505162941 0 315 8.0 15.0 0.00 0.01 0.00 997.2
20260505162921 0 315 9.0 15.0 0.00 0.01 0.00 997.2
20260505162841 0 315 9.0 15.0 0.00 0.01 0.00 997.2
20260505162831 0 270 9.0 15.0 0.00 0.01 0.00 997.2
20260505162821 0 270 8.0 14.0 0.00 0.01 0.00 997.2
20260505162811 0 315 8.0 14.0 0.00 0.01 0.00 997.2
20260505162751 0 315 9.0 14.0 0.00 0.01 0.00 997.2
20260505162731 0 270 9.0 14.0 0.00 0.01 0.00 997.3
20260505162721 0 270 10.0 14.0 0.00 0.01 0.00 997.3
20260505162711 0 293 10.0 14.0 0.00 0.01 0.00 997.3
20260505162651 0 315 10.0 14.0 0.00 0.01 0.00 997.2
20260505162631 0 293 10.0 14.0 0.00 0.01 0.00 997.2
20260505162621 0 270 10.0 14.0 0.00 0.01 0.00 997.3
20260505162611 0 315 10.0 14.0 0.00 0.01 0.00 997.3
20260505162601 0 270 9.0 14.0 0.00 0.01 0.00 997.2
20260505162551 0 293 9.0 14.0 0.00 0.01 0.00 997.3
20260505162541 0 270 8.0 14.0 0.00 0.01 0.00 997.2
20260505162521 0 270 8.0 14.0 0.00 0.01 0.00 997.3
20260505162501 0 270 8.0 15.0 0.00 0.01 0.00 997.3
20260505162451 0 270 8.0 15.0 0.00 0.01 0.00 997.2
20260505162431 0 293 8.0 16.0 0.00 0.01 0.00 997.3
20260505162421 0 270 8.0 16.0 0.00 0.01 0.00 997.3
20260505162402 0 270 9.0 16.0 0.00 0.01 0.00 997.3
20260505162352 0 270 10.0 16.0 0.00 0.01 0.00 997.3
20260505162332 0 293 10.0 16.0 0.00 0.01 0.00 997.3
20260505162322 0 315 10.0 16.0 0.00 0.01 0.00 997.3
20260505162312 0 293 10.0 16.0 0.00 0.01 0.00 997.2
20260505162302 0 315 10.0 16.0 0.00 0.01 0.00 997.2
20260505162252 0 270 10.0 16.0 0.00 0.01 0.00 997.3
20260505162232 0 270 10.0 16.0 0.00 0.01 0.00 997.2
20260505162222 0 270 9.0 16.0 0.00 0.01 0.00 997.2
20260505162212 0 270 9.0 16.0 0.00 0.01 0.00 997.3
20260505162152 0 315 8.0 16.0 0.00 0.01 0.00 997.2
20260505162142 0 293 8.0 16.0 0.00 0.01 0.00 997.3
20260505162132 0 270 8.0 16.0 0.00 0.01 0.00 997.2
20260505162122 0 293 8.0 16.0 0.00 0.01 0.00 997.2
20260505162112 0 270 9.0 16.0 0.00 0.01 0.00 997.2
20260505162102 0 293 10.0 16.0 0.00 0.01 0.00 997.3
20260505162032 0 270 10.0 16.0 0.00 0.01 0.00 997.2
20260505162002 0 293 10.0 16.0 0.00 0.01 0.00 997.3
20260505161952 0 315 10.0 16.0 0.00 0.01 0.00 997.2
20260505161942 0 293 10.0 15.0 0.00 0.01 0.00 997.3
20260505161932 0 315 10.0 15.0 0.00 0.01 0.00 997.3
20260505161922 0 293 10.0 15.0 0.00 0.01 0.00 997.2
20260505161902 0 270 10.0 15.0 0.00 0.01 0.00 997.3
20260505161842 0 270 10.0 15.0 0.00 0.01 0.00 997.2
20260505161823 0 270 10.0 15.0 0.00 0.01 0.00 997.3
20260505161803 0 293 10.0 15.0 0.00 0.01 0.00 997.3
20260505161743 0 270 10.0 15.0 0.00 0.01 0.00 997.3
20260505161733 0 293 10.0 14.0 0.00 0.01 0.00 997.3
20260505161723 0 270 10.0 14.0 0.01 0.01 0.00 997.3
20260505161713 0 293 9.0 14.0 0.01 0.01 0.00 997.3
20260505161653 0 270 9.0 14.0 0.01 0.01 0.00 997.3
20260505161643 0 315 9.0 15.0 0.01 0.01 0.00 997.3
20260505161623 0 270 9.0 15.0 0.01 0.01 0.00 997.3
20260505161603 0 293 9.0 15.0 0.01 0.01 0.00 997.2
20260505161543 0 270 9.0 15.0 0.01 0.01 0.00 997.2
20260505161523 0 270 10.0 15.0 0.01 0.01 0.00 997.2
20260505161503 0 315 10.0 15.0 0.01 0.01 0.00 997.2
20260505161443 0 270 10.0 15.0 0.01 0.01 0.00 997.2
20260505161423 0 270 9.0 15.0 0.01 0.01 0.00 997.1
20260505161413 0 270 9.0 15.0 0.01 0.01 0.00 997.2
20260505161353 0 293 9.0 15.0 0.01 0.01 0.00 997.3
20260505161343 0 270 10.0 15.0 0.01 0.01 0.00 997.2
20260505161333 0 293 9.0 15.0 0.01 0.01 0.00 997.2
20260505161323 0 315 10.0 15.0 0.01 0.01 0.00 997.1
20260505161313 0 315 10.0 15.0 0.01 0.01 0.00 997.2
20260505161254 0 293 9.0 15.0 0.01 0.01 0.00 997.2
20260505161244 0 315 10.0 15.0 0.01 0.01 0.00 997.1
20260505161224 0 270 10.0 15.0 0.01 0.01 0.00 997.1
20260505161214 0 270 10.0 15.0 0.01 0.01 0.00 997.2
20260505161204 0 270 11.0 15.0 0.01 0.01 0.00 997.1
20260505161154 0 293 11.0 15.0 0.01 0.01 0.00 997.2
20260505161144 0 270 10.0 15.0 0.01 0.01 0.00 997.1
20260505161124 0 293 10.0 15.0 0.01 0.01 0.00 997.1
20260505161104 0 270 10.0 14.0 0.01 0.01 0.00 997.2
20260505161044 0 315 10.0 14.0 0.01 0.01 0.00 997.1
20260505161014 0 270 10.0 14.0 0.01 0.01 0.00 997.1
20260505161004 0 315 10.0 14.0 0.01 0.01 0.00 997.1
20260505160954 0 315 10.0 14.0 0.01 0.01 0.00 997.0
20260505160934 0 270 10.0 14.0 0.01 0.01 0.00 997.1
20260505160914 0 315 10.0 14.0 0.01 0.01 0.00 997.1
20260505160904 0 270 9.0 14.0 0.01 0.01 0.00 997.1
20260505160854 0 270 9.0 13.0 0.01 0.01 0.00 997.1
20260505160844 0 315 9.0 13.0 0.01 0.01 0.00 997.1
20260505160834 0 293 9.0 13.0 0.01 0.01 0.00 997.1
20260505160824 0 315 10.0 13.0 0.01 0.01 0.00 997.1
20260505160814 0 270 10.0 13.0 0.01 0.01 0.00 997.1
20260505160804 0 270 9.0 13.0 0.01 0.01 0.00 997.1
20260505160754 0 315 9.0 13.0 0.01 0.01 0.00 997.2
20260505160744 0 293 8.0 13.0 0.01 0.01 0.00 997.1
20260505160715 0 315 8.0 13.0 0.01 0.01 0.00 997.1
20260505160705 0 293 8.0 13.0 0.01 0.01 0.00 997.1
20260505160645 0 270 8.0 13.0 0.01 0.01 0.00 997.1
20260505160635 0 270 8.0 13.0 0.01 0.01 0.00 997.0
20260505160625 0 293 8.0 13.0 0.01 0.01 0.00 997.1
20260505160615 0 315 9.0 13.0 0.01 0.01 0.00 997.1
20260505160605 0 270 9.0 13.0 0.01 0.01 0.00 997.1
20260505160555 0 270 8.0 13.0 0.01 0.01 0.00 997.1
20260505160535 0 315 8.0 13.0 0.01 0.01 0.00 997.1
20260505160515 0 270 8.0 13.0 0.01 0.01 0.00 997.1
20260505160445 0 270 9.0 13.0 0.01 0.01 0.00 997.1
20260505160415 0 293 9.0 13.0 0.01 0.01 0.00 997.1
20260505160405 0 270 9.0 13.0 0.01 0.01 0.00 997.1
20260505160355 0 270 9.0 13.0 0.01 0.01 0.00 997.0
20260505160345 0 315 8.0 13.0 0.01 0.01 0.00 997.0
20260505160335 0 270 8.0 13.0 0.01 0.01 0.00 997.1
20260505160315 0 315 8.0 13.0 0.01 0.01 0.00 997.1
20260505160305 0 315 8.0 13.0 0.01 0.01 0.00 997.0
20260505160255 0 270 8.0 13.0 0.01 0.01 0.00 997.0
20260505160245 0 293 8.0 13.0 0.01 0.01 0.00 997.0
20260505160235 0 270 8.0 13.0 0.01 0.01 0.00 997.1
20260505160225 0 315 9.0 14.0 0.01 0.01 0.00 997.0
20260505160206 0 293 8.0 15.0 0.01 0.01 0.00 997.0
20260505160156 0 270 8.0 15.0 0.01 0.01 0.00 997.0
20260505160116 0 270 8.0 15.0 0.01 0.01 0.00 997.0
20260505160106 0 293 8.0 15.0 0.01 0.01 0.00 997.0
20260505153341 0 315 8.0 14.0 0.01 0.01 0.00 996.8
20260505153331 0 270 7.0 14.0 0.01 0.01 0.00 996.9
20260505153251 0 293 7.0 14.0 0.01 0.01 0.00 996.8
20260505153241 0 270 7.0 14.0 0.01 0.01 0.00 996.8
20260505153231 0 315 8.0 14.0 0.01 0.01 0.00 996.8
20260505153221 0 270 8.0 14.0 0.01 0.01 0.00 996.9
20260505153211 0 270 8.0 14.0 0.01 0.01 0.00 996.8
20260505153201 0 293 9.0 14.0 0.01 0.01 0.00 996.9
20260505153141 0 315 9.0 14.0 0.01 0.01 0.00 996.8
20260505153131 0 270 9.0 14.0 0.01 0.01 0.00 996.9
20260505153121 0 270 9.0 14.0 0.01 0.01 0.00 996.8
20260505153051 0 270 9.0 14.0 0.01 0.01 0.00 996.9
20260505153041 0 270 9.0 14.0 0.01 0.01 0.00 996.8
20260505153031 0 270 10.0 14.0 0.01 0.01 0.00 996.9
20260505153021 0 270 10.0 14.0 0.01 0.01 0.00 996.8
20260505153001 0 315 10.0 14.0 0.01 0.01 0.00 996.8
20260505152951 0 293 10.0 14.0 0.01 0.01 0.00 996.8
20260505152911 0 270 10.0 14.0 0.01 0.01 0.00 996.8
20260505152901 0 270 9.0 14.0 0.01 0.01 0.00 996.7
20260505152852 0 270 9.0 14.0 0.01 0.01 0.00 996.8
20260505152842 0 293 8.0 14.0 0.01 0.01 0.00 996.7
20260505152812 0 270 8.0 16.0 0.01 0.01 0.00 996.7
20260505152752 0 315 8.0 16.0 0.01 0.01 0.00 996.7
20260505152732 0 270 8.0 16.0 0.01 0.01 0.00 996.7
20260505152722 0 270 8.0 16.0 0.01 0.01 0.00 996.8
20260505152642 0 270 8.0 16.0 0.01 0.01 0.00 996.7
20260505152602 0 270 8.0 16.0 0.01 0.01 0.00 996.7
20260505152552 0 270 8.0 16.0 0.01 0.01 0.00 996.8
20260505152522 0 270 8.0 16.0 0.01 0.01 0.00 996.7
20260505152442 0 270 8.0 16.0 0.01 0.01 0.00 996.7
20260505152432 0 315 8.0 16.0 0.01 0.01 0.00 996.7
20260505152352 0 270 9.0 16.0 0.01 0.01 0.00 996.7
20260505152342 0 315 10.0 16.0 0.01 0.01 0.00 996.7
20260505152313 0 270 9.0 16.0 0.01 0.01 0.00 996.7
20260505152305 0 270 9.0 16.0 0.01 0.01 0.00 996.8
20260505152253 0 293 9.0 16.0 0.01 0.01 0.00 996.6
20260505152233 0 270 8.0 11.0 0.01 0.01 0.00 996.7
20260505152223 0 315 8.0 11.0 0.01 0.01 0.00 996.7
20260505152153 0 270 8.0 11.0 0.01 0.01 0.00 996.7
20260505152143 0 315 7.0 11.0 0.01 0.01 0.00 996.7
20260505152133 0 270 7.0 11.0 0.01 0.01 0.00 996.6
20260505152123 0 270 6.0 10.0 0.01 0.01 0.00 996.7
20260505152043 0 270 6.0 10.0 0.01 0.01 0.00 996.7
20260505152023 0 270 5.0 10.0 0.01 0.01 0.00 996.7
20260505152003 0 270 4.0 10.0 0.01 0.01 0.00 996.7
20260505151953 0 248 4.0 10.0 0.01 0.01 0.00 996.7
20260505151933 0 270 3.0 10.0 0.01 0.01 0.00 996.7
20260505151853 0 270 4.0 10.0 0.01 0.01 0.00 996.7
20260505151843 0 315 4.0 10.0 0.01 0.01 0.00 996.7
20260505151833 0 270 5.0 10.0 0.01 0.01 0.00 996.7
20260505151803 0 270 6.0 10.0 0.01 0.01 0.00 996.7
20260505151743 0 315 6.0 10.0 0.01 0.01 0.00 996.7
20260505151724 0 315 6.0 10.0 0.00 0.00 0.00 996.6
20260505151714 0 270 6.0 10.0 0.00 0.00 0.00 996.7
20260505151654 0 0 6.0 10.0 0.00 0.00 0.00 996.7
20260505151634 0 315 6.0 10.0 0.00 0.00 0.00 996.7
20260505151624 0 270 6.0 10.0 0.00 0.00 0.00 996.7
20260505151544 0 315 6.0 10.0 0.00 0.00 0.00 996.7
20260505151524 0 315 6.0 10.0 0.00 0.00 0.00 996.8
20260505151514 0 315 5.0 10.0 0.00 0.00 0.00 996.8
20260505151504 0 0 5.0 10.0 0.00 0.00 0.00 996.8
20260505151434 0 338 4.0 10.0 0.00 0.00 0.00 996.8
20260505151424 0 315 4.0 10.0 0.00 0.00 0.00 996.8
20260505151344 0 315 5.0 10.0 0.00 0.00 0.00 996.8
20260505151334 0 315 6.0 10.0 0.00 0.00 0.00 996.9
20260505151324 0 293 6.0 10.0 0.00 0.00 0.00 996.8
20260505151304 0 0 6.0 10.0 0.00 0.00 0.00 996.9
20260505151254 0 315 6.0 10.0 0.00 0.00 0.00 997.0
20260505151234 0 0 6.0 10.0 0.00 0.00 0.00 997.0
20260505151224 0 315 6.0 9.0 0.00 0.00 0.00 997.0
20260505151204 0 315 5.0 9.0 0.00 0.00 0.00 997.0
20260505151154 0 315 5.0 8.0 0.00 0.00 0.00 997.0
20260505151145 0 315 4.0 8.0 0.00 0.00 0.00 997.0
20260505151115 0 315 4.0 8.0 0.00 0.00 0.00 997.1
20260505151105 0 315 4.0 8.0 0.00 0.00 0.00 997.2
20260505151025 0 315 4.0 8.0 0.00 0.00 0.00 997.2
20260505151015 0 0 4.0 8.0 0.00 0.00 0.00 997.2
20260505151005 0 315 5.0 8.0 0.00 0.00 0.00 997.3
20260505150925 0 315 4.0 8.0 0.00 0.00 0.00 997.3
20260505150915 0 315 4.0 8.0 0.00 0.00 0.00 997.4
20260505150905 0 315 3.0 7.0 0.00 0.00 0.00 997.4
20260505150855 0 338 3.0 7.0 0.00 0.00 0.00 997.4
20260505150845 0 315 3.0 8.0 0.00 0.00 0.00 997.4
20260505150815 0 0 3.0 8.0 0.00 0.00 0.00 997.4
20260505150805 0 315 3.0 8.0 0.00 0.00 0.00 997.5
20260505150755 0 270 2.0 8.0 0.00 0.00 0.00 997.5
20260505150745 0 315 2.0 8.0 0.00 0.00 0.00 997.5
20260505150735 0 315 2.0 10.0 0.00 0.00 0.00 997.5
20260505150725 0 315 2.0 11.0 0.00 0.00 0.00 997.5
20260505150715 0 315 2.0 13.0 0.00 0.00 0.00 997.6
20260505150705 0 315 2.0 14.0 0.00 0.00 0.00 997.6
20260505150655 0 0 2.0 14.0 0.00 0.00 0.00 997.6
20260505150635 0 315 2.0 16.0 0.00 0.00 0.00 997.6
20260505150616 0 0 2.0 16.0 0.00 0.00 0.00 997.6
20260505150606 0 45 2.0 16.0 0.00 0.00 0.00 997.5
20260505150556 0 338 2.0 16.0 0.00 0.00 0.00 997.6
20260505150546 0 293 2.0 16.0 0.00 0.00 0.00 997.6
20260505150536 0 315 3.0 16.0 0.00 0.00 0.00 997.6
20260505150526 0 0 3.0 16.0 0.00 0.00 0.00 997.6
20260505150516 0 315 4.0 16.0 0.00 0.00 0.00 997.6
20260505150506 0 338 4.0 16.0 0.00 0.00 0.00 997.6
20260505150456 0 338 4.0 16.0 0.00 0.00 0.00 997.5
20260505150446 0 293 5.0 16.0 0.00 0.00 0.00 997.5
20260505150436 0 315 5.0 16.0 0.00 0.00 0.00 997.5
20260505150426 0 293 6.0 16.0 0.00 0.00 0.00 997.6
20260505150356 0 315 6.0 16.0 0.00 0.00 0.00 997.6
20260505150336 0 315 6.0 16.0 0.00 0.00 0.00 997.5
20260505150326 0 270 7.0 16.0 0.00 0.00 0.00 997.6
20260505150316 0 293 8.0 16.0 0.00 0.00 0.00 997.5
20260505150306 0 270 9.0 16.0 0.00 0.00 0.00 997.5
20260505150256 0 293 10.0 16.0 0.00 0.00 0.00 997.5
20260505150246 0 315 10.0 16.0 0.00 0.00 0.00 997.5
20260505150226 0 315 12.0 16.0 0.00 0.00 0.00 997.5
20260505150216 0 315 12.0 16.0 0.00 0.00 0.00 997.4
20260505150206 0 315 11.0 16.0 0.00 0.00 0.00 997.5
20260505150156 0 293 10.0 16.0 0.00 0.00 0.00 997.4
20260505150146 0 270 10.0 16.0 0.00 0.00 0.00 997.4
20260505150136 0 270 9.0 16.0 0.00 0.00 0.00 997.5
20260505150116 0 293 9.0 17.0 0.00 0.00 0.00 997.5
20260505140626 78 225 3.0 5.0 0.00 0.00 0.00 32 996.4
20260505140556 78 225 2.0 5.0 0.00 0.00 0.00 32 996.4
20260505140526 79 225 2.0 5.0 0.00 0.00 0.00 32 996.4
20260505140516 79 180 2.0 5.0 0.00 0.00 0.00 32 996.4
20260505140507 79 225 2.0 5.0 0.00 0.00 0.00 32 996.3
20260505140447 0 203 2.0 5.0 0.00 0.00 0.00 996.4
20260505140437 0 225 2.0 5.0 0.00 0.00 0.00 996.4
20260505140427 79 225 2.0 5.0 0.00 0.00 0.00 32 996.4
20260505140407 79 135 2.0 5.0 0.00 0.00 0.00 32 996.4
20260505140347 79 180 2.0 5.0 0.00 0.00 0.00 31 996.4
20260505140337 79 225 2.0 5.0 0.00 0.00 0.00 31 996.4
20260505140317 0 225 2.0 5.0 0.00 0.00 0.00 996.4
20260505140307 79 180 2.0 5.0 0.00 0.00 0.00 31 996.4
20260505140257 0 270 2.0 5.0 0.00 0.00 0.00 996.4
20260505140247 79 203 2.0 5.0 0.00 0.00 0.00 31 996.4
20260505140237 0 180 2.0 6.0 0.00 0.00 0.00 996.4
20260505140227 79 180 2.0 7.0 0.00 0.00 0.00 31 996.4
20260505140217 79 225 2.0 7.0 0.00 0.00 0.00 31 996.4
20260505140157 0 135 2.0 7.0 0.00 0.00 0.00 996.4
20260505140137 79 135 2.0 7.0 0.00 0.00 0.00 31 996.4
20260505140127 0 180 2.0 7.0 0.00 0.00 0.00 996.4
20260505140117 79 180 2.0 7.0 0.00 0.00 0.00 31 996.4
20260505140107 79 113 2.0 7.0 0.00 0.00 0.00 31 996.4
20260505130309 85 225 2.0 7.0 0.00 0.00 0.00 28 996.9
20260505130259 0 180 1.0 7.0 0.00 0.00 0.00 996.9
20260505130239 85 180 1.0 7.0 0.00 0.00 0.00 28 996.9
20260505130229 0 270 2.0 7.0 0.00 0.00 0.00 996.9
20260505130219 85 225 2.0 7.0 0.00 0.00 0.00 29 996.9
20260505130209 84 135 2.0 7.0 0.00 0.00 0.00 29 996.9
20260505130149 84 180 3.0 7.0 0.00 0.00 0.00 29 996.9
20260505130139 84 180 4.0 7.0 0.00 0.00 0.00 29 996.9
20260505130109 84 158 4.0 7.0 0.00 0.00 0.00 29 996.9
20260505125041 84 180 4.0 8.0 0.00 0.00 0.00 28 997.0
20260505125031 84 180 3.0 8.0 0.00 0.00 0.00 29 997.0
20260505125021 0 180 3.0 8.0 0.00 0.00 0.00 997.0
20260505125011 0 225 2.0 8.0 0.00 0.00 0.00 997.0
20260505125001 85 158 3.0 8.0 0.00 0.00 0.00 29 997.0
20260505124951 85 270 3.0 8.0 0.00 0.00 0.00 29 997.0
20260505124941 85 203 3.0 8.0 0.00 0.00 0.00 29 997.0
20260505124932 85 203 4.0 8.0 0.00 0.00 0.00 29 997.0
20260505124911 85 225 3.0 8.0 0.00 0.00 0.00 29 997.0
20260505124901 0 225 2.0 8.0 0.00 0.00 0.00 997.0
20260505124852 85 180 2.0 8.0 0.00 0.00 0.00 29 997.0
20260505124842 85 203 2.0 8.0 0.00 0.00 0.00 29 997.0
20260505124832 85 180 1.0 8.0 0.00 0.00 0.00 29 997.0
20260505124822 85 225 1.0 8.0 0.00 0.00 0.00 29 997.0
20260505124812 85 180 1.0 8.0 0.00 0.00 0.00 29 997.1
20260505124752 0 180 1.0 8.0 0.00 0.00 0.00 997.1
20260505124742 85 180 1.0 8.0 0.00 0.00 0.00 29 997.0
20260505124732 85 135 2.0 8.0 0.00 0.00 0.00 29 997.1
20260505124722 85 135 2.0 8.0 0.00 0.00 0.00 29 997.0
20260505124702 0 135 2.0 8.0 0.00 0.00 0.00 997.0
20260505124652 84 135 2.0 8.0 0.00 0.00 0.00 29 997.1
20260505124642 84 135 2.0 8.0 0.00 0.00 0.00 29 997.0
20260505124632 84 90 2.0 8.0 0.00 0.00 0.00 29 997.1
20260505124622 84 113 3.0 8.0 0.00 0.00 0.00 29 997.0
20260505124602 84 135 3.0 8.0 0.00 0.00 0.00 29 997.0
20260505124552 84 135 2.0 8.0 0.00 0.00 0.00 29 997.0
20260505124542 84 113 2.0 8.0 0.00 0.00 0.00 29 997.0
20260505124532 84 90 3.0 8.0 0.00 0.00 0.00 29 997.0
20260505124522 0 135 3.0 8.0 0.00 0.00 0.00 997.0
20260505124502 84 90 4.0 8.0 0.00 0.00 0.00 29 997.0
20260505124452 84 135 4.0 8.0 0.00 0.00 0.00 29 997.0
20260505124442 84 90 5.0 8.0 0.00 0.00 0.00 28 997.0
20260505124432 84 135 5.0 8.0 0.00 0.00 0.00 28 997.0
20260505124422 85 135 4.0 8.0 0.00 0.00 0.00 28 997.1
20260505124412 0 135 4.0 8.0 0.00 0.00 0.00 997.0
20260505124402 86 135 3.0 7.0 0.00 0.00 0.00 28 997.0
20260505124353 86 135 2.0 7.0 0.00 0.00 0.00 28 997.1
20260505124333 86 90 2.0 6.0 0.00 0.00 0.00 28 997.1
20260505124323 86 135 2.0 6.0 0.00 0.00 0.00 28 997.1
20260505124313 85 135 2.0 6.0 0.00 0.00 0.00 29 997.1
20260505124243 85 90 2.0 6.0 0.00 0.00 0.00 29 997.1
20260505124233 0 113 2.0 6.0 0.00 0.00 0.00 997.1
20260505124223 0 90 2.0 6.0 0.00 0.00 0.00 997.1
20260505124203 85 90 2.0 6.0 0.00 0.00 0.00 29 997.1
20260505124153 84 135 2.0 6.0 0.00 0.00 0.00 29 997.1
20260505124143 84 135 3.0 6.0 0.00 0.00 0.00 29 997.1
20260505124133 84 135 3.0 6.0 0.00 0.00 0.00 28 997.1
20260505124123 84 135 4.0 6.0 0.00 0.00 0.00 28 997.1
20260505124113 84 135 3.0 6.0 0.00 0.00 0.00 28 997.2
20260505124103 85 135 3.0 6.0 0.00 0.00 0.00 28 997.1
20260505124043 85 135 2.0 6.0 0.00 0.00 0.00 28 997.1
20260505124023 85 135 2.0 5.0 0.00 0.00 0.00 28 997.1
20260505124013 85 135 2.0 6.0 0.00 0.00 0.00 28 997.2
20260505123953 84 135 2.0 8.0 0.00 0.00 0.00 28 997.1
20260505123933 0 135 3.0 8.0 0.00 0.00 0.00 997.1
20260505123923 84 135 3.0 8.0 0.00 0.00 0.00 28 997.1
20260505123854 84 135 4.0 11.0 0.00 0.00 0.00 28 997.1
20260505123843 84 135 3.0 11.0 0.00 0.00 0.00 28 997.2
20260505123834 84 135 3.0 11.0 0.00 0.00 0.00 28 997.1
20260505123824 85 135 3.0 11.0 0.00 0.00 0.00 28 997.1
20260505123814 85 135 2.0 11.0 0.00 0.00 0.00 28 997.1
20260505123804 85 135 2.0 11.0 0.00 0.00 0.00 29 997.2
20260505123754 0 135 2.0 11.0 0.00 0.00 0.00 997.2
20260505123724 84 135 2.0 11.0 0.00 0.00 0.00 29 997.1
20260505123704 84 180 2.0 11.0 0.00 0.00 0.00 29 997.1
20260505123644 84 180 2.0 11.0 0.00 0.00 0.00 28 997.1
20260505123624 84 180 3.0 11.0 0.00 0.00 0.00 28 997.1
20260505123614 84 203 4.0 11.0 0.00 0.00 0.00 29 997.1
20260505123604 0 293 4.0 11.0 0.00 0.00 0.00 997.1
20260505123554 84 180 4.0 11.0 0.00 0.00 0.00 28 997.1
20260505123534 84 180 5.0 11.0 0.00 0.00 0.00 28 997.1
20260505123514 84 180 6.0 11.0 0.00 0.00 0.00 28 997.2
20260505123454 85 180 7.0 11.0 0.00 0.00 0.00 27 997.1
20260505123444 85 180 6.0 11.0 0.00 0.00 0.00 27 997.1
20260505123434 86 180 6.0 11.0 0.00 0.00 0.00 27 997.1
20260505123424 86 180 5.0 11.0 0.00 0.00 0.00 26 997.2
20260505123414 87 180 4.0 11.0 0.00 0.00 0.00 26 997.1
20260505123404 87 180 3.0 10.0 0.00 0.00 0.00 27 997.1
20260505123355 87 293 3.0 5.0 0.00 0.00 0.00 27 997.1
20260505123345 87 225 3.0 5.0 0.00 0.00 0.00 27 997.1
20260505123335 87 180 3.0 6.0 0.00 0.00 0.00 27 997.1
20260505123325 87 180 2.0 6.0 0.00 0.00 0.00 27 997.1
20260505123315 88 225 2.0 6.0 0.00 0.00 0.00 27 997.1
20260505123255 88 180 2.0 6.0 0.00 0.00 0.00 27 997.1
20260505123245 88 225 0.0 7.0 0.00 0.00 0.00 27 997.1
20260505123235 87 180 0.0 7.0 0.00 0.00 0.00 27 997.1
20260505123225 0 225 0.0 7.0 0.00 0.00 0.00 997.1
20260505123215 87 135 0.0 8.0 0.00 0.00 0.00 28 997.1
20260505123205 87 180 0.0 8.0 0.00 0.00 0.00 28 997.1
20260505123155 86 180 0.0 8.0 0.00 0.00 0.00 28 997.1
20260505123145 86 135 2.0 8.0 0.00 0.00 0.00 28 997.1
20260505123135 86 135 2.0 9.0 0.00 0.00 0.00 28 997.1
20260505123125 86 225 3.0 9.0 0.00 0.00 0.00 28 997.1
20260505123115 85 203 3.0 9.0 0.00 0.00 0.00 28 997.2
20260505123105 85 270 3.0 9.0 0.00 0.00 0.00 28 997.1
20260505123055 85 180 3.0 9.0 0.00 0.00 0.00 28 997.1
20260505123045 85 180 2.0 9.0 0.00 0.00 0.00 28 997.1
20260505123015 85 158 2.0 9.0 0.00 0.00 0.00 28 997.2
20260505123005 85 180 2.0 9.0 0.00 0.00 0.00 28 997.1
20260505122955 85 180 3.0 9.0 0.00 0.00 0.00 28 997.1
20260505122935 85 180 3.0 10.0 0.00 0.00 0.00 28 997.1
20260505122925 85 180 3.0 11.0 0.00 0.00 0.00 28 997.2
20260505122906 84 135 4.0 11.0 0.00 0.00 0.00 28 997.1
20260505122856 84 180 4.0 11.0 0.00 0.00 0.00 28 997.1
20260505122826 84 180 5.0 11.0 0.00 0.00 0.00 29 997.2
20260505122816 84 180 5.0 11.0 0.00 0.00 0.00 29 997.1
20260505122756 84 180 6.0 11.0 0.00 0.00 0.00 29 997.1
20260505122736 84 158 6.0 11.0 0.00 0.00 0.00 28 997.1
20260505122716 84 180 6.0 11.0 0.00 0.00 0.00 28 997.1
20260505122706 84 180 6.0 11.0 0.00 0.00 0.00 28 997.2
20260505122656 84 180 6.0 11.0 0.00 0.00 0.00 29 997.1
20260505122616 84 180 6.0 11.0 0.00 0.00 0.00 28 997.1
20260505122606 84 135 6.0 11.0 0.00 0.00 0.00 28 997.1
20260505122556 0 158 6.0 11.0 0.00 0.00 0.00 997.1
20260505122536 84 180 6.0 11.0 0.00 0.00 0.00 28 997.1
20260505122526 84 158 7.0 11.0 0.00 0.00 0.00 28 997.1
20260505122516 84 158 8.0 11.0 0.00 0.00 0.00 28 997.1
20260505122456 84 180 8.0 11.0 0.00 0.00 0.00 28 997.1
20260505122446 85 180 8.0 11.0 0.00 0.00 0.00 27 997.0
20260505122417 85 180 7.0 11.0 0.00 0.00 0.00 27 997.1
20260505122406 85 180 8.0 11.0 0.00 0.00 0.00 27 997.1
20260505122356 0 180 8.0 11.0 0.00 0.00 0.00 997.1
20260505122346 86 180 7.0 11.0 0.00 0.00 0.00 27 997.1
20260505122336 86 180 8.0 11.0 0.00 0.00 0.00 27 997.1
20260505122327 86 180 8.0 11.0 0.00 0.00 0.00 26 997.0
20260505122317 87 180 7.0 11.0 0.00 0.00 0.00 26 997.1
20260505122307 87 180 6.0 11.0 0.00 0.00 0.00 26 997.1
20260505122257 88 180 6.0 11.0 0.00 0.00 0.00 26 997.1
20260505122247 88 158 4.0 11.0 0.00 0.00 0.00 26 997.1
20260505122237 88 180 3.0 11.0 0.00 0.00 0.00 26 997.2
20260505122227 0 180 2.0 8.0 0.00 0.00 0.00 997.1
20260505122217 0 203 1.0 8.0 0.00 0.00 0.00 997.1
20260505122207 88 203 1.0 8.0 0.00 0.00 0.00 26 997.2
20260505122147 0 225 2.0 8.0 0.00 0.00 0.00 997.2
20260505122137 87 45 2.0 8.0 0.00 0.00 0.00 26 997.2
20260505122127 87 135 3.0 8.0 0.00 0.00 0.00 26 997.1
20260505122107 87 180 4.0 8.0 0.00 0.00 0.00 26 997.1
20260505122047 87 203 4.0 8.0 0.00 0.00 0.00 26 997.1
20260505122037 87 203 4.0 8.0 0.00 0.00 0.00 25 997.2
20260505122027 87 180 4.0 8.0 0.00 0.00 0.00 26 997.1
20260505122017 87 180 2.0 8.0 0.00 0.00 0.00 26 997.1
20260505122007 87 225 2.0 9.0 0.00 0.00 0.00 26 997.1
20260505121957 87 180 2.0 9.0 0.00 0.00 0.00 26 997.2
20260505121947 87 180 1.0 9.0 0.00 0.00 0.00 27 997.2
20260505121927 87 135 2.0 9.0 0.00 0.00 0.00 27 997.1
20260505121907 87 90 2.0 9.0 0.00 0.00 0.00 27 997.2
20260505121847 86 90 2.0 9.0 0.00 0.00 0.00 28 997.2
20260505121828 86 90 2.0 9.0 0.00 0.00 0.00 27 997.2
20260505121818 85 90 2.0 9.0 0.00 0.00 0.00 28 997.2
20260505121807 85 90 2.0 9.0 0.00 0.00 0.00 28 997.1
20260505121758 85 90 2.0 9.0 0.00 0.00 0.00 27 997.1
20260505121748 85 90 3.0 9.0 0.00 0.00 0.00 28 997.2
20260505121738 84 68 4.0 9.0 0.00 0.00 0.00 28 997.1
20260505121728 84 90 4.0 9.0 0.00 0.00 0.00 28 997.2
20260505121718 84 90 4.0 9.0 0.00 0.00 0.00 28 997.1
20260505121658 84 113 4.0 9.0 0.00 0.00 0.00 28 997.1
20260505121648 84 135 4.0 9.0 0.00 0.00 0.00 28 997.1
20260505121628 84 90 5.0 9.0 0.00 0.00 0.00 28 997.1
20260505121618 84 135 6.0 9.0 0.00 0.00 0.00 27 997.1
20260505121608 0 135 6.0 9.0 0.00 0.00 0.00 997.1
20260505121558 84 135 6.0 9.0 0.00 0.00 0.00 28 997.1
20260505121548 85 135 6.0 9.0 0.00 0.00 0.00 27 997.2
20260505121538 85 135 6.0 9.0 0.00 0.00 0.00 28 997.1
20260505121518 85 135 6.0 9.0 0.00 0.00 0.00 28 997.2
20260505121508 86 135 6.0 9.0 0.00 0.00 0.00 29 997.2
20260505121458 86 135 6.0 9.0 0.00 0.00 0.00 28 997.2
20260505121448 86 158 6.0 9.0 0.00 0.00 0.00 27 997.2
20260505121438 86 180 6.0 9.0 0.00 0.00 0.00 27 997.1
20260505121428 86 158 6.0 9.0 0.00 0.00 0.00 27 997.1
20260505121408 86 135 6.0 9.0 0.00 0.00 0.00 26 997.1
20260505121358 87 135 6.0 8.0 0.00 0.00 0.00 26 997.1
20260505121348 87 158 5.0 8.0 0.00 0.00 0.00 26 997.1
20260505121338 87 180 5.0 8.0 0.00 0.00 0.00 25 997.1
20260505121328 87 180 4.0 8.0 0.00 0.00 0.00 25 997.2
20260505121318 87 135 4.0 8.0 0.00 0.00 0.00 24 997.2
20260505121249 88 158 4.0 8.0 0.00 0.00 0.00 25 997.2
20260505121239 88 135 4.0 8.0 0.00 0.00 0.00 24 997.2
20260505121229 88 180 4.0 8.0 0.00 0.00 0.00 24 997.1
20260505121219 89 135 4.0 8.0 0.00 0.00 0.00 24 997.2
20260505121209 89 180 3.0 8.0 0.00 0.00 0.00 24 997.1
20260505121159 89 180 2.0 8.0 0.00 0.00 0.00 24 997.1
20260505121149 90 180 2.0 8.0 0.00 0.00 0.00 25 997.2
20260505121139 90 180 1.0 7.0 0.00 0.00 0.00 25 997.1
20260505121129 89 135 1.0 5.0 0.00 0.00 0.00 25 997.1
20260505121119 89 45 1.0 5.0 0.00 0.00 0.00 25 997.2
20260505121109 89 180 1.0 5.0 0.00 0.00 0.00 25 997.2
20260505121059 89 225 1.0 5.0 0.00 0.00 0.00 25 997.2
20260505121049 89 270 0.0 5.0 0.00 0.00 0.00 25 997.2
20260505121029 89 225 0.0 5.0 0.00 0.00 0.00 25 997.2
20260505121019 88 180 1.0 5.0 0.00 0.00 0.00 24 997.2
20260505121009 88 225 1.0 5.0 0.00 0.00 0.00 24 997.2
20260505120959 88 180 1.0 5.0 0.00 0.00 0.00 24 997.1
20260505120949 88 225 2.0 7.0 0.00 0.00 0.00 24 997.2
20260505120939 88 180 2.0 7.0 0.00 0.00 0.00 24 997.2
20260505120919 89 225 2.0 7.0 0.00 0.00 0.00 24 997.2
20260505120859 89 180 3.0 7.0 0.00 0.00 0.00 24 997.2
20260505120849 89 225 3.0 7.0 0.00 0.00 0.00 24 997.2
20260505120839 89 248 2.0 7.0 0.00 0.00 0.00 24 997.2
20260505120829 90 225 2.0 7.0 0.00 0.00 0.00 24 997.2
20260505120819 90 225 1.0 7.0 0.00 0.00 0.00 24 997.1
20260505120810 90 270 0.0 7.0 0.00 0.00 0.00 24 997.2
20260505120800 90 225 0.0 7.0 0.00 0.00 0.00 25 997.1
20260505120750 89 270 0.0 7.0 0.00 0.00 0.00 25 997.2
20260505120740 89 135 0.0 7.0 0.00 0.00 0.00 25 997.2
20260505120730 89 90 0.0 7.0 0.00 0.00 0.00 25 997.2
20260505120710 88 180 1.0 7.0 0.00 0.00 0.00 25 997.2
20260505120700 88 203 2.0 7.0 0.00 0.00 0.00 25 997.2
20260505120650 88 315 2.0 7.0 0.00 0.00 0.00 25 997.2
20260505120640 87 225 3.0 7.0 0.00 0.00 0.00 25 997.2
20260505120620 87 270 3.0 7.0 0.00 0.00 0.00 25 997.2
20260505120610 87 225 4.0 7.0 0.00 0.00 0.00 24 997.2
20260505120530 88 270 4.0 7.0 0.00 0.00 0.00 24 997.2
20260505120520 89 270 4.0 7.0 0.00 0.00 0.00 24 997.2
20260505120500 89 270 3.0 7.0 0.00 0.00 0.00 24 997.2
20260505120440 89 270 2.0 7.0 0.00 0.00 0.00 25 997.2
20260505120430 89 180 2.0 7.0 0.00 0.00 0.00 25 997.2
20260505120420 88 180 2.0 7.0 0.00 0.00 0.00 25 997.2
20260505120400 88 180 3.0 7.0 0.00 0.00 0.00 25 997.2
20260505120330 88 270 3.0 7.0 0.00 0.00 0.00 24 997.2
20260505120320 88 248 2.0 7.0 0.00 0.00 0.00 25 997.2
20260505120310 88 135 2.0 5.0 0.00 0.00 0.00 25 997.2
20260505120301 88 203 2.0 5.0 0.00 0.00 0.00 25 997.2
20260505120251 88 270 2.0 5.0 0.00 0.00 0.00 24 997.2
20260505120221 88 180 3.0 5.0 0.00 0.00 0.00 24 997.2
20260505120211 88 225 3.0 5.0 0.00 0.00 0.00 24 997.2
20260505120201 88 270 3.0 5.0 0.00 0.00 0.00 24 997.2
20260505120151 88 225 2.0 5.0 0.00 0.00 0.00 25 997.2
20260505120111 88 180 2.0 5.0 0.00 0.00 0.00 25 997.2
20260505120031 88 225 2.0 5.0 0.00 0.00 0.00 25 997.2
20260505120021 88 270 2.0 5.0 0.00 0.00 0.00 25 997.2
20260505120011 88 203 2.0 5.0 0.00 0.00 0.00 25 997.2
20260505115951 88 225 2.0 5.0 0.00 0.00 0.00 25 997.2
20260505115931 88 270 2.0 5.0 0.00 0.00 0.00 25 997.2
20260505115921 88 270 2.0 5.0 0.00 0.00 0.00 24 997.2
20260505115901 88 270 3.0 5.0 0.00 0.00 0.00 24 997.2
20260505115841 88 270 4.0 5.0 0.00 0.00 0.00 24 997.2
20260505115821 89 270 4.0 5.0 0.00 0.00 0.00 23 997.2
20260505115811 90 270 3.0 5.0 0.00 0.00 0.00 23 997.2
20260505115751 90 270 2.0 5.0 0.00 0.00 0.00 23 997.2
20260505115742 91 293 1.0 5.0 0.00 0.00 0.00 23 997.2
20260505115722 91 270 1.0 4.0 0.00 0.00 0.00 23 997.2
20260505115712 90 270 1.0 4.0 0.00 0.00 0.00 23 997.2
20260505115702 90 315 1.0 4.0 0.00 0.00 0.00 23 997.2
20260505115632 90 315 2.0 4.0 0.00 0.00 0.00 23 997.2
20260505115622 0 270 2.0 4.0 0.00 0.00 0.00 997.2
20260505115612 91 315 2.0 4.0 0.00 0.00 0.00 23 997.2
20260505115602 91 270 2.0 4.0 0.00 0.00 0.00 23 997.2
20260505115552 91 180 1.0 4.0 0.00 0.00 0.00 23 997.2
20260505115542 91 270 1.0 4.0 0.00 0.00 0.00 23 997.2
20260505115532 91 315 0.0 4.0 0.00 0.00 0.00 23 997.2
20260505115512 91 270 0.0 4.0 0.00 0.00 0.00 23 997.2
20260505115502 91 315 0.0 4.0 0.00 0.00 0.00 24 997.2
20260505115442 91 90 1.0 4.0 0.00 0.00 0.00 24 997.2
20260505115432 90 113 1.0 4.0 0.00 0.00 0.00 24 997.2
20260505115412 90 180 2.0 4.0 0.00 0.00 0.00 24 997.2
20260505115402 90 180 2.0 4.0 0.00 0.00 0.00 25 997.2
20260505115332 90 135 2.0 5.0 0.00 0.00 0.00 25 997.2
20260505115322 90 135 2.0 5.0 0.00 0.00 0.00 25 997.3
20260505115312 90 135 2.0 6.0 0.00 0.00 0.00 25 997.2
20260505115304 89 135 1.0 7.0 0.00 0.00 0.00 25 997.2
20260505115253 89 135 1.0 7.0 0.00 0.00 0.00 24 997.3
20260505115243 89 158 1.0 7.0 0.00 0.00 0.00 24 997.2
20260505115233 89 180 1.0 7.0 0.00 0.00 0.00 24 997.3
20260505115223 89 135 2.0 7.0 0.00 0.00 0.00 24 997.2
20260505115203 89 180 2.0 7.0 0.00 0.00 0.00 24 997.3
20260505115153 88 180 2.0 7.0 0.00 0.00 0.00 24 997.3
20260505115123 88 203 2.0 7.0 0.00 0.00 0.00 24 997.3
20260505115113 88 180 2.0 7.0 0.00 0.00 0.00 24 997.3
20260505115053 88 180 2.0 7.0 0.00 0.00 0.00 25 997.3
20260505115043 87 180 2.0 7.0 0.00 0.00 0.00 25 997.3
20260505115023 87 225 2.0 7.0 0.00 0.00 0.00 25 997.3
20260505115003 87 180 2.0 7.0 0.00 0.00 0.00 25 997.3
20260505114943 86 158 2.0 7.0 0.00 0.00 0.00 25 997.3
20260505114923 86 225 3.0 7.0 0.00 0.00 0.00 25 997.3
20260505114913 86 180 4.0 7.0 0.00 0.00 0.00 25 997.3
20260505114853 86 135 4.0 7.0 0.00 0.00 0.00 25 997.3
20260505114843 86 135 4.0 7.0 0.00 0.00 0.00 24 997.3
20260505114833 86 158 4.0 7.0 0.00 0.00 0.00 25 997.3
20260505114813 86 180 4.0 7.0 0.00 0.00 0.00 25 997.3
20260505114803 86 158 3.0 7.0 0.00 0.00 0.00 25 997.3
20260505114754 86 180 3.0 7.0 0.00 0.00 0.00 25 997.3
20260505114743 86 158 3.0 7.0 0.00 0.00 0.00 26 997.4
20260505114734 86 180 3.0 7.0 0.00 0.00 0.00 26 997.3
20260505114724 86 180 3.0 7.0 0.00 0.00 0.00 27 997.4
20260505114714 86 225 3.0 7.0 0.00 0.00 0.00 27 997.4
20260505114704 85 225 4.0 7.0 0.00 0.00 0.00 27 997.4
20260505114654 85 180 4.0 7.0 0.00 0.00 0.00 26 997.4
20260505114634 85 225 4.0 7.0 0.00 0.00 0.00 26 997.4
20260505114624 85 270 4.0 7.0 0.00 0.00 0.00 26 997.4
20260505114614 85 0 4.0 7.0 0.00 0.00 0.00 26 997.4
20260505114604 85 225 4.0 7.0 0.00 0.00 0.00 25 997.4
20260505114554 86 270 5.0 7.0 0.00 0.00 0.00 25 997.4
20260505114524 86 225 5.0 7.0 0.00 0.00 0.00 26 997.4
20260505114514 86 270 4.0 7.0 0.00 0.00 0.00 25 997.4
20260505114504 86 225 4.0 7.0 0.00 0.00 0.00 25 997.4
20260505114454 86 248 4.0 7.0 0.00 0.00 0.00 25 997.4
20260505114444 86 225 4.0 6.0 0.00 0.00 0.00 26 997.4
20260505114434 86 270 4.0 6.0 0.00 0.00 0.00 25 997.4
20260505114424 86 270 4.0 5.0 0.00 0.00 0.00 25 997.4
20260505114354 86 225 3.0 5.0 0.00 0.00 0.00 25 997.4
20260505114334 87 225 2.0 5.0 0.00 0.00 0.00 25 997.4
20260505114254 87 225 2.0 5.0 0.00 0.00 0.00 25 997.4
20260505114244 86 225 2.0 5.0 0.00 0.00 0.00 25 997.4
20260505114224 86 135 2.0 5.0 0.00 0.00 0.00 25 997.4
20260505114214 86 203 2.0 5.0 0.00 0.00 0.00 25 997.4
20260505114205 86 180 2.0 5.0 0.00 0.00 0.00 25 997.4
20260505114145 86 225 2.0 6.0 0.00 0.00 0.00 25 997.4
20260505114135 86 225 2.0 6.0 0.00 0.00 0.00 26 997.4
20260505114115 86 135 2.0 6.0 0.00 0.00 0.00 26 997.5
20260505114105 86 135 3.0 6.0 0.00 0.00 0.00 26 997.5
20260505114055 86 135 3.0 6.0 0.00 0.00 0.00 25 997.5
20260505114035 85 135 3.0 6.0 0.00 0.00 0.00 25 997.5
20260505114015 86 135 3.0 6.0 0.00 0.00 0.00 25 997.4
20260505114005 86 180 3.0 6.0 0.00 0.00 0.00 25 997.4
20260505113955 86 158 3.0 6.0 0.00 0.00 0.00 25 997.5
20260505113945 0 135 3.0 6.0 0.00 0.00 0.00 997.5
20260505113935 85 158 3.0 6.0 0.00 0.00 0.00 25 997.4
20260505113925 0 180 3.0 6.0 0.00 0.00 0.00 997.4
20260505113905 86 135 3.0 6.0 0.00 0.00 0.00 25 997.4
20260505113845 86 135 3.0 6.0 0.00 0.00 0.00 25 997.5
20260505113835 86 135 2.0 6.0 0.00 0.00 0.00 24 997.4
20260505113825 86 158 2.0 6.0 0.00 0.00 0.00 24 997.4
20260505113815 86 135 2.0 6.0 0.00 0.00 0.00 24 997.5
20260505113805 0 135 2.0 6.0 0.00 0.00 0.00 997.5
20260505113745 86 135 3.0 6.0 0.00 0.00 0.00 24 997.5
20260505113715 86 135 4.0 6.0 0.00 0.00 0.00 24 997.5
20260505113705 86 135 3.0 6.0 0.00 0.00 0.00 24 997.5
20260505113645 86 135 2.0 6.0 0.00 0.00 0.00 24 997.5
20260505113636 86 135 2.0 6.0 0.00 0.00 0.00 25 997.4
20260505113616 86 180 2.0 6.0 0.00 0.00 0.00 25 997.5
20260505113606 0 158 2.0 6.0 0.00 0.00 0.00 997.5
20260505113556 86 135 2.0 6.0 0.00 0.00 0.00 25 997.5
20260505113546 86 135 3.0 6.0 0.00 0.00 0.00 25 997.5
20260505113536 87 135 3.0 6.0 0.00 0.00 0.00 25 997.5
20260505113526 87 135 4.0 6.0 0.00 0.00 0.00 25 997.5
20260505113506 0 180 3.0 6.0 0.00 0.00 0.00 997.5
20260505113456 87 180 3.0 6.0 0.00 0.00 0.00 25 997.5
20260505113446 87 180 2.0 6.0 0.00 0.00 0.00 25 997.5
20260505113436 87 180 2.0 6.0 0.00 0.00 0.00 26 997.5
20260505113426 0 180 1.0 5.0 0.00 0.00 0.00 997.5
20260505113416 0 225 1.0 5.0 0.00 0.00 0.00 997.5
20260505113406 0 225 1.0 8.0 0.00 0.00 0.00 997.5
20260505113356 0 203 1.0 8.0 0.00 0.00 0.00 997.6
20260505113346 0 135 1.0 8.0 0.00 0.00 0.00 997.6
20260505113336 0 135 2.0 8.0 0.00 0.00 0.00 997.5
20260505113326 0 225 2.0 8.0 0.00 0.00 0.00 997.5
20260505113316 0 225 2.0 8.0 0.00 0.00 0.00 997.6
20260505113306 86 225 2.0 8.0 0.00 0.00 0.00 26 997.5
20260505113256 86 225 2.0 8.0 0.00 0.00 0.00 26 997.6
20260505113226 0 225 2.0 8.0 0.00 0.00 0.00 997.6
20260505113216 0 225 1.0 8.0 0.00 0.00 0.00 997.6
20260505113206 86 90 1.0 8.0 0.00 0.00 0.00 28 997.6
20260505113156 0 180 1.0 8.0 0.00 0.00 0.00 997.6
20260505113147 86 203 2.0 8.0 0.00 0.00 0.00 28 997.6
20260505113137 86 135 2.0 8.0 0.00 0.00 0.00 28 997.6
20260505113127 0 270 2.0 8.0 0.00 0.00 0.00 997.5
20260505113107 85 225 2.0 8.0 0.00 0.00 0.00 28 997.6
20260505113057 0 270 2.0 8.0 0.00 0.00 0.00 997.6
20260505113047 0 225 2.0 8.0 0.00 0.00 0.00 997.6
20260505113037 85 225 2.0 8.0 0.00 0.00 0.00 29 997.5
20260505113017 0 225 3.0 8.0 0.00 0.00 0.00 997.6
20260505112957 0 225 4.0 8.0 0.00 0.00 0.00 997.6
20260505112947 84 225 4.0 8.0 0.00 0.00 0.00 28 997.6
20260505112927 0 225 5.0 8.0 0.00 0.00 0.00 997.6
20260505112917 0 225 4.0 8.0 0.00 0.00 0.00 997.7
20260505112857 0 225 4.0 8.0 0.00 0.00 0.00 997.6
20260505112847 0 225 3.0 8.0 0.00 0.00 0.00 997.5
20260505112837 0 225 3.0 6.0 0.00 0.00 0.00 997.6
20260505112757 0 225 3.0 6.0 0.00 0.00 0.00 997.6
20260505112717 0 225 2.0 6.0 0.00 0.00 0.00 997.6
20260505112707 0 135 2.0 6.0 0.00 0.00 0.00 997.6
20260505112657 0 180 2.0 8.0 0.00 0.00 0.00 997.7
20260505112648 0 90 2.0 9.0 0.00 0.00 0.00 997.7
20260505112638 0 135 3.0 9.0 0.00 0.00 0.00 997.7
20260505112618 0 180 4.0 9.0 0.00 0.00 0.00 997.7
20260505112558 0 270 4.0 9.0 0.00 0.00 0.00 997.7
20260505112528 0 225 4.0 9.0 0.00 0.00 0.00 997.7
20260505112518 0 270 4.0 9.0 0.00 0.00 0.00 997.7
20260505112458 0 270 3.0 9.0 0.00 0.00 0.00 997.7
20260505112448 0 270 4.0 9.0 0.00 0.00 0.00 997.6
20260505112428 0 270 4.0 9.0 0.00 0.00 0.00 997.7
20260505112408 0 315 4.0 9.0 0.00 0.00 0.00 997.7
20260505112348 0 293 4.0 9.0 0.00 0.00 0.00 997.7
20260505112338 0 270 4.0 9.0 0.00 0.00 0.00 997.7
20260505112318 0 315 4.0 9.0 0.00 0.00 0.00 997.7
20260505112258 0 270 4.0 9.0 0.00 0.00 0.00 997.7
20260505112248 0 270 5.0 9.0 0.00 0.00 0.00 997.7
20260505112228 0 270 6.0 9.0 0.00 0.00 0.00 997.8
20260505112208 0 270 6.0 9.0 0.00 0.00 0.00 997.7
20260505112149 0 270 6.0 9.0 0.00 0.00 0.00 997.8
20260505112139 0 270 5.0 8.0 0.00 0.00 0.00 997.7
20260505112128 0 225 5.0 8.0 0.00 0.00 0.00 997.7
20260505112119 0 225 4.0 8.0 0.00 0.00 0.00 997.7
20260505112039 0 225 4.0 8.0 0.00 0.00 0.00 997.7
20260505112029 0 270 3.0 8.0 0.00 0.00 0.00 997.7
20260505112009 83 225 4.0 8.0 0.00 0.00 0.00 30 997.8
20260505111949 0 270 4.0 8.0 0.00 0.00 0.00 997.7
20260505111939 0 248 4.0 8.0 0.00 0.00 0.00 997.7
20260505111929 83 270 4.0 8.0 0.00 0.00 0.00 30 997.7
20260505111919 83 270 4.0 8.0 0.00 0.00 0.00 31 997.7
20260505111909 83 225 4.0 8.0 0.00 0.00 0.00 31 997.7
20260505111849 0 270 5.0 8.0 0.00 0.00 0.00 997.7
20260505111839 83 270 5.0 8.0 0.00 0.00 0.00 30 997.7
20260505111829 83 270 4.0 8.0 0.00 0.00 0.00 30 997.7
20260505111809 0 270 4.0 8.0 0.00 0.00 0.00 997.7
20260505111759 0 270 3.0 8.0 0.00 0.00 0.00 997.8
20260505111749 0 225 3.0 8.0 0.00 0.00 0.00 997.7
20260505111739 0 270 3.0 8.0 0.00 0.00 0.00 997.7
20260505111709 0 270 3.0 8.0 0.00 0.00 0.00 997.8
20260505111640 83 270 3.0 8.0 0.00 0.00 0.00 30 997.8
20260505111630 0 270 3.0 8.0 0.00 0.00 0.00 997.8
20260505111620 0 225 3.0 8.0 0.00 0.00 0.00 997.8
20260505111600 0 180 4.0 8.0 0.00 0.00 0.00 997.8
20260505111540 0 225 4.0 8.0 0.00 0.00 0.00 997.8
20260505111530 0 225 3.0 8.0 0.00 0.00 0.00 997.8
20260505111520 0 225 2.0 8.0 0.00 0.00 0.00 997.8
20260505111510 0 45 2.0 8.0 0.00 0.00 0.00 997.7
20260505111500 0 203 2.0 7.0 0.00 0.00 0.00 997.8
20260505111430 0 270 2.0 7.0 0.00 0.00 0.00 997.8
20260505111420 85 270 2.0 7.0 0.00 0.00 0.00 28 997.8
20260505111410 85 270 3.0 8.0 0.00 0.00 0.00 28 997.8
20260505111350 0 270 3.0 9.0 0.00 0.00 0.00 997.8
20260505111330 0 270 4.0 9.0 0.00 0.00 0.00 997.8
20260505111320 86 270 3.0 9.0 0.00 0.00 0.00 28 997.8
20260505111310 0 270 3.0 9.0 0.00 0.00 0.00 997.8
20260505111250 87 270 2.0 9.0 0.00 0.00 0.00 28 997.8
20260505111240 0 270 2.0 9.0 0.00 0.00 0.00 997.8
20260505111230 0 225 1.0 9.0 0.00 0.00 0.00 997.8
20260505111220 0 45 1.0 9.0 0.00 0.00 0.00 997.8
20260505111210 0 225 2.0 9.0 0.00 0.00 0.00 997.9
20260505111141 0 180 2.0 9.0 0.00 0.00 0.00 997.8
20260505111130 0 203 2.0 9.0 0.00 0.00 0.00 997.8
20260505111121 0 270 2.0 9.0 0.00 0.00 0.00 997.8
20260505111111 0 135 3.0 9.0 0.00 0.00 0.00 997.8
20260505111101 0 180 3.0 9.0 0.00 0.00 0.00 997.8
20260505111051 0 270 4.0 9.0 0.00 0.00 0.00 997.8
20260505111041 0 225 4.0 9.0 0.00 0.00 0.00 997.8
20260505111031 0 225 4.0 9.0 0.00 0.00 0.00 997.9
20260505111021 0 248 4.0 9.0 0.00 0.00 0.00 997.9
20260505110951 0 270 5.0 9.0 0.00 0.00 0.00 997.9
20260505110941 0 270 5.0 9.0 0.00 0.00 0.00 997.8
20260505110921 0 270 4.0 9.0 0.00 0.00 0.00 997.9
20260505110911 0 270 4.0 9.0 0.00 0.00 0.00 997.8
20260505110901 0 225 4.0 9.0 0.00 0.00 0.00 997.8
20260505110851 0 135 4.0 8.0 0.00 0.00 0.00 997.8
20260505110831 0 225 4.0 8.0 0.00 0.00 0.00 997.8
20260505110821 0 180 4.0 8.0 0.00 0.00 0.00 997.7
20260505110751 0 225 5.0 8.0 0.00 0.00 0.00 997.8
20260505110741 0 180 5.0 8.0 0.00 0.00 0.00 997.8
20260505110731 0 180 4.0 8.0 0.00 0.00 0.00 997.8
20260505110721 0 135 4.0 8.0 0.00 0.00 0.00 997.8
20260505110652 0 135 3.0 8.0 0.00 0.00 0.00 997.8
20260505110642 0 180 3.0 8.0 0.00 0.00 0.00 997.8
20260505110632 0 180 4.0 8.0 0.00 0.00 0.00 997.9
20260505110622 0 225 4.0 8.0 0.00 0.00 0.00 997.9
20260505110612 0 225 5.0 8.0 0.00 0.00 0.00 997.8
20260505110542 0 180 5.0 8.0 0.00 0.00 0.00 997.8
20260505110522 0 180 4.0 8.0 0.00 0.00 0.00 997.8
20260505110502 0 180 3.0 8.0 0.00 0.00 0.00 997.8
20260505110452 0 225 2.0 8.0 0.00 0.00 0.00 997.9
20260505110442 0 225 2.0 8.0 0.00 0.00 0.00 997.8
20260505110432 0 135 2.0 8.0 0.00 0.00 0.00 997.8
20260505110422 0 270 2.0 8.0 0.00 0.00 0.00 997.8
20260505110412 0 180 1.0 8.0 0.00 0.00 0.00 997.8
20260505110402 0 248 1.0 8.0 0.00 0.00 0.00 997.9
20260505110352 0 90 2.0 8.0 0.00 0.00 0.00 997.8
20260505110342 0 203 2.0 8.0 0.00 0.00 0.00 997.8
20260505110332 0 225 2.0 8.0 0.00 0.00 0.00 997.8
20260505110322 0 203 2.0 8.0 0.00 0.00 0.00 997.9
20260505110302 0 180 4.0 8.0 0.00 0.00 0.00 997.9
20260505110242 0 180 4.0 8.0 0.00 0.00 0.00 997.8
20260505110213 0 180 5.0 8.0 0.00 0.00 0.00 997.8
20260505110203 0 180 5.0 8.0 0.00 0.00 0.00 997.9
20260505110153 0 180 6.0 8.0 0.00 0.00 0.00 997.8
20260505110143 0 158 6.0 8.0 0.00 0.00 0.00 997.8
20260505110133 0 180 5.0 8.0 0.00 0.00 0.00 997.8
20260505110123 0 158 4.0 8.0 0.00 0.00 0.00 997.8
20260505110113 0 180 4.0 8.0 0.00 0.00 0.00 997.8
20260505102201 0 0 2.0 5.0 0.00 0.00 0.00 998.4
20260505102151 0 338 2.0 5.0 0.00 0.00 0.00 998.4
20260505102141 0 315 2.0 5.0 0.00 0.00 0.00 998.4
20260505102121 0 270 2.0 5.0 0.00 0.00 0.00 998.4
20260505102041 0 270 2.0 5.0 0.00 0.00 0.00 998.4
20260505102022 0 315 1.0 5.0 0.00 0.00 0.00 998.4
20260505102012 0 338 1.0 5.0 0.00 0.00 0.00 998.4
20260505101942 0 315 0.0 5.0 0.00 0.00 0.00 998.4
20260505101932 0 270 1.0 5.0 0.00 0.00 0.00 998.4
20260505101922 0 315 1.0 5.0 0.00 0.00 0.00 998.4
20260505101902 0 45 2.0 5.0 0.00 0.00 0.00 998.4
20260505101852 0 315 2.0 5.0 0.00 0.00 0.00 998.4
20260505101842 0 0 2.0 5.0 0.00 0.00 0.00 998.4
20260505101832 0 315 3.0 5.0 0.00 0.00 0.00 998.5
20260505101812 0 293 2.0 5.0 0.00 0.00 0.00 998.4
20260505101802 0 315 2.0 5.0 0.00 0.00 0.00 998.4
20260505101752 0 315 1.0 5.0 0.00 0.00 0.00 998.4
20260505101742 0 270 0.0 5.0 0.00 0.00 0.00 998.5
20260505101712 0 270 0.0 5.0 0.00 0.00 0.00 998.4
20260505101702 0 315 1.0 5.0 0.00 0.00 0.00 998.4
20260505101652 0 90 1.0 5.0 0.00 0.00 0.00 998.4
20260505101642 0 113 1.0 5.0 0.00 0.00 0.00 998.4
20260505101632 0 135 1.0 5.0 0.00 0.00 0.00 998.4
20260505101622 0 90 2.0 5.0 0.00 0.00 0.00 998.4
20260505101603 0 90 2.0 6.0 0.00 0.00 0.00 998.4
20260505101542 0 45 2.0 6.0 0.00 0.00 0.00 998.4
20260505101513 0 0 2.0 6.0 0.00 0.00 0.00 998.4
20260505101503 0 0 1.0 6.0 0.00 0.00 0.00 998.4
20260505101443 0 0 1.0 6.0 0.00 0.00 0.00 998.5
20260505101423 0 45 1.0 6.0 0.00 0.00 0.00 998.4
20260505101413 0 0 1.0 6.0 0.00 0.00 0.00 998.4
20260505101403 0 45 2.0 6.0 0.00 0.00 0.00 998.4
20260505101353 0 315 2.0 6.0 0.00 0.00 0.00 998.4
20260505101343 0 0 2.0 6.0 0.00 0.00 0.00 998.4
20260505101333 0 0 3.0 6.0 0.00 0.00 0.00 998.5
20260505101323 0 0 3.0 6.0 0.00 0.00 0.00 998.4
20260505101313 0 315 4.0 6.0 0.00 0.00 0.00 998.4
20260505101303 0 270 4.0 6.0 0.00 0.00 0.00 998.4
20260505101243 0 315 4.0 6.0 0.00 0.00 0.00 998.5
20260505101233 0 270 4.0 6.0 0.00 0.00 0.00 998.5
20260505101153 0 293 4.0 6.0 0.00 0.00 0.00 998.4
20260505101143 0 270 4.0 6.0 0.00 0.00 0.00 998.4
20260505101123 0 270 4.0 6.0 0.00 0.00 0.00 998.5
20260505101103 0 270 4.0 6.0 0.00 0.00 0.00 998.4
20260505101043 0 270 3.0 6.0 0.00 0.00 0.00 998.4
20260505101033 0 270 2.0 6.0 0.00 0.00 0.00 998.4
20260505101023 0 270 2.0 6.0 0.00 0.00 0.00 998.5
20260505101004 0 315 2.0 6.0 0.00 0.00 0.00 998.4
20260505100954 0 270 2.0 6.0 0.00 0.00 0.00 998.4
20260505100934 0 270 1.0 6.0 0.00 0.00 0.00 998.4
20260505100924 0 225 2.0 6.0 0.00 0.00 0.00 998.4
20260505100914 0 293 2.0 6.0 0.00 0.00 0.00 998.4
20260505100904 0 270 2.0 6.0 0.00 0.00 0.00 998.4
20260505100854 0 270 2.0 6.0 0.00 0.00 0.00 998.5
20260505100844 0 315 3.0 6.0 0.00 0.00 0.00 998.4
20260505100834 0 315 3.0 6.0 0.00 0.00 0.00 998.5
20260505100824 0 315 4.0 6.0 0.00 0.00 0.00 998.5
20260505100814 0 270 4.0 6.0 0.00 0.00 0.00 998.5
20260505100734 0 270 4.0 6.0 0.00 0.00 0.00 998.4
20260505100724 0 270 3.0 5.0 0.00 0.00 0.00 998.4
20260505100714 0 270 3.0 5.0 0.00 0.00 0.00 998.5
20260505100654 0 270 2.0 5.0 0.00 0.00 0.00 998.4
20260505100644 0 270 2.0 5.0 0.00 0.00 0.00 998.5
20260505100634 0 270 2.0 7.0 0.00 0.00 0.00 998.4
20260505100624 0 0 2.0 7.0 0.00 0.00 0.00 998.5
20260505100614 0 315 2.0 7.0 0.00 0.00 0.00 998.4
20260505100535 0 270 3.0 7.0 0.00 0.00 0.00 998.5
20260505100515 0 270 3.0 8.0 0.00 0.00 0.00 998.5
20260505100505 0 225 2.0 8.0 0.00 0.00 0.00 998.5
20260505100435 0 270 2.0 8.0 0.00 0.00 0.00 998.5
20260505100415 0 270 1.0 8.0 0.00 0.00 0.00 998.5
20260505100405 0 225 1.0 8.0 0.00 0.00 0.00 998.5
20260505100355 0 180 1.0 8.0 0.00 0.00 0.00 998.5
20260505100345 0 225 1.0 8.0 0.00 0.00 0.00 998.6
20260505100335 0 180 1.0 8.0 0.00 0.00 0.00 998.6
20260505100305 0 225 1.0 8.0 0.00 0.00 0.00 998.6
20260505100245 0 180 2.0 8.0 0.00 0.00 0.00 998.5
20260505100225 0 270 2.0 8.0 0.00 0.00 0.00 998.6
20260505100155 0 270 3.0 8.0 0.00 0.00 0.00 998.6
20260505100135 0 225 3.0 8.0 0.00 0.00 0.00 998.6
20260505100115 0 225 4.0 8.0 0.00 0.00 0.00 998.6
20260505100105 0 270 5.0 8.0 0.00 0.00 0.00 998.7
20260505100036 0 270 5.0 8.0 0.00 0.00 0.00 998.6
20260505100026 0 270 4.0 8.0 0.00 0.00 0.00 998.6
20260505100016 0 270 3.0 8.0 0.00 0.00 0.00 998.6
20260505100006 0 270 2.0 8.0 0.00 0.00 0.00 998.6
20260505095956 0 315 2.0 8.0 0.00 0.00 0.00 998.6
20260505095946 0 180 2.0 8.0 0.00 0.00 0.00 998.6
20260505095936 0 180 3.0 8.0 0.00 0.00 0.00 998.6
20260505095926 0 225 4.0 8.0 0.00 0.00 0.00 998.7
20260505095906 0 225 4.0 8.0 0.00 0.00 0.00 998.6
20260505095856 0 225 5.0 8.0 0.00 0.00 0.00 998.6
20260505095846 0 315 5.0 8.0 0.00 0.00 0.00 998.6
20260505095836 0 225 6.0 8.0 0.00 0.00 0.00 998.6
20260505095826 0 270 6.0 8.0 0.00 0.00 0.00 998.6
20260505095816 0 270 5.0 8.0 0.00 0.00 0.00 998.6
20260505095746 0 248 5.0 8.0 0.00 0.00 0.00 998.6
20260505095736 0 270 5.0 8.0 0.00 0.00 0.00 998.7
20260505095726 0 270 5.0 8.0 0.00 0.00 0.00 998.6
20260505095716 0 270 6.0 8.0 0.00 0.00 0.00 998.7
20260505095646 0 270 6.0 8.0 0.00 0.00 0.00 998.6
20260505095636 0 270 5.0 8.0 0.00 0.00 0.00 998.6
20260505095616 0 270 4.0 8.0 0.00 0.00 0.00 998.6
20260505095606 0 270 3.0 8.0 0.00 0.00 0.00 998.6
20260505095537 0 270 2.0 6.0 0.00 0.00 0.00 998.6
20260505095517 0 270 2.0 6.0 0.00 0.00 0.00 998.7
20260505095507 0 315 2.0 6.0 0.00 0.00 0.00 998.6
20260505095457 0 315 3.0 6.0 0.00 0.00 0.00 998.7
20260505095447 0 293 3.0 6.0 0.00 0.00 0.00 998.6
20260505095437 0 270 3.0 6.0 0.00 0.00 0.00 998.7
20260505095417 0 225 2.0 6.0 0.00 0.00 0.00 998.7
20260505095407 0 270 2.0 6.0 0.00 0.00 0.00 998.7
20260505095357 0 0 3.0 6.0 0.00 0.00 0.00 998.7
20260505095347 0 180 3.0 6.0 0.00 0.00 0.00 998.7
20260505095337 0 180 4.0 6.0 0.00 0.00 0.00 998.7
20260505095327 0 180 4.0 7.0 0.00 0.00 0.00 998.7
20260505095307 0 158 4.0 7.0 0.00 0.00 0.00 998.6
20260505095257 0 158 3.0 7.0 0.00 0.00 0.00 998.7
20260505095247 0 180 2.0 7.0 0.00 0.00 0.00 998.6
20260505095227 0 135 2.0 7.0 0.00 0.00 0.00 998.7
20260505095217 0 135 2.0 7.0 0.00 0.00 0.00 998.6
20260505095207 0 225 2.0 7.0 0.00 0.00 0.00 998.7
20260505095157 0 270 2.0 7.0 0.00 0.00 0.00 998.7
20260505095137 0 270 3.0 7.0 0.00 0.00 0.00 998.7
20260505095127 0 270 4.0 7.0 0.00 0.00 0.00 998.7
20260505095117 0 315 4.0 7.0 0.00 0.00 0.00 998.7
20260505095057 0 315 4.0 8.0 0.00 0.00 0.00 998.6
20260505095048 0 315 4.0 8.0 0.00 0.00 0.00 998.7
20260505095028 0 293 3.0 8.0 0.00 0.00 0.00 998.8
20260505095018 0 270 3.0 8.0 0.00 0.00 0.00 998.7
20260505095008 0 293 2.0 8.0 0.00 0.00 0.00 998.7
20260505094958 0 270 2.0 8.0 0.00 0.00 0.00 998.7
20260505094948 0 315 3.0 8.0 0.00 0.00 0.00 998.7
20260505094928 0 270 4.0 8.0 0.00 0.00 0.00 998.7
20260505094848 0 270 4.0 8.0 0.00 0.00 0.00 998.7
20260505094838 0 248 3.0 8.0 0.00 0.00 0.00 998.7
20260505094818 0 270 3.0 8.0 0.00 0.00 0.00 998.7
20260505094758 0 225 3.0 8.0 0.00 0.00 0.00 998.7
20260505094738 0 270 3.0 8.0 0.00 0.00 0.00 998.7
20260505094708 0 270 4.0 8.0 0.00 0.00 0.00 998.7
20260505094658 0 225 4.0 8.0 0.00 0.00 0.00 998.7
20260505094648 0 225 4.0 8.0 0.00 0.00 0.00 998.8
20260505094628 0 270 4.0 8.0 0.00 0.00 0.00 998.7
20260505094618 0 225 4.0 8.0 0.00 0.00 0.00 998.7
20260505094608 0 270 3.0 8.0 0.00 0.00 0.00 998.7
20260505094559 0 203 3.0 7.0 0.00 0.00 0.00 998.7
20260505094548 0 135 3.0 7.0 0.00 0.00 0.00 998.7
20260505094539 0 225 3.0 7.0 0.00 0.00 0.00 998.7
20260505094529 0 270 2.0 7.0 0.00 0.00 0.00 998.7
20260505094519 0 270 2.0 6.0 0.00 0.00 0.00 998.7
20260505094509 0 180 2.0 6.0 0.00 0.00 0.00 998.7
20260505094459 0 225 1.0 6.0 0.00 0.00 0.00 998.7
20260505094449 0 180 1.0 6.0 0.00 0.00 0.00 998.7
20260505094439 0 225 0.0 6.0 0.00 0.00 0.00 998.7
20260505094409 0 180 0.0 6.0 0.00 0.00 0.00 998.7
20260505094359 0 225 0.0 6.0 0.00 0.00 0.00 998.7
20260505094339 0 135 1.0 6.0 0.00 0.00 0.00 998.7
20260505094309 0 90 1.0 6.0 0.00 0.00 0.00 998.7
20260505094249 0 90 2.0 6.0 0.00 0.00 0.00 998.8
20260505094239 0 90 2.0 6.0 0.00 0.00 0.00 998.7
20260505094219 0 135 2.0 6.0 0.00 0.00 0.00 998.7
20260505094159 0 180 3.0 6.0 0.00 0.00 0.00 998.7
20260505094139 0 135 4.0 6.0 0.00 0.00 0.00 998.7
20260505094129 0 180 4.0 6.0 0.00 0.00 0.00 998.8
20260505094049 0 180 4.0 6.0 0.00 0.00 0.00 998.7
20260505094040 0 180 3.0 6.0 0.00 0.00 0.00 998.7
20260505094030 0 135 3.0 6.0 0.00 0.00 0.00 998.7
20260505094020 0 225 4.0 6.0 0.00 0.00 0.00 998.7
20260505094010 0 248 3.0 6.0 0.00 0.00 0.00 998.7
20260505093950 0 135 3.0 5.0 0.00 0.00 0.00 998.7
20260505093940 0 180 3.0 5.0 0.00 0.00 0.00 998.7
20260505093930 0 270 2.0 6.0 0.00 0.00 0.00 998.7
20260505093920 0 180 2.0 6.0 0.00 0.00 0.00 998.7
20260505093850 0 135 2.0 6.0 0.00 0.00 0.00 998.7
20260505093840 0 113 2.0 6.0 0.00 0.00 0.00 998.7
20260505093820 0 90 2.0 6.0 0.00 0.00 0.00 998.7
20260505093810 0 135 2.0 6.0 0.00 0.00 0.00 998.7
20260505093800 0 68 1.0 6.0 0.00 0.00 0.00 998.7
20260505093750 0 90 1.0 6.0 0.00 0.00 0.00 998.7
20260505093740 0 45 1.0 6.0 0.00 0.00 0.00 998.8
20260505093720 0 90 1.0 6.0 0.00 0.00 0.00 998.8
20260505093710 0 90 1.0 6.0 0.00 0.00 0.00 998.7
20260505093700 0 90 2.0 6.0 0.00 0.00 0.00 998.8
20260505093650 0 135 2.0 6.0 0.00 0.00 0.00 998.8
20260505093640 0 158 2.0 6.0 0.00 0.00 0.00 998.8
20260505093610 0 180 3.0 6.0 0.00 0.00 0.00 998.8
20260505093600 0 180 2.0 6.0 0.00 0.00 0.00 998.8
20260505093550 0 315 2.0 6.0 0.00 0.00 0.00 998.8
20260505093541 0 270 2.0 6.0 0.00 0.00 0.00 998.8
20260505093521 0 180 3.0 6.0 0.00 0.00 0.00 998.8
20260505093501 0 180 4.0 6.0 0.00 0.00 0.00 998.8
20260505093451 0 135 4.0 6.0 0.00 0.00 0.00 998.8
20260505093441 0 180 4.0 6.0 0.00 0.00 0.00 998.7
20260505093431 0 180 3.0 6.0 0.00 0.00 0.00 998.7
20260505093421 0 158 2.0 6.0 0.00 0.00 0.00 998.7
20260505093401 0 135 2.0 6.0 0.00 0.00 0.00 998.8
20260505093351 0 180 2.0 6.0 0.00 0.00 0.00 998.7
20260505093341 0 158 2.0 6.0 0.00 0.00 0.00 998.8
20260505093311 0 225 2.0 6.0 0.00 0.00 0.00 998.8
20260505093301 0 270 2.0 6.0 0.00 0.00 0.00 998.8
20260505093251 0 180 2.0 6.0 0.00 0.00 0.00 998.8
20260505093241 0 135 2.0 6.0 0.00 0.00 0.00 998.8
20260505093211 0 180 3.0 6.0 0.00 0.00 0.00 998.8
20260505093201 0 180 4.0 6.0 0.00 0.00 0.00 998.8
20260505093121 0 180 4.0 6.0 0.00 0.00 0.00 998.8
20260505093111 0 158 3.0 5.0 0.00 0.00 0.00 998.8
20260505093042 0 135 3.0 5.0 0.00 0.00 0.00 998.8
20260505093032 0 135 4.0 5.0 0.00 0.00 0.00 998.8
20260505093022 0 158 4.0 5.0 0.00 0.00 0.00 998.8
20260505093012 0 135 3.0 5.0 0.00 0.00 0.00 998.9
20260505093002 0 135 3.0 5.0 0.00 0.00 0.00 998.8
20260505092932 0 180 2.0 5.0 0.00 0.00 0.00 998.8
20260505092922 0 135 2.0 5.0 0.00 0.00 0.00 998.8
20260505092912 0 0 2.0 5.0 0.00 0.00 0.00 998.8
20260505092852 0 225 2.0 5.0 0.00 0.00 0.00 998.8
20260505092842 0 203 2.0 5.0 0.00 0.00 0.00 998.8
20260505092822 0 180 2.0 5.0 0.00 0.00 0.00 998.8
20260505092812 0 203 2.0 7.0 0.00 0.00 0.00 998.9
20260505092802 0 180 1.0 7.0 0.00 0.00 0.00 998.8
20260505092752 0 180 1.0 7.0 0.00 0.00 0.00 998.9
20260505092742 0 158 1.0 7.0 0.00 0.00 0.00 998.8
20260505092732 0 135 1.0 7.0 0.00 0.00 0.00 998.9
20260505092712 0 45 1.0 7.0 0.00 0.00 0.00 998.9
20260505092702 0 90 1.0 7.0 0.00 0.00 0.00 998.9
20260505092652 0 135 1.0 7.0 0.00 0.00 0.00 998.9
20260505092642 0 113 2.0 7.0 0.00 0.00 0.00 998.9
20260505092632 0 90 2.0 7.0 0.00 0.00 0.00 998.9
20260505092553 0 135 2.0 7.0 0.00 0.00 0.00 998.9
20260505092543 0 113 2.0 7.0 0.00 0.00 0.00 998.9
20260505092532 0 90 2.0 7.0 0.00 0.00 0.00 998.9
20260505092513 0 135 3.0 7.0 0.00 0.00 0.00 998.9
20260505092453 0 135 3.0 7.0 0.00 0.00 0.00 999.0
20260505092433 0 135 3.0 7.0 0.00 0.00 0.00 998.9
20260505092413 0 113 4.0 8.0 0.00 0.00 0.00 998.9
20260505092403 0 90 4.0 8.0 0.00 0.00 0.00 998.9
20260505092353 0 135 4.0 8.0 0.00 0.00 0.00 999.0
20260505092343 0 135 4.0 8.0 0.00 0.00 0.00 998.9
20260505092313 0 135 3.0 8.0 0.00 0.00 0.00 998.9
20260505092253 0 135 3.0 8.0 0.00 0.00 0.00 999.0
20260505092213 0 135 4.0 8.0 0.00 0.00 0.00 998.9
20260505092203 0 113 4.0 8.0 0.00 0.00 0.00 998.9
20260505092143 0 135 3.0 8.0 0.00 0.00 0.00 999.0
20260505092123 0 225 3.0 8.0 0.00 0.00 0.00 999.0
20260505092113 0 248 4.0 8.0 0.00 0.00 0.00 999.0
20260505092054 0 225 4.0 8.0 0.00 0.00 0.00 999.0
20260505092044 0 225 4.0 8.0 0.00 0.00 0.00 998.9
20260505092024 0 203 4.0 8.0 0.00 0.00 0.00 999.0
20260505092014 0 225 4.0 8.0 0.00 0.00 0.00 999.0
20260505091944 0 180 4.0 8.0 0.00 0.00 0.00 999.0
20260505091934 0 180 3.0 8.0 0.00 0.00 0.00 999.0
20260505091924 0 180 2.0 6.0 0.00 0.00 0.00 999.0
20260505091904 0 180 2.0 6.0 0.00 0.00 0.00 998.9
20260505091854 0 203 2.0 5.0 0.00 0.00 0.00 999.0
20260505091834 0 135 2.0 5.0 0.00 0.00 0.00 999.0
20260505091824 0 90 2.0 5.0 0.00 0.00 0.00 999.0
20260505091804 0 90 3.0 5.0 0.00 0.00 0.00 999.0
20260505091754 0 135 3.0 5.0 0.00 0.00 0.00 998.9
20260505091734 0 180 2.0 5.0 0.00 0.00 0.00 999.0
20260505091724 0 158 2.0 5.0 0.00 0.00 0.00 999.0
20260505091714 0 180 1.0 5.0 0.00 0.00 0.00 999.0
20260505091704 0 135 0.0 5.0 0.00 0.00 0.00 999.0
20260505091644 0 180 0.0 5.0 0.00 0.00 0.00 999.0
20260505091624 0 23 0.0 5.0 0.00 0.00 0.00 999.0
20260505091614 0 315 0.0 5.0 0.00 0.00 0.00 999.0
20260505091555 0 0 0.0 5.0 0.00 0.00 0.00 999.0
20260505091545 0 0 0.0 5.0 0.00 0.00 0.00 999.1
20260505091525 0 225 0.0 5.0 0.00 0.00 0.00 999.0
20260505091515 0 225 0.0 5.0 0.00 0.00 0.00 999.1
20260505091505 0 225 0.0 6.0 0.00 0.00 0.00 999.1
20260505091455 0 225 1.0 6.0 0.00 0.00 0.00 999.1
20260505091445 0 225 2.0 6.0 0.00 0.00 0.00 999.1
20260505091425 0 180 2.0 6.0 0.00 0.00 0.00 999.1
20260505091355 0 135 2.0 6.0 0.00 0.00 0.00 999.1
20260505091345 0 180 2.0 6.0 0.00 0.00 0.00 999.0
20260505091335 0 225 1.0 6.0 0.00 0.00 0.00 999.0
20260505091255 0 270 1.0 6.0 0.00 0.00 0.00 999.1
20260505091245 0 203 1.0 6.0 0.00 0.00 0.00 999.1
20260505091235 0 180 1.0 6.0 0.00 0.00 0.00 999.1
20260505091215 0 135 1.0 6.0 0.00 0.00 0.00 999.1
20260505091135 0 180 2.0 6.0 0.00 0.00 0.00 999.1
20260505091125 0 180 3.0 7.0 0.00 0.00 0.00 999.1
20260505091105 0 225 3.0 7.0 0.00 0.00 0.00 999.1
20260505091055 0 180 4.0 7.0 0.00 0.00 0.00 999.1
20260505091046 0 180 3.0 7.0 0.00 0.00 0.00 999.1
20260505091026 0 225 3.0 7.0 0.00 0.00 0.00 999.0
20260505091006 0 180 3.0 7.0 0.00 0.00 0.00 999.1
20260505090956 0 180 2.0 7.0 0.00 0.00 0.00 999.1
20260505090936 0 180 2.0 7.0 0.00 0.00 0.00 999.0
20260505090926 0 158 2.0 7.0 0.00 0.00 0.00 999.1
20260505090916 0 180 3.0 7.0 0.00 0.00 0.00 999.1
20260505090906 0 158 3.0 7.0 0.00 0.00 0.00 999.1
20260505090846 0 135 3.0 7.0 0.00 0.00 0.00 999.1
20260505090806 0 135 4.0 9.0 0.00 0.00 0.00 999.1
20260505090726 0 135 4.0 9.0 0.00 0.00 0.00 999.1
20260505090646 0 135 4.0 9.0 0.00 0.00 0.00 999.1
20260505090636 0 158 4.0 9.0 0.00 0.00 0.00 999.1
20260505090626 0 135 4.0 9.0 0.00 0.00 0.00 999.0
20260505090617 0 180 4.0 9.0 0.00 0.00 0.00 999.1
20260505090537 0 180 4.0 9.0 0.00 0.00 0.00 999.1
20260505090527 0 180 4.0 9.0 0.00 0.00 0.00 999.2
20260505090517 0 225 4.0 9.0 0.00 0.00 0.00 999.1
20260505090447 0 180 4.0 9.0 0.00 0.00 0.00 999.1
20260505090427 0 180 5.0 9.0 0.00 0.00 0.00 999.1
20260505090417 0 180 5.0 9.0 0.00 0.00 0.00 999.2
20260505090407 0 180 4.0 9.0 0.00 0.00 0.00 999.1
20260505090347 0 135 4.0 9.0 0.00 0.00 0.00 999.1
20260505090337 0 135 4.0 8.0 0.00 0.00 0.00 999.0
20260505090327 0 90 3.0 7.0 0.00 0.00 0.00 999.1
20260505090317 0 270 3.0 7.0 0.00 0.00 0.00 999.1
20260505090307 0 203 3.0 7.0 0.00 0.00 0.00 999.1
20260505090257 0 180 3.0 5.0 0.00 0.00 0.00 999.1
20260505090237 0 135 2.0 5.0 0.00 0.00 0.00 999.2
20260505090227 0 180 2.0 5.0 0.00 0.00 0.00 999.2
20260505090217 0 203 2.0 5.0 0.00 0.00 0.00 999.2
20260505090207 0 180 2.0 5.0 0.00 0.00 0.00 999.1
20260505090157 0 135 2.0 5.0 0.00 0.00 0.00 999.2
20260505090147 0 135 2.0 5.0 0.00 0.00 0.00 999.1
20260505090127 0 158 2.0 5.0 0.00 0.00 0.00 999.2
20260505090107 0 180 2.0 5.0 0.00 0.00 0.00 999.2
20260505090057 0 135 2.0 5.0 0.00 0.00 0.00 999.2
20260505090018 0 180 3.0 5.0 0.00 0.00 0.00 999.2
20260505090008 0 180 2.0 6.0 0.00 0.00 0.00 999.2
20260505085938 0 135 2.0 6.0 0.00 0.00 0.00 999.2
20260505085918 0 180 2.0 6.0 0.00 0.00 0.00 999.2
20260505085858 0 135 2.0 6.0 0.00 0.00 0.00 999.3
20260505085848 0 90 2.0 6.0 0.00 0.00 0.00 999.2
20260505085828 0 113 2.0 6.0 0.00 0.00 0.00 999.2
20260505085758 0 45 2.0 6.0 0.00 0.00 0.00 999.3
20260505085748 0 45 2.0 6.0 0.00 0.00 0.00 999.2
20260505085738 0 90 2.0 6.0 0.00 0.00 0.00 999.2
20260505085708 0 90 2.0 6.0 0.00 0.00 0.00 999.3
20260505085628 0 90 2.0 6.0 0.00 0.00 0.00 999.3
20260505085619 0 90 3.0 6.0 0.00 0.00 0.00 999.3
20260505085608 0 90 4.0 6.0 0.00 0.00 0.00 999.3
20260505085538 0 135 4.0 6.0 0.00 0.00 0.00 999.3
20260505085528 0 113 4.0 7.0 0.00 0.00 0.00 999.3
20260505085519 0 90 4.0 7.0 0.00 0.00 0.00 999.3
20260505085509 0 135 4.0 7.0 0.00 0.00 0.00 999.3
20260505085459 0 135 3.0 7.0 0.00 0.00 0.00 999.2
20260505085439 0 90 4.0 7.0 0.00 0.00 0.00 999.3
20260505085419 0 135 4.0 7.0 0.00 0.00 0.00 999.3
20260505085409 0 135 3.0 7.0 0.00 0.00 0.00 999.3
20260505085329 0 135 3.0 7.0 0.00 0.00 0.00 999.3
20260505085249 0 135 3.0 7.0 0.00 0.00 0.00 999.3
20260505085229 0 135 4.0 7.0 0.00 0.00 0.00 999.3
20260505085159 0 135 3.0 7.0 0.00 0.00 0.00 999.3
20260505085149 0 135 4.0 7.0 0.00 0.00 0.00 999.4
20260505085139 0 158 4.0 7.0 0.00 0.00 0.00 999.3
20260505085119 0 135 4.0 7.0 0.00 0.00 0.00 999.3
20260505085109 0 180 4.0 7.0 0.00 0.00 0.00 999.4
20260505085049 0 180 4.0 7.0 0.00 0.00 0.00 999.3
20260505085039 0 180 3.0 7.0 0.00 0.00 0.00 999.4
20260505085029 0 180 2.0 7.0 0.00 0.00 0.00 999.4
20260505085019 0 158 2.0 5.0 0.00 0.00 0.00 999.3
20260505085009 0 180 2.0 5.0 0.00 0.00 0.00 999.4
20260505084959 0 90 2.0 5.0 0.00 0.00 0.00 999.4
20260505084949 0 135 2.0 5.0 0.00 0.00 0.00 999.3
20260505084940 0 135 2.0 5.0 0.00 0.00 0.00 999.4
20260505084920 0 135 3.0 5.0 0.00 0.00 0.00 999.4
20260505084900 0 135 2.0 5.0 0.00 0.00 0.00 999.3
20260505084850 0 135 2.0 5.0 0.00 0.00 0.00 999.4
20260505084840 0 135 2.0 4.0 0.00 0.00 0.00 999.4
20260505084830 0 113 2.0 4.0 0.00 0.00 0.00 999.4
20260505084820 0 135 2.0 4.0 0.00 0.00 0.00 999.3
20260505084810 0 68 2.0 4.0 0.00 0.00 0.00 999.4
20260505084800 0 68 2.0 4.0 0.00 0.00 0.00 999.3
20260505084740 0 135 2.0 4.0 0.00 0.00 0.00 999.4
20260505084730 0 90 2.0 4.0 0.00 0.00 0.00 999.3
20260505084700 0 90 2.0 4.0 0.00 0.00 0.00 999.4
20260505084650 0 90 2.0 4.0 0.00 0.00 0.00 999.3
20260505084630 0 90 1.0 4.0 0.00 0.00 0.00 999.4
20260505084610 0 68 1.0 5.0 0.00 0.00 0.00 999.4
20260505084550 0 45 1.0 5.0 0.00 0.00 0.00 999.4
20260505084540 0 90 1.0 5.0 0.00 0.00 0.00 999.4
20260505084530 0 135 2.0 5.0 0.00 0.00 0.00 999.4
20260505084520 0 113 2.0 5.0 0.00 0.00 0.00 999.4
20260505084510 0 135 2.0 5.0 0.00 0.00 0.00 999.3
20260505084430 0 135 2.0 5.0 0.00 0.00 0.00 999.4
20260505084421 0 158 2.0 5.0 0.00 0.00 0.00 999.4
20260505084411 0 180 2.0 5.0 0.00 0.00 0.00 999.4
20260505084331 0 180 2.0 5.0 0.00 0.00 0.00 999.4
20260505084321 0 158 2.0 5.0 0.00 0.00 0.00 999.4
20260505084311 0 180 2.0 6.0 0.00 0.00 0.00 999.4
20260505084251 0 180 2.0 6.0 0.00 0.00 0.00 999.5
20260505084231 0 180 2.0 6.0 0.00 0.00 0.00 999.4
20260505084151 0 180 3.0 6.0 0.00 0.00 0.00 999.4
20260505084141 0 180 4.0 7.0 0.00 0.00 0.00 999.4
20260505084111 0 180 3.0 7.0 0.00 0.00 0.00 999.4
20260505084051 0 180 2.0 7.0 0.00 0.00 0.00 999.4
20260505084031 0 180 2.0 7.0 0.00 0.00 0.00 999.3
20260505084011 0 180 2.0 7.0 0.00 0.00 0.00 999.4
20260505084001 0 135 2.0 7.0 0.00 0.00 0.00 999.4
20260505083951 0 203 2.0 7.0 0.00 0.00 0.00 999.4
20260505083931 0 158 3.0 7.0 0.00 0.00 0.00 999.3
20260505083901 0 180 3.0 7.0 0.00 0.00 0.00 999.3
20260505083822 0 180 3.0 7.0 0.00 0.00 0.00 999.4
20260505083812 0 180 3.0 7.0 0.00 0.00 0.00 999.3
20260505083802 0 180 4.0 7.0 0.00 0.00 0.00 999.4
20260505083752 0 135 4.0 7.0 0.00 0.00 0.00 999.3
20260505083742 0 158 4.0 7.0 0.00 0.00 0.00 999.4
20260505083712 0 180 4.0 7.0 0.00 0.00 0.00 999.4
20260505083702 0 180 4.0 7.0 0.00 0.00 0.00 999.3
20260505083652 0 180 3.0 7.0 0.00 0.00 0.00 999.4
20260505083642 0 180 2.0 8.0 0.00 0.00 0.00 999.4
20260505083632 0 180 1.0 8.0 0.00 0.00 0.00 999.4
20260505083622 0 135 0.0 8.0 0.00 0.00 0.00 999.4
20260505083612 0 180 0.0 8.0 0.00 0.00 0.00 999.4
20260505083602 0 203 0.0 8.0 0.00 0.00 0.00 999.4
20260505083552 0 225 0.0 8.0 0.00 0.00 0.00 999.4
20260505083542 0 225 1.0 8.0 0.00 0.00 0.00 999.4
20260505083532 0 180 1.0 9.0 0.00 0.00 0.00 999.4
20260505083512 0 270 2.0 9.0 0.00 0.00 0.00 999.4
20260505083452 0 225 2.0 9.0 0.00 0.00 0.00 999.4
20260505083422 0 270 2.0 9.0 0.00 0.00 0.00 999.4
20260505083412 0 225 2.0 9.0 0.00 0.00 0.00 999.4
20260505083402 0 180 2.0 9.0 0.00 0.00 0.00 999.4
20260505083352 0 135 2.0 9.0 0.00 0.00 0.00 999.4
20260505083342 0 203 2.0 9.0 0.00 0.00 0.00 999.4
20260505083332 0 225 2.0 9.0 0.00 0.00 0.00 999.4
20260505083323 0 225 3.0 9.0 0.00 0.00 0.00 999.4
20260505083303 0 158 3.0 9.0 0.00 0.00 0.00 999.4
20260505083253 0 180 3.0 9.0 0.00 0.00 0.00 999.4
20260505083233 0 135 4.0 9.0 0.00 0.00 0.00 999.4
20260505083223 0 180 4.0 9.0 0.00 0.00 0.00 999.4
20260505083213 0 158 4.0 9.0 0.00 0.00 0.00 999.4
20260505083153 0 180 5.0 9.0 0.00 0.00 0.00 999.4
20260505083143 0 180 6.0 9.0 0.00 0.00 0.00 999.4
20260505083103 0 180 6.0 9.0 0.00 0.00 0.00 999.4
20260505083053 0 180 5.0 9.0 0.00 0.00 0.00 999.4
20260505083033 0 180 4.0 9.0 0.00 0.00 0.00 999.4
20260505083023 0 180 2.0 8.0 0.00 0.00 0.00 999.4
20260505083013 0 135 2.0 7.0 0.00 0.00 0.00 999.3
20260505083003 0 225 2.0 7.0 0.00 0.00 0.00 999.4
20260505082943 0 180 2.0 7.0 0.00 0.00 0.00 999.4
20260505082923 0 180 2.0 7.0 0.00 0.00 0.00 999.5
20260505082913 0 225 2.0 7.0 0.00 0.00 0.00 999.4
20260505082904 0 180 2.0 7.0 0.00 0.00 0.00 999.4
20260505082853 0 203 3.0 7.0 0.00 0.00 0.00 999.4
20260505082843 0 180 3.0 7.0 0.00 0.00 0.00 999.4
20260505082803 0 180 3.0 7.0 0.00 0.00 0.00 999.4
20260505082753 0 180 3.0 7.0 0.00 0.00 0.00 999.3
20260505082714 0 180 4.0 7.0 0.00 0.00 0.00 999.4
20260505082634 0 180 4.0 7.0 0.00 0.00 0.00 999.4
20260505082624 0 180 4.0 7.0 0.00 0.00 0.00 999.3
20260505082614 0 0 3.0 5.0 0.00 0.00 0.00 999.4
20260505082604 0 180 3.0 5.0 0.00 0.00 0.00 999.4
20260505082534 0 180 2.0 5.0 0.00 0.00 0.00 999.4
20260505082514 0 270 2.0 4.0 0.00 0.00 0.00 999.4
20260505082504 0 135 2.0 4.0 0.00 0.00 0.00 999.4
20260505082454 0 180 2.0 4.0 0.00 0.00 0.00 999.4
20260505082444 0 135 2.0 4.0 0.00 0.00 0.00 999.3
20260505082434 0 90 2.0 4.0 0.00 0.00 0.00 999.3
20260505082414 0 135 2.0 4.0 0.00 0.00 0.00 999.4
20260505082404 0 180 2.0 6.0 0.00 0.00 0.00 999.4
20260505082354 0 135 2.0 6.0 0.00 0.00 0.00 999.3
20260505082344 0 180 1.0 6.0 0.00 0.00 0.00 999.4
20260505082334 0 135 1.0 6.0 0.00 0.00 0.00 999.3
20260505082324 0 180 1.0 6.0 0.00 0.00 0.00 999.3
20260505082314 0 135 1.0 6.0 0.00 0.00 0.00 999.4
20260505082254 0 135 0.0 6.0 0.00 0.00 0.00 999.4
20260505082244 0 180 1.0 6.0 0.00 0.00 0.00 999.4
20260505082234 0 135 1.0 6.0 0.00 0.00 0.00 999.3
20260505082225 0 135 2.0 6.0 0.00 0.00 0.00 999.4
20260505082205 0 180 2.0 6.0 0.00 0.00 0.00 999.4
20260505082145 0 180 2.0 6.0 0.00 0.00 0.00 999.3
20260505082115 0 180 1.0 6.0 0.00 0.00 0.00 999.4
20260505082105 0 135 0.0 6.0 0.00 0.00 0.00 999.4
20260505082055 0 135 0.0 6.0 0.00 0.00 0.00 999.3
20260505082045 0 180 0.0 6.0 0.00 0.00 0.00 999.4
20260505082035 0 203 0.0 6.0 0.00 0.00 0.00 999.4
20260505082025 0 180 1.0 6.0 0.00 0.00 0.00 999.4
20260505082015 0 203 2.0 6.0 0.00 0.00 0.00 999.4
20260505082005 0 180 2.0 6.0 0.00 0.00 0.00 999.4
20260505081955 0 225 2.0 6.0 0.00 0.00 0.00 999.4
20260505081945 0 315 3.0 6.0 0.00 0.00 0.00 999.4
20260505081925 0 180 3.0 6.0 0.00 0.00 0.00 999.4
20260505081915 0 225 3.0 6.0 0.00 0.00 0.00 999.4
20260505081905 0 180 2.0 6.0 0.00 0.00 0.00 999.3
20260505081845 0 180 2.0 6.0 0.00 0.00 0.00 999.4
20260505081835 0 135 2.0 6.0 0.00 0.00 0.00 999.4
20260505081825 0 180 2.0 6.0 0.00 0.00 0.00 999.3
20260505081805 0 180 2.0 6.0 0.00 0.00 0.00 999.4
20260505081755 0 135 2.0 6.0 0.00 0.00 0.00 999.3
20260505081735 0 135 2.0 6.0 0.00 0.00 0.00 999.4
20260505081725 0 135 3.0 6.0 0.00 0.00 0.00 999.4
20260505081715 0 158 3.0 6.0 0.00 0.00 0.00 999.3
20260505081655 0 135 4.0 6.0 0.00 0.00 0.00 999.3
20260505081646 0 180 4.0 6.0 0.00 0.00 0.00 999.4
20260505081636 0 180 4.0 6.0 0.00 0.00 0.00 999.3
20260505081556 0 180 4.0 6.0 0.00 0.00 0.00 999.3
20260505081546 0 158 4.0 6.0 0.00 0.00 0.00 999.3
20260505081536 0 180 3.0 6.0 0.00 0.00 0.00 999.3
20260505081526 0 180 3.0 6.0 0.00 0.00 0.00 999.4
20260505081516 0 180 2.0 6.0 0.00 0.00 0.00 999.3
20260505081506 0 135 2.0 5.0 0.00 0.00 0.00 999.3
20260505081446 0 225 2.0 4.0 0.00 0.00 0.00 999.3
20260505081436 0 180 2.0 4.0 0.00 0.00 0.00 999.3
20260505081356 0 135 2.0 4.0 0.00 0.00 0.00 999.3
20260505081346 0 180 2.0 4.0 0.00 0.00 0.00 999.3
20260505081326 0 135 2.0 4.0 0.00 0.00 0.00 999.4
20260505081316 0 158 2.0 4.0 0.00 0.00 0.00 999.3
20260505081306 0 180 2.0 4.0 0.00 0.00 0.00 999.3
20260505081256 0 135 2.0 4.0 0.00 0.00 0.00 999.3
20260505081226 0 180 2.0 4.0 0.00 0.00 0.00 999.3
20260505081216 0 180 2.0 3.0 0.00 0.00 0.00 999.4
20260505081206 0 158 2.0 3.0 0.00 0.00 0.00 999.4
20260505081156 0 180 2.0 3.0 0.00 0.00 0.00 999.3
20260505081137 0 135 2.0 3.0 0.00 0.00 0.00 999.3
20260505081127 0 135 1.0 3.0 0.00 0.00 0.00 999.3
20260505081117 0 135 1.0 3.0 0.00 0.00 0.00 999.4
20260505081057 0 180 1.0 3.0 0.00 0.00 0.00 999.3
20260505081047 0 90 1.0 3.0 0.00 0.00 0.00 999.3
20260505081017 0 90 0.0 3.0 0.00 0.00 0.00 999.3
20260505081007 0 135 0.0 3.0 0.00 0.00 0.00 999.3
20260505080957 0 45 0.0 3.0 0.00 0.00 0.00 999.4
20260505080927 0 225 0.0 3.0 0.00 0.00 0.00 999.4
20260505080917 0 225 0.0 3.0 0.00 0.00 0.00 999.3
20260505080857 0 180 0.0 3.0 0.00 0.00 0.00 999.3
20260505080847 0 180 0.0 3.0 0.00 0.00 0.00 999.4
20260505080837 0 180 1.0 3.0 0.00 0.00 0.00 999.4
20260505080827 0 270 1.0 3.0 0.00 0.00 0.00 999.4
20260505080817 0 135 1.0 3.0 0.00 0.00 0.00 999.3
20260505080807 0 180 1.0 3.0 0.00 0.00 0.00 999.3
20260505080757 0 180 1.0 3.0 0.00 0.00 0.00 999.4
20260505080747 0 180 2.0 3.0 0.00 0.00 0.00 999.3
20260505080717 0 158 2.0 3.0 0.00 0.00 0.00 999.3
20260505080707 0 158 2.0 3.0 0.00 0.00 0.00 999.4
20260505080657 0 180 1.0 3.0 0.00 0.00 0.00 999.3
20260505080647 0 135 1.0 3.0 0.00 0.00 0.00 999.3
20260505080637 0 135 1.0 3.0 0.00 0.00 0.00 999.2
20260505080628 0 90 1.0 3.0 0.00 0.00 0.00 999.3
20260505080618 0 135 1.0 3.0 0.00 0.00 0.00 999.4
20260505080608 0 68 1.0 3.0 0.00 0.00 0.00 999.3
20260505080548 0 90 1.0 3.0 0.00 0.00 0.00 999.3
20260505080528 0 90 0.0 3.0 0.00 0.00 0.00 999.3
20260505080518 0 135 0.0 3.0 0.00 0.00 0.00 999.3
20260505080458 0 135 0.0 3.0 0.00 0.00 0.00 999.4
20260505080448 79 135 0.0 3.0 0.00 0.00 0.00 42 999.4
20260505080438 0 113 0.0 4.0 0.00 0.00 0.00 999.3
20260505080428 0 90 0.0 4.0 0.00 0.00 0.00 999.3
20260505080358 0 90 1.0 5.0 0.00 0.00 0.00 999.3
20260505080338 0 90 2.0 5.0 0.00 0.00 0.00 999.3
20260505080308 0 90 1.0 5.0 0.00 0.00 0.00 999.3
20260505080258 0 90 1.0 5.0 0.00 0.00 0.00 999.2
20260505080248 0 45 1.0 5.0 0.00 0.00 0.00 999.3
20260505080218 0 90 2.0 5.0 0.00 0.00 0.00 999.3
20260505080148 0 90 1.0 5.0 0.00 0.00 0.00 999.3
20260505080128 0 45 0.0 5.0 0.00 0.00 0.00 999.3
20260505080118 0 90 0.0 5.0 0.00 0.00 0.00 999.3
20260505080058 0 135 1.0 7.0 0.00 0.00 0.00 999.3
20260505080049 0 90 1.0 7.0 0.00 0.00 0.00 999.3
20260505080029 0 135 2.0 7.0 0.00 0.00 0.00 999.3
20260505075959 0 135 2.0 7.0 0.00 0.00 0.00 999.4
20260505075949 0 135 2.0 7.0 0.00 0.00 0.00 999.3
20260505075929 0 90 2.0 7.0 0.00 0.00 0.00 999.3
20260505075909 0 135 2.0 7.0 0.00 0.00 0.00 999.3
20260505075829 0 135 2.0 7.0 0.00 0.00 0.00 999.4
20260505075819 0 90 3.0 7.0 0.00 0.00 0.00 999.4
20260505075809 0 90 2.0 7.0 0.00 0.00 0.00 999.3
20260505075749 0 113 2.0 7.0 0.00 0.00 0.00 999.4
20260505075729 0 90 2.0 7.0 0.00 0.00 0.00 999.4
20260505075719 0 135 2.0 7.0 0.00 0.00 0.00 999.4
20260505075709 0 135 3.0 7.0 0.00 0.00 0.00 999.4
20260505075659 0 90 4.0 7.0 0.00 0.00 0.00 999.3
20260505075639 0 135 4.0 7.0 0.00 0.00 0.00 999.4
20260505075619 0 90 4.0 7.0 0.00 0.00 0.00 999.4
20260505075559 0 135 4.0 7.0 0.00 0.00 0.00 999.4
20260505075550 0 135 3.0 5.0 0.00 0.00 0.00 999.4
20260505075520 0 135 2.0 5.0 0.00 0.00 0.00 999.4
20260505075510 0 180 1.0 4.0 0.00 0.00 0.00 999.5
20260505075500 0 135 1.0 3.0 0.00 0.00 0.00 999.4
20260505075450 0 203 1.0 3.0 0.00 0.00 0.00 999.4
20260505075440 0 158 1.0 3.0 0.00 0.00 0.00 999.4
20260505075420 0 90 0.0 3.0 0.00 0.00 0.00 999.4
20260505075410 0 113 0.0 3.0 0.00 0.00 0.00 999.4
20260505075400 0 135 0.0 3.0 0.00 0.00 0.00 999.5
20260505075350 0 180 0.0 3.0 0.00 0.00 0.00 999.4
20260505075340 0 90 0.0 3.0 0.00 0.00 0.00 999.4
20260505075320 0 135 0.0 3.0 0.00 0.00 0.00 999.4
20260505075310 0 90 0.0 4.0 0.00 0.00 0.00 999.4
20260505075240 0 135 0.0 4.0 0.00 0.00 0.00 999.5
20260505075220 0 135 0.0 4.0 0.00 0.00 0.00 999.4
20260505075210 0 180 0.0 4.0 0.00 0.00 0.00 999.5
20260505075150 0 180 1.0 4.0 0.00 0.00 0.00 999.4
20260505075140 0 180 1.0 4.0 0.00 0.00 0.00 999.5
20260505075130 0 180 2.0 4.0 0.00 0.00 0.00 999.5
20260505075120 0 158 2.0 4.0 0.00 0.00 0.00 999.5
20260505075110 0 180 2.0 4.0 0.00 0.00 0.00 999.4
20260505075050 0 180 2.0 4.0 0.00 0.00 0.00 999.5
20260505075041 0 180 1.0 4.0 0.00 0.00 0.00 999.4
20260505075031 0 180 1.0 4.0 0.00 0.00 0.00 999.5
20260505075011 0 180 0.0 4.0 0.00 0.00 0.00 999.5
20260505075001 0 135 0.0 4.0 0.00 0.00 0.00 999.5
20260505074951 0 90 1.0 4.0 0.00 0.00 0.00 999.5
20260505074941 0 135 1.0 4.0 0.00 0.00 0.00 999.5
20260505074911 0 135 2.0 4.0 0.00 0.00 0.00 999.5
20260505074841 0 135 2.0 4.0 0.00 0.00 0.00 999.4
20260505074831 0 158 2.0 4.0 0.00 0.00 0.00 999.5
20260505074821 0 135 2.0 4.0 0.00 0.00 0.00 999.5
20260505074801 0 135 1.0 3.0 0.00 0.00 0.00 999.4
20260505074751 0 158 1.0 3.0 0.00 0.00 0.00 999.5
20260505074742 0 180 1.0 3.0 0.00 0.00 0.00 999.5
20260505074731 0 135 1.0 3.0 0.00 0.00 0.00 999.5
20260505074721 0 90 2.0 3.0 0.00 0.00 0.00 999.5
20260505074651 0 113 1.0 3.0 0.00 0.00 0.00 999.5
20260505074641 0 90 1.0 3.0 0.00 0.00 0.00 999.5
20260505074621 0 135 0.0 3.0 0.00 0.00 0.00 999.5
20260505074611 0 45 0.0 3.0 0.00 0.00 0.00 999.5
20260505074542 0 135 1.0 3.0 0.00 0.00 0.00 999.5
20260505074522 0 180 1.0 3.0 0.00 0.00 0.00 999.5
20260505074502 0 135 1.0 3.0 0.00 0.00 0.00 999.5
20260505074422 0 135 1.0 3.0 0.00 0.00 0.00 999.5
20260505074412 0 90 1.0 3.0 0.00 0.00 0.00 999.5
20260505074332 0 135 1.0 3.0 0.00 0.00 0.00 999.5
20260505074252 0 135 1.0 3.0 0.00 0.00 0.00 999.5
20260505074242 0 135 1.0 4.0 0.00 0.00 0.00 999.5
20260505074232 0 135 1.0 5.0 0.00 0.00 0.00 999.5
20260505074222 0 90 1.0 5.0 0.00 0.00 0.00 999.5
20260505074202 0 90 0.0 5.0 0.00 0.00 0.00 999.5
20260505074142 0 135 0.0 5.0 0.00 0.00 0.00 999.5
20260505074123 0 225 0.0 5.0 0.00 0.00 0.00 999.5
20260505074113 0 180 0.0 5.0 0.00 0.00 0.00 999.5
20260505074103 0 90 0.0 5.0 0.00 0.00 0.00 999.5
20260505074053 0 0 0.0 5.0 0.00 0.00 0.00 999.5
20260505074023 0 90 0.0 5.0 0.00 0.00 0.00 999.5
20260505073943 0 90 1.0 5.0 0.00 0.00 0.00 999.5
20260505073903 0 90 1.0 5.0 0.00 0.00 0.00 999.5
20260505073833 0 90 2.0 6.0 0.00 0.00 0.00 999.5
20260505073823 0 135 2.0 6.0 0.00 0.00 0.00 999.5
20260505073813 0 90 2.0 6.0 0.00 0.00 0.00 999.4
20260505073743 0 90 2.0 6.0 0.00 0.00 0.00 999.5
20260505073733 0 113 1.0 6.0 0.00 0.00 0.00 999.5
20260505073723 0 90 1.0 6.0 0.00 0.00 0.00 999.5
20260505073713 0 90 1.0 6.0 0.00 0.00 0.00 999.6
20260505073653 0 135 0.0 6.0 0.00 0.00 0.00 999.5
20260505073643 0 158 1.0 6.0 0.00 0.00 0.00 999.5
20260505073634 0 90 1.0 6.0 0.00 0.00 0.00 999.5
20260505073624 0 90 2.0 6.0 0.00 0.00 0.00 999.5
20260505073614 0 113 2.0 6.0 0.00 0.00 0.00 999.6
20260505073554 0 68 2.0 6.0 0.00 0.00 0.00 999.6
20260505073544 0 135 2.0 6.0 0.00 0.00 0.00 999.6
20260505073534 0 113 2.0 6.0 0.00 0.00 0.00 999.5
20260505073524 0 135 2.0 6.0 0.00 0.00 0.00 999.5
20260505073454 0 135 2.0 6.0 0.00 0.00 0.00 999.6
20260505073444 0 135 3.0 6.0 0.00 0.00 0.00 999.6
20260505073404 0 135 3.0 6.0 0.00 0.00 0.00 999.6
20260505073354 0 113 3.0 5.0 0.00 0.00 0.00 999.6
20260505073344 0 90 3.0 5.0 0.00 0.00 0.00 999.6
20260505073334 0 135 2.0 5.0 0.00 0.00 0.00 999.6
20260505073324 0 113 2.0 5.0 0.00 0.00 0.00 999.6
20260505073244 0 135 2.0 5.0 0.00 0.00 0.00 999.6
20260505073234 0 90 2.0 5.0 0.00 0.00 0.00 999.6
20260505073204 0 135 2.0 5.0 0.00 0.00 0.00 999.6
20260505073154 0 90 2.0 5.0 0.00 0.00 0.00 999.6
20260505073115 0 90 2.0 5.0 0.00 0.00 0.00 999.6
20260505073105 0 135 2.0 5.0 0.00 0.00 0.00 999.6
20260505073055 0 90 2.0 2.0 0.00 0.00 0.00 999.6
20260505073045 0 90 1.0 2.0 0.00 0.00 0.00 999.6
20260505073035 0 90 1.0 2.0 0.00 0.00 0.00 999.7
20260505073025 0 90 0.0 2.0 0.00 0.00 0.00 999.6
20260505073015 0 135 0.0 2.0 0.00 0.00 0.00 999.6
20260505073005 0 180 0.0 2.0 0.00 0.00 0.00 999.7
20260505072945 0 90 0.0 2.0 0.00 0.00 0.00 999.6
20260505072935 0 135 0.0 2.0 0.00 0.00 0.00 999.6
20260505072925 0 315 0.0 2.0 0.00 0.00 0.00 999.6
20260505072915 0 45 0.0 2.0 0.00 0.00 0.00 999.7
20260505072855 0 45 0.0 2.0 0.00 0.00 0.00 999.6
20260505072845 0 90 0.0 3.0 0.00 0.00 0.00 999.6
20260505072825 0 135 0.0 3.0 0.00 0.00 0.00 999.6
20260505072815 0 180 0.0 3.0 0.00 0.00 0.00 999.6
20260505072805 0 158 0.0 3.0 0.00 0.00 0.00 999.6
20260505072745 0 90 0.0 3.0 0.00 0.00 0.00 999.6
20260505072725 0 135 0.0 3.0 0.00 0.00 0.00 999.6
20260505072705 0 90 0.0 3.0 0.00 0.00 0.00 999.6
20260505072645 0 113 0.0 3.0 0.00 0.00 0.00 999.6
20260505072626 0 135 0.0 3.0 0.00 0.00 0.00 999.6
20260505072606 0 135 0.0 3.0 0.00 0.00 0.00 999.5
20260505072556 0 68 0.0 3.0 0.00 0.00 0.00 999.6
20260505072526 0 90 1.0 3.0 0.00 0.00 0.00 999.6
20260505072516 0 45 1.0 3.0 0.00 0.00 0.00 999.5
20260505072456 0 45 1.0 3.0 0.00 0.00 0.00 999.6
20260505072436 0 45 1.0 3.0 0.00 0.00 0.00 999.5
20260505072426 0 90 1.0 3.0 0.00 0.00 0.00 999.5
20260505072416 0 90 2.0 3.0 0.00 0.00 0.00 999.5
20260505072346 0 45 2.0 3.0 0.00 0.00 0.00 999.5
20260505072336 0 90 1.0 2.0 0.00 0.00 0.00 999.5
20260505072326 0 68 1.0 2.0 0.00 0.00 0.00 999.5
20260505072316 0 45 1.0 2.0 0.00 0.00 0.00 999.5
20260505072256 0 90 1.0 2.0 0.00 0.00 0.00 999.5
20260505072246 0 90 1.0 3.0 0.00 0.00 0.00 999.6
20260505072236 0 90 0.0 3.0 0.00 0.00 0.00 999.5
20260505072206 0 135 0.0 3.0 0.00 0.00 0.00 999.6
20260505072146 0 113 0.0 3.0 0.00 0.00 0.00 999.6
20260505072127 0 90 0.0 3.0 0.00 0.00 0.00 999.6
20260505072047 0 135 1.0 3.0 0.00 0.00 0.00 999.6
20260505072017 0 135 2.0 3.0 0.00 0.00 0.00 999.6
20260505072007 0 158 2.0 3.0 0.00 0.00 0.00 999.7
20260505071957 0 180 2.0 3.0 0.00 0.00 0.00 999.6
20260505071947 0 135 1.0 3.0 0.00 0.00 0.00 999.6
20260505071927 0 135 0.0 3.0 0.00 0.00 0.00 999.7
20260505071917 0 158 0.0 3.0 0.00 0.00 0.00 999.6
20260505071907 0 180 0.0 3.0 0.00 0.00 0.00 999.6
20260505071857 0 180 0.0 3.0 0.00 0.00 0.00 999.7
20260505071847 0 45 0.0 3.0 0.00 0.00 0.00 999.6
20260505071827 0 180 1.0 3.0 0.00 0.00 0.00 999.7
20260505071747 0 180 1.0 3.0 0.00 0.00 0.00 999.7
20260505071717 0 135 0.0 3.0 0.00 0.00 0.00 999.7
20260505071707 0 180 0.0 3.0 0.00 0.00 0.00 999.7
20260505071657 0 135 1.0 3.0 0.00 0.00 0.00 999.7
20260505071627 0 135 2.0 3.0 0.00 0.00 0.00 999.7
20260505071617 0 135 1.0 3.0 0.00 0.00 0.00 999.7
20260505071548 0 180 1.0 3.0 0.00 0.00 0.00 999.7
20260505071538 0 158 1.0 2.0 0.00 0.00 0.00 999.7
20260505071518 0 135 0.0 3.0 0.00 0.00 0.00 999.8
20260505071508 0 135 0.0 3.0 0.00 0.00 0.00 999.7
20260505071458 0 135 0.0 3.0 0.00 0.00 0.00 999.6
20260505071428 0 135 0.0 3.0 0.00 0.00 0.00 999.7
20260505071418 0 180 0.0 3.0 0.00 0.00 0.00 999.8
20260505071358 0 180 0.0 3.0 0.00 0.00 0.00 999.7
20260505071348 0 158 0.0 3.0 0.00 0.00 0.00 999.8
20260505071338 0 180 0.0 3.0 0.00 0.00 0.00 999.8
20260505071328 0 180 1.0 3.0 0.00 0.00 0.00 999.8
20260505071248 0 180 1.0 4.0 0.00 0.00 0.00 999.8
20260505071218 0 180 0.0 4.0 0.00 0.00 0.00 999.7
20260505071208 0 180 0.0 4.0 0.00 0.00 0.00 999.8
20260505071158 0 203 0.0 4.0 0.00 0.00 0.00 999.7
20260505071148 0 135 0.0 4.0 0.00 0.00 0.00 999.8
20260505071138 0 180 0.0 4.0 0.00 0.00 0.00 999.7
20260505071128 0 180 1.0 4.0 0.00 0.00 0.00 999.7
20260505071118 0 225 1.0 4.0 0.00 0.00 0.00 999.7
20260505071109 0 225 1.0 4.0 0.00 0.00 0.00 999.8
20260505071049 0 225 2.0 4.0 0.00 0.00 0.00 999.8
20260505071029 0 270 1.0 4.0 0.00 0.00 0.00 999.8
20260505071009 0 225 1.0 4.0 0.00 0.00 0.00 999.8
20260505070959 0 225 0.0 4.0 0.00 0.00 0.00 999.8
20260505070929 0 225 1.0 4.0 0.00 0.00 0.00 999.8
20260505070919 0 248 2.0 4.0 0.00 0.00 0.00 999.8
20260505070909 0 180 2.0 4.0 0.00 0.00 0.00 999.8
20260505070839 0 225 2.0 4.0 0.00 0.00 0.00 999.8
20260505070829 0 248 2.0 4.0 0.00 0.00 0.00 999.8
20260505070819 0 225 1.0 4.0 0.00 0.00 0.00 999.8
20260505070809 0 225 1.0 4.0 0.00 0.00 0.00 999.7
20260505070749 0 225 2.0 4.0 0.00 0.00 0.00 999.7
20260505070729 0 225 2.0 4.0 0.00 0.00 0.00 999.8
20260505070659 0 270 2.0 4.0 0.00 0.00 0.00 999.8
20260505070619 0 270 2.0 4.0 0.00 0.00 0.00 999.8
20260505070609 0 248 2.0 4.0 0.00 0.00 0.00 999.8
20260505070600 0 225 2.0 4.0 0.00 0.00 0.00 999.8
20260505070540 0 225 1.0 4.0 0.00 0.00 0.00 999.8
20260505070530 0 270 0.0 4.0 0.00 0.00 0.00 999.8
20260505070520 0 248 0.0 2.0 0.00 0.00 0.00 999.8
20260505070440 0 180 0.0 2.0 0.00 0.00 0.00 999.8
20260505070400 0 135 0.0 2.0 0.00 0.00 0.00 999.8
20260505070350 0 225 1.0 2.0 0.00 0.00 0.00 999.8
20260505070340 0 270 1.0 2.0 0.00 0.00 0.00 999.8
20260505070320 0 225 0.0 2.0 0.00 0.00 0.00 999.8
20260505070300 0 270 0.0 2.0 0.00 0.00 0.00 999.8
20260505070240 0 225 0.0 3.0 0.00 0.00 0.00 999.8
20260505070200 0 315 0.0 3.0 0.00 0.00 0.00 999.8
20260505070140 0 270 0.0 3.0 0.00 0.00 0.00 999.8
20260505070130 0 0 0.0 3.0 0.00 0.00 0.00 999.8
20260505070050 0 0 0.0 3.0 0.00 0.00 0.00 999.8
20260505070041 0 270 0.0 3.0 0.00 0.00 0.00 999.8
20260505070021 0 315 0.0 3.0 0.00 0.00 0.00 999.8
20260505070011 0 0 0.0 3.0 0.00 0.00 0.00 999.8
20260505070001 0 270 0.0 3.0 0.00 0.00 0.00 999.8
20260505065951 0 270 0.0 4.0 0.00 0.00 0.00 999.8
20260505065941 0 270 0.0 5.0 0.00 0.00 0.00 999.8
20260505065931 0 315 0.0 5.0 0.00 0.00 0.00 999.8
20260505065921 0 0 1.0 5.0 0.00 0.00 0.00 999.8
20260505065911 0 0 1.0 5.0 0.00 0.00 0.00 999.7
20260505065901 0 315 1.0 5.0 0.00 0.00 0.00 999.8
20260505065851 0 315 2.0 5.0 0.00 0.00 0.00 999.8
20260505065801 0 270 2.0 5.0 0.00 0.00 0.00 999.8
20260505065741 0 270 1.0 5.0 0.00 0.00 0.00 999.7
20260505065721 0 270 0.0 5.0 0.00 0.00 0.00 999.8
20260505065711 0 225 0.0 5.0 0.00 0.00 0.00 999.8
20260505065701 0 225 1.0 5.0 0.00 0.00 0.00 999.8
20260505065641 0 315 1.0 5.0 0.00 0.00 0.00 999.8
20260505065611 0 315 2.0 5.0 0.00 0.00 0.00 999.8
20260505065532 0 270 2.0 5.0 0.00 0.00 0.00 999.8
20260505065452 0 270 3.0 5.0 0.00 0.00 0.00 999.8